<?xml version='1.0' encoding='UTF-8'?><gpx version="1.1" creator="JPX - https://github.com/jenetics/jpx" xmlns="http://www.topografix.com/GPX/1/1"><trk><trkseg><trkpt lat="42.7773211" lon="12.4114622"><ele>300.4</ele><time>2026-04-30T06:35:48.408Z</time></trkpt><trkpt lat="42.7773908" lon="12.4112648"><ele>300.8</ele><time>2026-04-30T06:35:58.236Z</time></trkpt><trkpt lat="42.7773763" lon="12.4111748"><ele>301.2</ele><time>2026-04-30T06:36:02.282Z</time></trkpt><trkpt lat="42.7773182" lon="12.4111132"><ele>301.6</ele><time>2026-04-30T06:36:04.16Z</time></trkpt><trkpt lat="42.7772324" lon="12.4110672"><ele>302.0</ele><time>2026-04-30T06:36:07.255Z</time></trkpt><trkpt lat="42.7771273" lon="12.4110745"><ele>302.0</ele><time>2026-04-30T06:36:09.246Z</time></trkpt><trkpt lat="42.7770609" lon="12.4110011"><ele>302.0</ele><time>2026-04-30T06:36:13.255Z</time></trkpt><trkpt lat="42.7770178" lon="12.4109128"><ele>302.0</ele><time>2026-04-30T06:36:15.257Z</time></trkpt><trkpt lat="42.7769624" lon="12.4108049"><ele>302.0</ele><time>2026-04-30T06:36:17.294Z</time></trkpt><trkpt lat="42.776905" lon="12.4106714"><ele>302.0</ele><time>2026-04-30T06:36:19.258Z</time></trkpt><trkpt lat="42.7769291" lon="12.4105445"><ele>302.0</ele><time>2026-04-30T06:36:21.242Z</time></trkpt><trkpt lat="42.7769891" lon="12.4103309"><ele>302.0</ele><time>2026-04-30T06:36:23.264Z</time></trkpt><trkpt lat="42.7770132" lon="12.4102319"><ele>302.0</ele><time>2026-04-30T06:36:24.257Z</time></trkpt><trkpt lat="42.7769675" lon="12.4100916"><ele>302.0</ele><time>2026-04-30T06:36:26.258Z</time></trkpt><trkpt lat="42.7769151" lon="12.4099983"><ele>302.0</ele><time>2026-04-30T06:36:28.254Z</time></trkpt><trkpt lat="42.7767283" lon="12.4097956"><ele>302.0</ele><time>2026-04-30T06:36:29.254Z</time></trkpt><trkpt lat="42.7766972" lon="12.4096988"><ele>302.0</ele><time>2026-04-30T06:36:30.255Z</time></trkpt><trkpt lat="42.7766921" lon="12.4096112"><ele>302.0</ele><time>2026-04-30T06:36:31.254Z</time></trkpt><trkpt lat="42.7767421" lon="12.4094864"><ele>302.0</ele><time>2026-04-30T06:36:33.266Z</time></trkpt><trkpt lat="42.776829" lon="12.4093599"><ele>302.0</ele><time>2026-04-30T06:36:35.254Z</time></trkpt><trkpt lat="42.7768837" lon="12.409289"><ele>302.0</ele><time>2026-04-30T06:36:36.248Z</time></trkpt><trkpt lat="42.7769415" lon="12.4092228"><ele>303.5</ele><time>2026-04-30T06:36:37.257Z</time></trkpt><trkpt lat="42.77701" lon="12.4091681"><ele>305.0</ele><time>2026-04-30T06:36:38.257Z</time></trkpt><trkpt lat="42.7770757" lon="12.4091305"><ele>306.5</ele><time>2026-04-30T06:36:39.273Z</time></trkpt><trkpt lat="42.7771364" lon="12.4090499"><ele>308.0</ele><time>2026-04-30T06:36:41.262Z</time></trkpt><trkpt lat="42.7771156" lon="12.4089135"><ele>309.5</ele><time>2026-04-30T06:36:43.265Z</time></trkpt><trkpt lat="42.7770952" lon="12.408789"><ele>311.0</ele><time>2026-04-30T06:36:45.247Z</time></trkpt><trkpt lat="42.7770661" lon="12.4086996"><ele>311.6666666666667</ele><time>2026-04-30T06:36:47.264Z</time></trkpt><trkpt lat="42.7770373" lon="12.4086221"><ele>312.33333333333337</ele><time>2026-04-30T06:36:50.254Z</time></trkpt><trkpt lat="42.7769496" lon="12.4086166"><ele>313.0</ele><time>2026-04-30T06:36:54.247Z</time></trkpt><trkpt lat="42.7768562" lon="12.4086805"><ele>313.6666666666667</ele><time>2026-04-30T06:36:56.251Z</time></trkpt><trkpt lat="42.7767485" lon="12.4087487"><ele>314.3333333333333</ele><time>2026-04-30T06:36:58.26Z</time></trkpt><trkpt lat="42.7766891" lon="12.4087838"><ele>315.0</ele><time>2026-04-30T06:36:59.25Z</time></trkpt><trkpt lat="42.7766307" lon="12.408826"><ele>312.5</ele><time>2026-04-30T06:37:00.257Z</time></trkpt><trkpt lat="42.7765694" lon="12.4088694"><ele>310.0</ele><time>2026-04-30T06:37:01.266Z</time></trkpt><trkpt lat="42.7765007" lon="12.4089139"><ele>307.5</ele><time>2026-04-30T06:37:02.24Z</time></trkpt><trkpt lat="42.7764123" lon="12.4089624"><ele>305.0</ele><time>2026-04-30T06:37:03.256Z</time></trkpt><trkpt lat="42.7763186" lon="12.4090125"><ele>302.5</ele><time>2026-04-30T06:37:04.249Z</time></trkpt><trkpt lat="42.7762267" lon="12.4090663"><ele>300.0</ele><time>2026-04-30T06:37:05.246Z</time></trkpt><trkpt lat="42.7761381" lon="12.4091263"><ele>300.0</ele><time>2026-04-30T06:37:06.238Z</time></trkpt><trkpt lat="42.7760499" lon="12.409182"><ele>300.0</ele><time>2026-04-30T06:37:07.252Z</time></trkpt><trkpt lat="42.7759653" lon="12.4092385"><ele>300.0</ele><time>2026-04-30T06:37:08.252Z</time></trkpt><trkpt lat="42.7758773" lon="12.4092941"><ele>300.0</ele><time>2026-04-30T06:37:09.248Z</time></trkpt><trkpt lat="42.7757854" lon="12.4093583"><ele>300.0</ele><time>2026-04-30T06:37:10.251Z</time></trkpt><trkpt lat="42.7756926" lon="12.4094269"><ele>297.6</ele><time>2026-04-30T06:37:11.25Z</time></trkpt><trkpt lat="42.7755962" lon="12.4094937"><ele>295.2</ele><time>2026-04-30T06:37:12.246Z</time></trkpt><trkpt lat="42.7755001" lon="12.4095708"><ele>292.8</ele><time>2026-04-30T06:37:13.253Z</time></trkpt><trkpt lat="42.7754062" lon="12.4096565"><ele>290.4</ele><time>2026-04-30T06:37:14.251Z</time></trkpt><trkpt lat="42.7753133" lon="12.4097381"><ele>288.0</ele><time>2026-04-30T06:37:15.266Z</time></trkpt><trkpt lat="42.7752152" lon="12.4098169"><ele>283.0</ele><time>2026-04-30T06:37:16.247Z</time></trkpt><trkpt lat="42.7751176" lon="12.409896"><ele>278.0</ele><time>2026-04-30T06:37:17.268Z</time></trkpt><trkpt lat="42.7750209" lon="12.4099762"><ele>273.0</ele><time>2026-04-30T06:37:18.254Z</time></trkpt><trkpt lat="42.7749218" lon="12.4100515"><ele>268.0</ele><time>2026-04-30T06:37:19.248Z</time></trkpt><trkpt lat="42.7748207" lon="12.4101279"><ele>268.0</ele><time>2026-04-30T06:37:20.255Z</time></trkpt><trkpt lat="42.7747166" lon="12.4102046"><ele>268.0</ele><time>2026-04-30T06:37:21.255Z</time></trkpt><trkpt lat="42.7746089" lon="12.4102771"><ele>268.0</ele><time>2026-04-30T06:37:22.247Z</time></trkpt><trkpt lat="42.7744982" lon="12.4103512"><ele>268.0</ele><time>2026-04-30T06:37:23.272Z</time></trkpt><trkpt lat="42.7743917" lon="12.4104258"><ele>264.0</ele><time>2026-04-30T06:37:24.254Z</time></trkpt><trkpt lat="42.774283" lon="12.4105032"><ele>260.0</ele><time>2026-04-30T06:37:25.275Z</time></trkpt><trkpt lat="42.7741709" lon="12.4105778"><ele>256.0</ele><time>2026-04-30T06:37:26.247Z</time></trkpt><trkpt lat="42.7740577" lon="12.4106513"><ele>252.0</ele><time>2026-04-30T06:37:27.252Z</time></trkpt><trkpt lat="42.7739456" lon="12.4107285"><ele>252.0</ele><time>2026-04-30T06:37:28.247Z</time></trkpt><trkpt lat="42.773837" lon="12.4108093"><ele>252.0</ele><time>2026-04-30T06:37:29.252Z</time></trkpt><trkpt lat="42.7737262" lon="12.4108908"><ele>252.0</ele><time>2026-04-30T06:37:30.253Z</time></trkpt><trkpt lat="42.7736185" lon="12.4109689"><ele>252.0</ele><time>2026-04-30T06:37:31.249Z</time></trkpt><trkpt lat="42.7735092" lon="12.4110437"><ele>248.75</ele><time>2026-04-30T06:37:32.253Z</time></trkpt><trkpt lat="42.773399" lon="12.4111167"><ele>245.5</ele><time>2026-04-30T06:37:33.257Z</time></trkpt><trkpt lat="42.7732896" lon="12.4111914"><ele>242.25</ele><time>2026-04-30T06:37:34.258Z</time></trkpt><trkpt lat="42.7731733" lon="12.4112703"><ele>239.0</ele><time>2026-04-30T06:37:35.257Z</time></trkpt><trkpt lat="42.7730564" lon="12.4113494"><ele>238.25</ele><time>2026-04-30T06:37:36.262Z</time></trkpt><trkpt lat="42.7729384" lon="12.411431"><ele>237.5</ele><time>2026-04-30T06:37:37.263Z</time></trkpt><trkpt lat="42.7728229" lon="12.411511"><ele>236.75</ele><time>2026-04-30T06:37:38.249Z</time></trkpt><trkpt lat="42.7727033" lon="12.411596"><ele>236.0</ele><time>2026-04-30T06:37:39.255Z</time></trkpt><trkpt lat="42.7725836" lon="12.4116792"><ele>232.25</ele><time>2026-04-30T06:37:40.266Z</time></trkpt><trkpt lat="42.7724592" lon="12.4117617"><ele>228.5</ele><time>2026-04-30T06:37:41.26Z</time></trkpt><trkpt lat="42.7723377" lon="12.411838"><ele>224.75</ele><time>2026-04-30T06:37:42.262Z</time></trkpt><trkpt lat="42.7722172" lon="12.4119176"><ele>221.0</ele><time>2026-04-30T06:37:43.261Z</time></trkpt><trkpt lat="42.7720952" lon="12.4120014"><ele>221.0</ele><time>2026-04-30T06:37:44.253Z</time></trkpt><trkpt lat="42.7719751" lon="12.4120863"><ele>221.0</ele><time>2026-04-30T06:37:45.248Z</time></trkpt><trkpt lat="42.7718526" lon="12.4121717"><ele>221.0</ele><time>2026-04-30T06:37:46.256Z</time></trkpt><trkpt lat="42.7717217" lon="12.4122643"><ele>221.0</ele><time>2026-04-30T06:37:47.251Z</time></trkpt><trkpt lat="42.7715879" lon="12.4123598"><ele>216.33333333333334</ele><time>2026-04-30T06:37:48.254Z</time></trkpt><trkpt lat="42.7714531" lon="12.4124556"><ele>211.66666666666669</ele><time>2026-04-30T06:37:49.272Z</time></trkpt><trkpt lat="42.7713176" lon="12.4125527"><ele>207.0</ele><time>2026-04-30T06:37:50.265Z</time></trkpt><trkpt lat="42.7711789" lon="12.4126504"><ele>207.0</ele><time>2026-04-30T06:37:51.247Z</time></trkpt><trkpt lat="42.771038" lon="12.4127511"><ele>207.0</ele><time>2026-04-30T06:37:52.258Z</time></trkpt><trkpt lat="42.7708951" lon="12.412855"><ele>207.0</ele><time>2026-04-30T06:37:53.262Z</time></trkpt><trkpt lat="42.7707527" lon="12.4129544"><ele>203.0</ele><time>2026-04-30T06:37:54.235Z</time></trkpt><trkpt lat="42.7706129" lon="12.4130577"><ele>199.0</ele><time>2026-04-30T06:37:55.274Z</time></trkpt><trkpt lat="42.7704762" lon="12.4131511"><ele>195.0</ele><time>2026-04-30T06:37:56.265Z</time></trkpt><trkpt lat="42.7703442" lon="12.4132412"><ele>195.0</ele><time>2026-04-30T06:37:57.254Z</time></trkpt><trkpt lat="42.7702141" lon="12.4133312"><ele>195.0</ele><time>2026-04-30T06:37:58.252Z</time></trkpt><trkpt lat="42.7700828" lon="12.4134223"><ele>195.0</ele><time>2026-04-30T06:37:59.249Z</time></trkpt><trkpt lat="42.7699459" lon="12.4135179"><ele>195.0</ele><time>2026-04-30T06:38:00.263Z</time></trkpt><trkpt lat="42.7698055" lon="12.413618"><ele>190.33333333333334</ele><time>2026-04-30T06:38:01.263Z</time></trkpt><trkpt lat="42.7696627" lon="12.4137175"><ele>185.66666666666669</ele><time>2026-04-30T06:38:02.253Z</time></trkpt><trkpt lat="42.7695172" lon="12.4138211"><ele>181.0</ele><time>2026-04-30T06:38:03.25Z</time></trkpt><trkpt lat="42.7693702" lon="12.4139227"><ele>176.0</ele><time>2026-04-30T06:38:04.258Z</time></trkpt><trkpt lat="42.7692272" lon="12.4140211"><ele>171.0</ele><time>2026-04-30T06:38:05.259Z</time></trkpt><trkpt lat="42.7690871" lon="12.4141238"><ele>166.0</ele><time>2026-04-30T06:38:06.264Z</time></trkpt><trkpt lat="42.768946" lon="12.4142249"><ele>166.0</ele><time>2026-04-30T06:38:07.257Z</time></trkpt><trkpt lat="42.7687971" lon="12.4143375"><ele>166.0</ele><time>2026-04-30T06:38:08.252Z</time></trkpt><trkpt lat="42.7686378" lon="12.4144417"><ele>166.0</ele><time>2026-04-30T06:38:09.266Z</time></trkpt><trkpt lat="42.7684812" lon="12.4145489"><ele>166.66666666666669</ele><time>2026-04-30T06:38:10.266Z</time></trkpt><trkpt lat="42.7683228" lon="12.4146562"><ele>167.33333333333334</ele><time>2026-04-30T06:38:11.263Z</time></trkpt><trkpt lat="42.7681709" lon="12.4147452"><ele>168.0</ele><time>2026-04-30T06:38:12.256Z</time></trkpt><trkpt lat="42.7680194" lon="12.4148231"><ele>168.0</ele><time>2026-04-30T06:38:13.25Z</time></trkpt><trkpt lat="42.7678689" lon="12.4148831"><ele>168.0</ele><time>2026-04-30T06:38:14.295Z</time></trkpt><trkpt lat="42.7677253" lon="12.414939"><ele>168.0</ele><time>2026-04-30T06:38:15.267Z</time></trkpt><trkpt lat="42.7675897" lon="12.4149753"><ele>168.0</ele><time>2026-04-30T06:38:16.285Z</time></trkpt><trkpt lat="42.7674584" lon="12.4150007"><ele>168.0</ele><time>2026-04-30T06:38:17.284Z</time></trkpt><trkpt lat="42.7673443" lon="12.4150198"><ele>168.0</ele><time>2026-04-30T06:38:18.262Z</time></trkpt><trkpt lat="42.7672329" lon="12.4150268"><ele>168.0</ele><time>2026-04-30T06:38:19.256Z</time></trkpt><trkpt lat="42.7671239" lon="12.415019"><ele>168.0</ele><time>2026-04-30T06:38:20.278Z</time></trkpt><trkpt lat="42.7670136" lon="12.4149751"><ele>168.0</ele><time>2026-04-30T06:38:21.262Z</time></trkpt><trkpt lat="42.7668955" lon="12.4148905"><ele>168.0</ele><time>2026-04-30T06:38:22.259Z</time></trkpt><trkpt lat="42.7667872" lon="12.414772"><ele>168.0</ele><time>2026-04-30T06:38:23.257Z</time></trkpt><trkpt lat="42.7666812" lon="12.4146302"><ele>168.0</ele><time>2026-04-30T06:38:24.266Z</time></trkpt><trkpt lat="42.7665694" lon="12.414498"><ele>166.33333333333334</ele><time>2026-04-30T06:38:25.265Z</time></trkpt><trkpt lat="42.766451" lon="12.4143544"><ele>164.66666666666669</ele><time>2026-04-30T06:38:26.267Z</time></trkpt><trkpt lat="42.7663303" lon="12.414211"><ele>163.0</ele><time>2026-04-30T06:38:27.269Z</time></trkpt><trkpt lat="42.7662067" lon="12.4140718"><ele>163.0</ele><time>2026-04-30T06:38:28.264Z</time></trkpt><trkpt lat="42.7660729" lon="12.4139404"><ele>163.0</ele><time>2026-04-30T06:38:29.252Z</time></trkpt><trkpt lat="42.765932" lon="12.4138258"><ele>163.0</ele><time>2026-04-30T06:38:30.268Z</time></trkpt><trkpt lat="42.7657849" lon="12.4137153"><ele>162.66666666666669</ele><time>2026-04-30T06:38:31.258Z</time></trkpt><trkpt lat="42.7656364" lon="12.4136104"><ele>162.33333333333334</ele><time>2026-04-30T06:38:32.285Z</time></trkpt><trkpt lat="42.7654839" lon="12.413507"><ele>162.0</ele><time>2026-04-30T06:38:33.26Z</time></trkpt><trkpt lat="42.7653293" lon="12.4134073"><ele>162.0</ele><time>2026-04-30T06:38:34.266Z</time></trkpt><trkpt lat="42.7651682" lon="12.4133176"><ele>162.0</ele><time>2026-04-30T06:38:35.259Z</time></trkpt><trkpt lat="42.7650072" lon="12.4132356"><ele>162.0</ele><time>2026-04-30T06:38:36.258Z</time></trkpt><trkpt lat="42.7648452" lon="12.4131596"><ele>162.0</ele><time>2026-04-30T06:38:37.267Z</time></trkpt><trkpt lat="42.7646799" lon="12.4130858"><ele>162.0</ele><time>2026-04-30T06:38:38.258Z</time></trkpt><trkpt lat="42.7645194" lon="12.4130211"><ele>162.0</ele><time>2026-04-30T06:38:39.251Z</time></trkpt><trkpt lat="42.7643555" lon="12.4129834"><ele>162.0</ele><time>2026-04-30T06:38:40.289Z</time></trkpt><trkpt lat="42.7641869" lon="12.4129696"><ele>162.0</ele><time>2026-04-30T06:38:41.265Z</time></trkpt><trkpt lat="42.7640172" lon="12.4129867"><ele>162.0</ele><time>2026-04-30T06:38:42.26Z</time></trkpt><trkpt lat="42.7638438" lon="12.4129962"><ele>161.66666666666666</ele><time>2026-04-30T06:38:43.265Z</time></trkpt><trkpt lat="42.7636665" lon="12.4130089"><ele>161.33333333333331</ele><time>2026-04-30T06:38:44.258Z</time></trkpt><trkpt lat="42.7634871" lon="12.4130191"><ele>161.0</ele><time>2026-04-30T06:38:45.259Z</time></trkpt><trkpt lat="42.7633054" lon="12.4130183"><ele>161.66666666666666</ele><time>2026-04-30T06:38:46.259Z</time></trkpt><trkpt lat="42.7631208" lon="12.4130127"><ele>162.33333333333334</ele><time>2026-04-30T06:38:47.266Z</time></trkpt><trkpt lat="42.7629367" lon="12.4130034"><ele>163.0</ele><time>2026-04-30T06:38:48.265Z</time></trkpt><trkpt lat="42.7627566" lon="12.4129918"><ele>163.0</ele><time>2026-04-30T06:38:49.252Z</time></trkpt><trkpt lat="42.76257" lon="12.4129826"><ele>163.0</ele><time>2026-04-30T06:38:50.266Z</time></trkpt><trkpt lat="42.7623769" lon="12.4129812"><ele>163.0</ele><time>2026-04-30T06:38:51.261Z</time></trkpt><trkpt lat="42.7621795" lon="12.4129975"><ele>163.0</ele><time>2026-04-30T06:38:52.259Z</time></trkpt><trkpt lat="42.7619799" lon="12.4130291"><ele>163.0</ele><time>2026-04-30T06:38:53.263Z</time></trkpt><trkpt lat="42.7617769" lon="12.4130717"><ele>163.0</ele><time>2026-04-30T06:38:54.293Z</time></trkpt><trkpt lat="42.7615731" lon="12.4131124"><ele>164.33333333333334</ele><time>2026-04-30T06:38:55.271Z</time></trkpt><trkpt lat="42.7613691" lon="12.4131512"><ele>165.66666666666666</ele><time>2026-04-30T06:38:56.263Z</time></trkpt><trkpt lat="42.7611589" lon="12.4131943"><ele>167.0</ele><time>2026-04-30T06:38:57.253Z</time></trkpt><trkpt lat="42.7609495" lon="12.4132357"><ele>169.0</ele><time>2026-04-30T06:38:58.251Z</time></trkpt><trkpt lat="42.7607411" lon="12.4132574"><ele>171.0</ele><time>2026-04-30T06:38:59.269Z</time></trkpt><trkpt lat="42.7605348" lon="12.4132589"><ele>173.0</ele><time>2026-04-30T06:39:00.267Z</time></trkpt><trkpt lat="42.7603313" lon="12.4132582"><ele>176.0</ele><time>2026-04-30T06:39:01.273Z</time></trkpt><trkpt lat="42.760131" lon="12.4132562"><ele>179.0</ele><time>2026-04-30T06:39:02.256Z</time></trkpt><trkpt lat="42.7599342" lon="12.4132902"><ele>182.0</ele><time>2026-04-30T06:39:03.253Z</time></trkpt><trkpt lat="42.7597375" lon="12.4133756"><ele>182.0</ele><time>2026-04-30T06:39:04.256Z</time></trkpt><trkpt lat="42.7595427" lon="12.413477"><ele>182.0</ele><time>2026-04-30T06:39:05.272Z</time></trkpt><trkpt lat="42.75935" lon="12.4135841"><ele>182.0</ele><time>2026-04-30T06:39:06.256Z</time></trkpt><trkpt lat="42.7591529" lon="12.4136821"><ele>182.0</ele><time>2026-04-30T06:39:07.274Z</time></trkpt><trkpt lat="42.7589499" lon="12.4137615"><ele>182.0</ele><time>2026-04-30T06:39:08.262Z</time></trkpt><trkpt lat="42.7587392" lon="12.4138025"><ele>182.0</ele><time>2026-04-30T06:39:09.26Z</time></trkpt><trkpt lat="42.7585244" lon="12.4138317"><ele>183.0</ele><time>2026-04-30T06:39:10.274Z</time></trkpt><trkpt lat="42.7583102" lon="12.4138471"><ele>184.0</ele><time>2026-04-30T06:39:11.266Z</time></trkpt><trkpt lat="42.7580986" lon="12.41386"><ele>185.0</ele><time>2026-04-30T06:39:12.249Z</time></trkpt><trkpt lat="42.7578876" lon="12.4138738"><ele>186.33333333333331</ele><time>2026-04-30T06:39:13.245Z</time></trkpt><trkpt lat="42.7576793" lon="12.4138858"><ele>187.66666666666666</ele><time>2026-04-30T06:39:14.263Z</time></trkpt><trkpt lat="42.7574689" lon="12.4138952"><ele>189.0</ele><time>2026-04-30T06:39:15.249Z</time></trkpt><trkpt lat="42.7572558" lon="12.4139233"><ele>189.0</ele><time>2026-04-30T06:39:16.267Z</time></trkpt><trkpt lat="42.7570455" lon="12.4139716"><ele>189.0</ele><time>2026-04-30T06:39:17.253Z</time></trkpt><trkpt lat="42.7568401" lon="12.414035"><ele>189.0</ele><time>2026-04-30T06:39:18.264Z</time></trkpt><trkpt lat="42.756633" lon="12.4140973"><ele>191.0</ele><time>2026-04-30T06:39:19.26Z</time></trkpt><trkpt lat="42.7564266" lon="12.414165"><ele>193.0</ele><time>2026-04-30T06:39:20.256Z</time></trkpt><trkpt lat="42.7562193" lon="12.4142257"><ele>195.0</ele><time>2026-04-30T06:39:21.258Z</time></trkpt><trkpt lat="42.7560122" lon="12.414289"><ele>197.66666666666669</ele><time>2026-04-30T06:39:22.259Z</time></trkpt><trkpt lat="42.755808" lon="12.4143508"><ele>200.33333333333334</ele><time>2026-04-30T06:39:23.26Z</time></trkpt><trkpt lat="42.7556062" lon="12.4144104"><ele>203.0</ele><time>2026-04-30T06:39:24.259Z</time></trkpt><trkpt lat="42.7554058" lon="12.4144724"><ele>203.0</ele><time>2026-04-30T06:39:25.256Z</time></trkpt><trkpt lat="42.7552073" lon="12.4145395"><ele>203.0</ele><time>2026-04-30T06:39:26.26Z</time></trkpt><trkpt lat="42.755008" lon="12.4146174"><ele>203.0</ele><time>2026-04-30T06:39:27.277Z</time></trkpt><trkpt lat="42.7548078" lon="12.4147019"><ele>206.33333333333334</ele><time>2026-04-30T06:39:28.273Z</time></trkpt><trkpt lat="42.7546107" lon="12.4147875"><ele>209.66666666666669</ele><time>2026-04-30T06:39:29.267Z</time></trkpt><trkpt lat="42.7544143" lon="12.4148759"><ele>213.0</ele><time>2026-04-30T06:39:30.265Z</time></trkpt><trkpt lat="42.754216" lon="12.4149677"><ele>217.0</ele><time>2026-04-30T06:39:31.254Z</time></trkpt><trkpt lat="42.7540236" lon="12.4150607"><ele>221.0</ele><time>2026-04-30T06:39:32.261Z</time></trkpt><trkpt lat="42.7538328" lon="12.4151577"><ele>225.0</ele><time>2026-04-30T06:39:33.265Z</time></trkpt><trkpt lat="42.7536422" lon="12.4152573"><ele>227.66666666666669</ele><time>2026-04-30T06:39:34.256Z</time></trkpt><trkpt lat="42.7534555" lon="12.4153569"><ele>230.33333333333334</ele><time>2026-04-30T06:39:35.277Z</time></trkpt><trkpt lat="42.7532746" lon="12.4154726"><ele>233.0</ele><time>2026-04-30T06:39:36.255Z</time></trkpt><trkpt lat="42.7531095" lon="12.4156125"><ele>235.0</ele><time>2026-04-30T06:39:37.251Z</time></trkpt><trkpt lat="42.7529642" lon="12.4157854"><ele>237.0</ele><time>2026-04-30T06:39:38.268Z</time></trkpt><trkpt lat="42.7528294" lon="12.4159752"><ele>239.0</ele><time>2026-04-30T06:39:39.253Z</time></trkpt><trkpt lat="42.752701" lon="12.4161687"><ele>241.0</ele><time>2026-04-30T06:39:40.25Z</time></trkpt><trkpt lat="42.7525629" lon="12.4163516"><ele>243.0</ele><time>2026-04-30T06:39:41.262Z</time></trkpt><trkpt lat="42.7524068" lon="12.4165159"><ele>245.0</ele><time>2026-04-30T06:39:42.249Z</time></trkpt><trkpt lat="42.7522316" lon="12.4166694"><ele>245.0</ele><time>2026-04-30T06:39:43.257Z</time></trkpt><trkpt lat="42.752047" lon="12.4168035"><ele>245.0</ele><time>2026-04-30T06:39:44.254Z</time></trkpt><trkpt lat="42.7518539" lon="12.4169145"><ele>245.0</ele><time>2026-04-30T06:39:45.263Z</time></trkpt><trkpt lat="42.7516515" lon="12.4170133"><ele>245.33333333333334</ele><time>2026-04-30T06:39:46.263Z</time></trkpt><trkpt lat="42.7514511" lon="12.4171188"><ele>245.66666666666669</ele><time>2026-04-30T06:39:47.262Z</time></trkpt><trkpt lat="42.7512638" lon="12.4172523"><ele>246.0</ele><time>2026-04-30T06:39:48.263Z</time></trkpt><trkpt lat="42.7510839" lon="12.4174082"><ele>249.33333333333331</ele><time>2026-04-30T06:39:49.254Z</time></trkpt><trkpt lat="42.7509049" lon="12.4175779"><ele>252.66666666666666</ele><time>2026-04-30T06:39:50.256Z</time></trkpt><trkpt lat="42.7507207" lon="12.4177472"><ele>256.0</ele><time>2026-04-30T06:39:51.244Z</time></trkpt><trkpt lat="42.7505313" lon="12.4179096"><ele>258.0</ele><time>2026-04-30T06:39:52.271Z</time></trkpt><trkpt lat="42.7503443" lon="12.4180777"><ele>260.0</ele><time>2026-04-30T06:39:53.256Z</time></trkpt><trkpt lat="42.7501612" lon="12.4182458"><ele>262.0</ele><time>2026-04-30T06:39:54.275Z</time></trkpt><trkpt lat="42.7499806" lon="12.4184032"><ele>263.0</ele><time>2026-04-30T06:39:55.249Z</time></trkpt><trkpt lat="42.749791" lon="12.4185455"><ele>264.0</ele><time>2026-04-30T06:39:56.27Z</time></trkpt><trkpt lat="42.7496058" lon="12.4186768"><ele>265.0</ele><time>2026-04-30T06:39:57.257Z</time></trkpt><trkpt lat="42.7494165" lon="12.4187945"><ele>269.0</ele><time>2026-04-30T06:39:58.264Z</time></trkpt><trkpt lat="42.7492233" lon="12.4188836"><ele>273.0</ele><time>2026-04-30T06:39:59.262Z</time></trkpt><trkpt lat="42.7490297" lon="12.4189497"><ele>277.0</ele><time>2026-04-30T06:40:00.247Z</time></trkpt><trkpt lat="42.7488332" lon="12.4190049"><ele>277.0</ele><time>2026-04-30T06:40:01.263Z</time></trkpt><trkpt lat="42.7486374" lon="12.4190184"><ele>277.0</ele><time>2026-04-30T06:40:02.264Z</time></trkpt><trkpt lat="42.7484491" lon="12.4190134"><ele>277.0</ele><time>2026-04-30T06:40:03.262Z</time></trkpt><trkpt lat="42.7482647" lon="12.4190074"><ele>281.0</ele><time>2026-04-30T06:40:04.252Z</time></trkpt><trkpt lat="42.7480894" lon="12.4190379"><ele>285.0</ele><time>2026-04-30T06:40:05.261Z</time></trkpt><trkpt lat="42.747919" lon="12.4191234"><ele>289.0</ele><time>2026-04-30T06:40:06.262Z</time></trkpt><trkpt lat="42.7477476" lon="12.4192367"><ele>289.0</ele><time>2026-04-30T06:40:07.247Z</time></trkpt><trkpt lat="42.7475804" lon="12.4193701"><ele>289.0</ele><time>2026-04-30T06:40:08.26Z</time></trkpt><trkpt lat="42.7474105" lon="12.4195193"><ele>289.0</ele><time>2026-04-30T06:40:09.245Z</time></trkpt><trkpt lat="42.7472331" lon="12.4196557"><ele>289.66666666666663</ele><time>2026-04-30T06:40:10.26Z</time></trkpt><trkpt lat="42.7470491" lon="12.4197909"><ele>290.3333333333333</ele><time>2026-04-30T06:40:11.268Z</time></trkpt><trkpt lat="42.7468624" lon="12.4199248"><ele>291.0</ele><time>2026-04-30T06:40:12.253Z</time></trkpt><trkpt lat="42.7466697" lon="12.4200602"><ele>291.0</ele><time>2026-04-30T06:40:13.259Z</time></trkpt><trkpt lat="42.7464798" lon="12.4201859"><ele>291.0</ele><time>2026-04-30T06:40:14.259Z</time></trkpt><trkpt lat="42.7462932" lon="12.4203097"><ele>291.0</ele><time>2026-04-30T06:40:15.259Z</time></trkpt><trkpt lat="42.7461153" lon="12.4204443"><ele>291.3333333333333</ele><time>2026-04-30T06:40:16.255Z</time></trkpt><trkpt lat="42.7459519" lon="12.4206018"><ele>291.66666666666663</ele><time>2026-04-30T06:40:17.261Z</time></trkpt><trkpt lat="42.7458099" lon="12.4207633"><ele>292.0</ele><time>2026-04-30T06:40:18.248Z</time></trkpt><trkpt lat="42.7456763" lon="12.4209101"><ele>292.0</ele><time>2026-04-30T06:40:19.264Z</time></trkpt><trkpt lat="42.7455322" lon="12.4210169"><ele>292.0</ele><time>2026-04-30T06:40:20.257Z</time></trkpt><trkpt lat="42.7453769" lon="12.4210893"><ele>292.0</ele><time>2026-04-30T06:40:21.255Z</time></trkpt><trkpt lat="42.7452216" lon="12.4211121"><ele>293.0</ele><time>2026-04-30T06:40:22.259Z</time></trkpt><trkpt lat="42.7450643" lon="12.4210631"><ele>294.0</ele><time>2026-04-30T06:40:23.263Z</time></trkpt><trkpt lat="42.7449104" lon="12.4209939"><ele>295.0</ele><time>2026-04-30T06:40:24.258Z</time></trkpt><trkpt lat="42.7447495" lon="12.4209178"><ele>295.0</ele><time>2026-04-30T06:40:25.248Z</time></trkpt><trkpt lat="42.7445808" lon="12.4208446"><ele>295.0</ele><time>2026-04-30T06:40:26.26Z</time></trkpt><trkpt lat="42.7444057" lon="12.4207749"><ele>295.0</ele><time>2026-04-30T06:40:27.253Z</time></trkpt><trkpt lat="42.7442273" lon="12.420728"><ele>297.0</ele><time>2026-04-30T06:40:28.269Z</time></trkpt><trkpt lat="42.7440438" lon="12.4207167"><ele>299.0</ele><time>2026-04-30T06:40:29.261Z</time></trkpt><trkpt lat="42.7438543" lon="12.4207351"><ele>301.0</ele><time>2026-04-30T06:40:30.244Z</time></trkpt><trkpt lat="42.7436688" lon="12.4207852"><ele>302.0</ele><time>2026-04-30T06:40:31.251Z</time></trkpt><trkpt lat="42.7434801" lon="12.4208434"><ele>303.0</ele><time>2026-04-30T06:40:32.278Z</time></trkpt><trkpt lat="42.7432916" lon="12.4209178"><ele>304.0</ele><time>2026-04-30T06:40:33.265Z</time></trkpt><trkpt lat="42.7431081" lon="12.4210043"><ele>304.0</ele><time>2026-04-30T06:40:34.247Z</time></trkpt><trkpt lat="42.742924" lon="12.4210983"><ele>304.0</ele><time>2026-04-30T06:40:35.262Z</time></trkpt><trkpt lat="42.7427399" lon="12.4211898"><ele>304.0</ele><time>2026-04-30T06:40:36.26Z</time></trkpt><trkpt lat="42.7425609" lon="12.4212766"><ele>308.66666666666663</ele><time>2026-04-30T06:40:37.259Z</time></trkpt><trkpt lat="42.7423803" lon="12.421368"><ele>313.3333333333333</ele><time>2026-04-30T06:40:38.264Z</time></trkpt><trkpt lat="42.7422043" lon="12.4214482"><ele>318.0</ele><time>2026-04-30T06:40:39.256Z</time></trkpt><trkpt lat="42.7420327" lon="12.4215268"><ele>319.0</ele><time>2026-04-30T06:40:40.265Z</time></trkpt><trkpt lat="42.7418654" lon="12.421578"><ele>320.0</ele><time>2026-04-30T06:40:41.266Z</time></trkpt><trkpt lat="42.7416948" lon="12.4215667"><ele>321.0</ele><time>2026-04-30T06:40:42.255Z</time></trkpt><trkpt lat="42.74153" lon="12.4215238"><ele>321.0</ele><time>2026-04-30T06:40:43.254Z</time></trkpt><trkpt lat="42.7413797" lon="12.421446"><ele>321.0</ele><time>2026-04-30T06:40:44.264Z</time></trkpt><trkpt lat="42.7412305" lon="12.4213377"><ele>321.0</ele><time>2026-04-30T06:40:45.255Z</time></trkpt><trkpt lat="42.741076" lon="12.4212139"><ele>321.3333333333333</ele><time>2026-04-30T06:40:46.261Z</time></trkpt><trkpt lat="42.7409173" lon="12.4210724"><ele>321.66666666666663</ele><time>2026-04-30T06:40:47.257Z</time></trkpt><trkpt lat="42.7407481" lon="12.420933"><ele>322.0</ele><time>2026-04-30T06:40:48.26Z</time></trkpt><trkpt lat="42.7405786" lon="12.4208007"><ele>322.0</ele><time>2026-04-30T06:40:49.245Z</time></trkpt><trkpt lat="42.7404171" lon="12.4206734"><ele>322.0</ele><time>2026-04-30T06:40:50.258Z</time></trkpt><trkpt lat="42.7402617" lon="12.4205511"><ele>322.0</ele><time>2026-04-30T06:40:51.259Z</time></trkpt><trkpt lat="42.7401171" lon="12.4204362"><ele>324.66666666666663</ele><time>2026-04-30T06:40:52.259Z</time></trkpt><trkpt lat="42.7399802" lon="12.4203283"><ele>327.3333333333333</ele><time>2026-04-30T06:40:53.246Z</time></trkpt><trkpt lat="42.7398474" lon="12.4202273"><ele>330.0</ele><time>2026-04-30T06:40:54.252Z</time></trkpt><trkpt lat="42.7397219" lon="12.4201263"><ele>330.0</ele><time>2026-04-30T06:40:55.255Z</time></trkpt><trkpt lat="42.7396018" lon="12.4200167"><ele>330.0</ele><time>2026-04-30T06:40:56.258Z</time></trkpt><trkpt lat="42.7394849" lon="12.4198935"><ele>330.0</ele><time>2026-04-30T06:40:57.246Z</time></trkpt><trkpt lat="42.7393701" lon="12.41977"><ele>330.0</ele><time>2026-04-30T06:40:58.258Z</time></trkpt><trkpt lat="42.7392435" lon="12.4196395"><ele>331.3333333333333</ele><time>2026-04-30T06:40:59.264Z</time></trkpt><trkpt lat="42.7391102" lon="12.4195157"><ele>332.66666666666663</ele><time>2026-04-30T06:41:00.261Z</time></trkpt><trkpt lat="42.7389689" lon="12.4194059"><ele>334.0</ele><time>2026-04-30T06:41:01.254Z</time></trkpt><trkpt lat="42.7388122" lon="12.4193248"><ele>334.0</ele><time>2026-04-30T06:41:02.258Z</time></trkpt><trkpt lat="42.7386454" lon="12.4192778"><ele>334.0</ele><time>2026-04-30T06:41:03.249Z</time></trkpt><trkpt lat="42.7384684" lon="12.419251"><ele>334.0</ele><time>2026-04-30T06:41:04.244Z</time></trkpt><trkpt lat="42.738288" lon="12.4192271"><ele>335.0</ele><time>2026-04-30T06:41:05.258Z</time></trkpt><trkpt lat="42.7381047" lon="12.4192075"><ele>336.0</ele><time>2026-04-30T06:41:06.262Z</time></trkpt><trkpt lat="42.7379214" lon="12.4191857"><ele>337.0</ele><time>2026-04-30T06:41:07.257Z</time></trkpt><trkpt lat="42.7377351" lon="12.4191703"><ele>339.3333333333333</ele><time>2026-04-30T06:41:08.259Z</time></trkpt><trkpt lat="42.7375442" lon="12.4191498"><ele>341.6666666666667</ele><time>2026-04-30T06:41:09.257Z</time></trkpt><trkpt lat="42.7373473" lon="12.4191291"><ele>344.0</ele><time>2026-04-30T06:41:10.271Z</time></trkpt><trkpt lat="42.7371497" lon="12.4191084"><ele>344.0</ele><time>2026-04-30T06:41:11.257Z</time></trkpt><trkpt lat="42.7369484" lon="12.4190964"><ele>344.0</ele><time>2026-04-30T06:41:12.26Z</time></trkpt><trkpt lat="42.736747" lon="12.419087"><ele>344.0</ele><time>2026-04-30T06:41:13.258Z</time></trkpt><trkpt lat="42.7365401" lon="12.4190739"><ele>344.6666666666667</ele><time>2026-04-30T06:41:14.274Z</time></trkpt><trkpt lat="42.7363343" lon="12.4190604"><ele>345.3333333333333</ele><time>2026-04-30T06:41:15.26Z</time></trkpt><trkpt lat="42.7361296" lon="12.4190469"><ele>346.0</ele><time>2026-04-30T06:41:16.26Z</time></trkpt><trkpt lat="42.7359288" lon="12.4190392"><ele>349.66666666666663</ele><time>2026-04-30T06:41:17.265Z</time></trkpt><trkpt lat="42.7357372" lon="12.4190332"><ele>353.3333333333333</ele><time>2026-04-30T06:41:18.269Z</time></trkpt><trkpt lat="42.7355532" lon="12.4190252"><ele>357.0</ele><time>2026-04-30T06:41:19.258Z</time></trkpt><trkpt lat="42.735374" lon="12.4190189"><ele>359.3333333333333</ele><time>2026-04-30T06:41:20.271Z</time></trkpt><trkpt lat="42.7351979" lon="12.4190155"><ele>361.66666666666663</ele><time>2026-04-30T06:41:21.256Z</time></trkpt><trkpt lat="42.7350228" lon="12.4190302"><ele>364.0</ele><time>2026-04-30T06:41:22.259Z</time></trkpt><trkpt lat="42.7348483" lon="12.4190671"><ele>364.0</ele><time>2026-04-30T06:41:23.252Z</time></trkpt><trkpt lat="42.7346739" lon="12.419121"><ele>364.0</ele><time>2026-04-30T06:41:24.257Z</time></trkpt><trkpt lat="42.7344994" lon="12.419183"><ele>364.0</ele><time>2026-04-30T06:41:25.271Z</time></trkpt><trkpt lat="42.734322" lon="12.4192443"><ele>365.0</ele><time>2026-04-30T06:41:26.272Z</time></trkpt><trkpt lat="42.734144" lon="12.4193042"><ele>366.0</ele><time>2026-04-30T06:41:27.264Z</time></trkpt><trkpt lat="42.7339746" lon="12.4193585"><ele>367.0</ele><time>2026-04-30T06:41:28.259Z</time></trkpt><trkpt lat="42.7338172" lon="12.4194"><ele>367.0</ele><time>2026-04-30T06:41:29.272Z</time></trkpt><trkpt lat="42.7336729" lon="12.4194432"><ele>367.0</ele><time>2026-04-30T06:41:30.257Z</time></trkpt><trkpt lat="42.733536" lon="12.4195022"><ele>367.0</ele><time>2026-04-30T06:41:31.258Z</time></trkpt><trkpt lat="42.7334078" lon="12.4195864"><ele>367.0</ele><time>2026-04-30T06:41:32.261Z</time></trkpt><trkpt lat="42.7332869" lon="12.4196974"><ele>370.3333333333333</ele><time>2026-04-30T06:41:33.261Z</time></trkpt><trkpt lat="42.7331632" lon="12.4198354"><ele>373.6666666666667</ele><time>2026-04-30T06:41:34.25Z</time></trkpt><trkpt lat="42.7330394" lon="12.4199752"><ele>377.0</ele><time>2026-04-30T06:41:35.248Z</time></trkpt><trkpt lat="42.7329049" lon="12.4201027"><ele>377.0</ele><time>2026-04-30T06:41:36.259Z</time></trkpt><trkpt lat="42.7327568" lon="12.4202145"><ele>377.0</ele><time>2026-04-30T06:41:37.253Z</time></trkpt><trkpt lat="42.7326044" lon="12.4203213"><ele>377.0</ele><time>2026-04-30T06:41:38.259Z</time></trkpt><trkpt lat="42.7324542" lon="12.420427"><ele>377.33333333333337</ele><time>2026-04-30T06:41:39.281Z</time></trkpt><trkpt lat="42.7323024" lon="12.4205205"><ele>377.6666666666667</ele><time>2026-04-30T06:41:40.257Z</time></trkpt><trkpt lat="42.7321523" lon="12.4206157"><ele>378.0</ele><time>2026-04-30T06:41:41.254Z</time></trkpt><trkpt lat="42.7319962" lon="12.420701"><ele>376.0</ele><time>2026-04-30T06:41:42.251Z</time></trkpt><trkpt lat="42.7318452" lon="12.4207795"><ele>374.0</ele><time>2026-04-30T06:41:43.264Z</time></trkpt><trkpt lat="42.7316925" lon="12.4208629"><ele>372.0</ele><time>2026-04-30T06:41:44.256Z</time></trkpt><trkpt lat="42.7315386" lon="12.4209445"><ele>372.0</ele><time>2026-04-30T06:41:45.258Z</time></trkpt><trkpt lat="42.7313859" lon="12.4210287"><ele>372.0</ele><time>2026-04-30T06:41:46.26Z</time></trkpt><trkpt lat="42.7312413" lon="12.4211247"><ele>372.0</ele><time>2026-04-30T06:41:47.256Z</time></trkpt><trkpt lat="42.7311095" lon="12.4212566"><ele>373.6666666666667</ele><time>2026-04-30T06:41:48.257Z</time></trkpt><trkpt lat="42.7309839" lon="12.4214019"><ele>375.33333333333337</ele><time>2026-04-30T06:41:49.245Z</time></trkpt><trkpt lat="42.7308497" lon="12.4215456"><ele>377.0</ele><time>2026-04-30T06:41:50.255Z</time></trkpt><trkpt lat="42.7307033" lon="12.421657"><ele>377.0</ele><time>2026-04-30T06:41:51.272Z</time></trkpt><trkpt lat="42.7305397" lon="12.4217378"><ele>377.0</ele><time>2026-04-30T06:41:52.257Z</time></trkpt><trkpt lat="42.7303773" lon="12.4218073"><ele>377.0</ele><time>2026-04-30T06:41:53.263Z</time></trkpt><trkpt lat="42.7302293" lon="12.4218871"><ele>375.6666666666667</ele><time>2026-04-30T06:41:54.258Z</time></trkpt><trkpt lat="42.7300954" lon="12.4219883"><ele>374.3333333333333</ele><time>2026-04-30T06:41:55.255Z</time></trkpt><trkpt lat="42.7299743" lon="12.4221144"><ele>373.0</ele><time>2026-04-30T06:41:56.255Z</time></trkpt><trkpt lat="42.7298639" lon="12.4222547"><ele>373.0</ele><time>2026-04-30T06:41:57.254Z</time></trkpt><trkpt lat="42.7297705" lon="12.4224132"><ele>373.0</ele><time>2026-04-30T06:41:58.27Z</time></trkpt><trkpt lat="42.7296948" lon="12.4225967"><ele>373.0</ele><time>2026-04-30T06:41:59.254Z</time></trkpt><trkpt lat="42.7296457" lon="12.4228044"><ele>371.66666666666663</ele><time>2026-04-30T06:42:00.258Z</time></trkpt><trkpt lat="42.7296087" lon="12.4230233"><ele>370.3333333333333</ele><time>2026-04-30T06:42:01.255Z</time></trkpt><trkpt lat="42.7295879" lon="12.4232577"><ele>369.0</ele><time>2026-04-30T06:42:02.253Z</time></trkpt><trkpt lat="42.7295817" lon="12.423503"><ele>369.0</ele><time>2026-04-30T06:42:03.276Z</time></trkpt><trkpt lat="42.7295896" lon="12.4237493"><ele>369.0</ele><time>2026-04-30T06:42:04.264Z</time></trkpt><trkpt lat="42.7296041" lon="12.4239865"><ele>369.0</ele><time>2026-04-30T06:42:05.267Z</time></trkpt><trkpt lat="42.7296309" lon="12.4242083"><ele>368.25</ele><time>2026-04-30T06:42:06.268Z</time></trkpt><trkpt lat="42.7296559" lon="12.4244178"><ele>367.5</ele><time>2026-04-30T06:42:07.252Z</time></trkpt><trkpt lat="42.7296808" lon="12.4246092"><ele>366.75</ele><time>2026-04-30T06:42:08.26Z</time></trkpt><trkpt lat="42.7297005" lon="12.4247842"><ele>366.0</ele><time>2026-04-30T06:42:09.266Z</time></trkpt><trkpt lat="42.7297217" lon="12.4249523"><ele>363.8</ele><time>2026-04-30T06:42:10.254Z</time></trkpt><trkpt lat="42.7297254" lon="12.4251125"><ele>361.6</ele><time>2026-04-30T06:42:11.267Z</time></trkpt><trkpt lat="42.7296958" lon="12.4252508"><ele>359.4</ele><time>2026-04-30T06:42:12.247Z</time></trkpt><trkpt lat="42.7296283" lon="12.4253504"><ele>357.2</ele><time>2026-04-30T06:42:13.263Z</time></trkpt><trkpt lat="42.7295338" lon="12.42541"><ele>355.0</ele><time>2026-04-30T06:42:14.278Z</time></trkpt><trkpt lat="42.7294168" lon="12.4253989"><ele>353.5</ele><time>2026-04-30T06:42:15.263Z</time></trkpt><trkpt lat="42.7292847" lon="12.425355"><ele>352.0</ele><time>2026-04-30T06:42:16.259Z</time></trkpt><trkpt lat="42.7291473" lon="12.4253126"><ele>350.5</ele><time>2026-04-30T06:42:17.258Z</time></trkpt><trkpt lat="42.7289991" lon="12.4252644"><ele>349.0</ele><time>2026-04-30T06:42:18.261Z</time></trkpt><trkpt lat="42.728841" lon="12.4252053"><ele>349.0</ele><time>2026-04-30T06:42:19.262Z</time></trkpt><trkpt lat="42.7286728" lon="12.425146"><ele>349.0</ele><time>2026-04-30T06:42:20.271Z</time></trkpt><trkpt lat="42.7284912" lon="12.4251024"><ele>349.0</ele><time>2026-04-30T06:42:21.262Z</time></trkpt><trkpt lat="42.7283049" lon="12.4251086"><ele>346.3333333333333</ele><time>2026-04-30T06:42:22.268Z</time></trkpt><trkpt lat="42.7281224" lon="12.425158"><ele>343.6666666666667</ele><time>2026-04-30T06:42:23.257Z</time></trkpt><trkpt lat="42.7279371" lon="12.4252439"><ele>341.0</ele><time>2026-04-30T06:42:24.257Z</time></trkpt><trkpt lat="42.7277675" lon="12.4253789"><ele>339.33333333333337</ele><time>2026-04-30T06:42:25.258Z</time></trkpt><trkpt lat="42.7276058" lon="12.4255467"><ele>337.6666666666667</ele><time>2026-04-30T06:42:26.256Z</time></trkpt><trkpt lat="42.7274555" lon="12.4257332"><ele>336.0</ele><time>2026-04-30T06:42:27.255Z</time></trkpt><trkpt lat="42.7273165" lon="12.4259308"><ele>336.0</ele><time>2026-04-30T06:42:28.253Z</time></trkpt><trkpt lat="42.7271809" lon="12.4261313"><ele>336.0</ele><time>2026-04-30T06:42:29.258Z</time></trkpt><trkpt lat="42.7270366" lon="12.4263174"><ele>336.0</ele><time>2026-04-30T06:42:30.255Z</time></trkpt><trkpt lat="42.726887" lon="12.426487"><ele>336.6666666666667</ele><time>2026-04-30T06:42:31.258Z</time></trkpt><trkpt lat="42.726739" lon="12.4266558"><ele>337.33333333333337</ele><time>2026-04-30T06:42:32.268Z</time></trkpt><trkpt lat="42.7265922" lon="12.426823"><ele>338.0</ele><time>2026-04-30T06:42:33.287Z</time></trkpt><trkpt lat="42.7264447" lon="12.4269929"><ele>337.6666666666667</ele><time>2026-04-30T06:42:34.268Z</time></trkpt><trkpt lat="42.7263054" lon="12.4271744"><ele>337.3333333333333</ele><time>2026-04-30T06:42:35.279Z</time></trkpt><trkpt lat="42.7261729" lon="12.4273702"><ele>337.0</ele><time>2026-04-30T06:42:36.257Z</time></trkpt><trkpt lat="42.726042" lon="12.4275758"><ele>337.0</ele><time>2026-04-30T06:42:37.274Z</time></trkpt><trkpt lat="42.7259085" lon="12.4277897"><ele>337.0</ele><time>2026-04-30T06:42:38.279Z</time></trkpt><trkpt lat="42.7257762" lon="12.4279988"><ele>337.0</ele><time>2026-04-30T06:42:39.259Z</time></trkpt><trkpt lat="42.7256323" lon="12.4281949"><ele>338.66666666666663</ele><time>2026-04-30T06:42:40.274Z</time></trkpt><trkpt lat="42.7254729" lon="12.428366"><ele>340.3333333333333</ele><time>2026-04-30T06:42:41.248Z</time></trkpt><trkpt lat="42.7252962" lon="12.4285005"><ele>342.0</ele><time>2026-04-30T06:42:42.26Z</time></trkpt><trkpt lat="42.7251127" lon="12.4286098"><ele>342.6666666666667</ele><time>2026-04-30T06:42:43.253Z</time></trkpt><trkpt lat="42.7249294" lon="12.4287132"><ele>343.33333333333337</ele><time>2026-04-30T06:42:44.27Z</time></trkpt><trkpt lat="42.7247655" lon="12.428857"><ele>344.0</ele><time>2026-04-30T06:42:45.256Z</time></trkpt><trkpt lat="42.7246318" lon="12.4290438"><ele>345.6666666666667</ele><time>2026-04-30T06:42:46.254Z</time></trkpt><trkpt lat="42.7245046" lon="12.4292567"><ele>347.3333333333333</ele><time>2026-04-30T06:42:47.26Z</time></trkpt><trkpt lat="42.7243894" lon="12.4294872"><ele>349.0</ele><time>2026-04-30T06:42:48.261Z</time></trkpt><trkpt lat="42.7242698" lon="12.4297276"><ele>351.66666666666663</ele><time>2026-04-30T06:42:49.266Z</time></trkpt><trkpt lat="42.7241492" lon="12.4299819"><ele>354.3333333333333</ele><time>2026-04-30T06:42:50.257Z</time></trkpt><trkpt lat="42.7240482" lon="12.4302284"><ele>357.0</ele><time>2026-04-30T06:42:51.259Z</time></trkpt><trkpt lat="42.7239474" lon="12.430469"><ele>357.3333333333333</ele><time>2026-04-30T06:42:52.269Z</time></trkpt><trkpt lat="42.7238473" lon="12.4307107"><ele>357.66666666666663</ele><time>2026-04-30T06:42:53.267Z</time></trkpt><trkpt lat="42.7237499" lon="12.4309483"><ele>358.0</ele><time>2026-04-30T06:42:54.255Z</time></trkpt><trkpt lat="42.7236534" lon="12.431185"><ele>361.3333333333333</ele><time>2026-04-30T06:42:55.255Z</time></trkpt><trkpt lat="42.7235528" lon="12.4314238"><ele>364.6666666666667</ele><time>2026-04-30T06:42:56.258Z</time></trkpt><trkpt lat="42.7234532" lon="12.4316634"><ele>368.0</ele><time>2026-04-30T06:42:57.264Z</time></trkpt><trkpt lat="42.7233533" lon="12.431895"><ele>368.0</ele><time>2026-04-30T06:42:58.257Z</time></trkpt><trkpt lat="42.7232539" lon="12.4321264"><ele>368.0</ele><time>2026-04-30T06:42:59.265Z</time></trkpt><trkpt lat="42.7231553" lon="12.4323589"><ele>368.0</ele><time>2026-04-30T06:43:00.265Z</time></trkpt><trkpt lat="42.7230679" lon="12.4325921"><ele>368.33333333333337</ele><time>2026-04-30T06:43:01.276Z</time></trkpt><trkpt lat="42.7229912" lon="12.4328331"><ele>368.6666666666667</ele><time>2026-04-30T06:43:02.25Z</time></trkpt><trkpt lat="42.722924" lon="12.4330749"><ele>369.0</ele><time>2026-04-30T06:43:03.252Z</time></trkpt><trkpt lat="42.7228658" lon="12.4333236"><ele>368.3333333333333</ele><time>2026-04-30T06:43:04.258Z</time></trkpt><trkpt lat="42.7228159" lon="12.4335741"><ele>367.66666666666663</ele><time>2026-04-30T06:43:05.258Z</time></trkpt><trkpt lat="42.7227716" lon="12.4338265"><ele>367.0</ele><time>2026-04-30T06:43:06.255Z</time></trkpt><trkpt lat="42.7227337" lon="12.4340808"><ele>369.0</ele><time>2026-04-30T06:43:07.257Z</time></trkpt><trkpt lat="42.7227032" lon="12.434329"><ele>371.0</ele><time>2026-04-30T06:43:08.267Z</time></trkpt><trkpt lat="42.7226816" lon="12.434574"><ele>373.0</ele><time>2026-04-30T06:43:09.266Z</time></trkpt><trkpt lat="42.7226678" lon="12.4348139"><ele>373.0</ele><time>2026-04-30T06:43:10.255Z</time></trkpt><trkpt lat="42.7226642" lon="12.435045"><ele>373.0</ele><time>2026-04-30T06:43:11.265Z</time></trkpt><trkpt lat="42.7226678" lon="12.4352757"><ele>373.0</ele><time>2026-04-30T06:43:12.271Z</time></trkpt><trkpt lat="42.7226781" lon="12.4355045"><ele>373.0</ele><time>2026-04-30T06:43:13.272Z</time></trkpt><trkpt lat="42.722696" lon="12.4357348"><ele>373.0</ele><time>2026-04-30T06:43:14.268Z</time></trkpt><trkpt lat="42.7227468" lon="12.4359623"><ele>373.0</ele><time>2026-04-30T06:43:15.267Z</time></trkpt><trkpt lat="42.7228249" lon="12.4361704"><ele>372.66666666666663</ele><time>2026-04-30T06:43:16.255Z</time></trkpt><trkpt lat="42.7229131" lon="12.4363603"><ele>372.3333333333333</ele><time>2026-04-30T06:43:17.28Z</time></trkpt><trkpt lat="42.7229872" lon="12.4365358"><ele>372.0</ele><time>2026-04-30T06:43:18.247Z</time></trkpt><trkpt lat="42.7230354" lon="12.4367142"><ele>372.0</ele><time>2026-04-30T06:43:19.272Z</time></trkpt><trkpt lat="42.7230543" lon="12.4368902"><ele>372.0</ele><time>2026-04-30T06:43:20.277Z</time></trkpt><trkpt lat="42.7230348" lon="12.4370605"><ele>372.0</ele><time>2026-04-30T06:43:21.243Z</time></trkpt><trkpt lat="42.7229769" lon="12.4372395"><ele>372.0</ele><time>2026-04-30T06:43:22.25Z</time></trkpt><trkpt lat="42.7228957" lon="12.4374152"><ele>373.3333333333333</ele><time>2026-04-30T06:43:23.258Z</time></trkpt><trkpt lat="42.7228095" lon="12.4375881"><ele>374.66666666666663</ele><time>2026-04-30T06:43:24.272Z</time></trkpt><trkpt lat="42.7227158" lon="12.4377795"><ele>376.0</ele><time>2026-04-30T06:43:25.267Z</time></trkpt><trkpt lat="42.7226261" lon="12.4379793"><ele>379.3333333333333</ele><time>2026-04-30T06:43:26.281Z</time></trkpt><trkpt lat="42.7225312" lon="12.4381789"><ele>382.66666666666663</ele><time>2026-04-30T06:43:27.254Z</time></trkpt><trkpt lat="42.7224238" lon="12.4383592"><ele>386.0</ele><time>2026-04-30T06:43:28.264Z</time></trkpt><trkpt lat="42.7222986" lon="12.4385059"><ele>386.0</ele><time>2026-04-30T06:43:29.259Z</time></trkpt><trkpt lat="42.7221696" lon="12.4386513"><ele>386.0</ele><time>2026-04-30T06:43:30.261Z</time></trkpt><trkpt lat="42.7220464" lon="12.4388093"><ele>386.0</ele><time>2026-04-30T06:43:31.253Z</time></trkpt><trkpt lat="42.7219474" lon="12.4389893"><ele>390.66666666666663</ele><time>2026-04-30T06:43:32.268Z</time></trkpt><trkpt lat="42.7218599" lon="12.43919"><ele>395.33333333333337</ele><time>2026-04-30T06:43:33.251Z</time></trkpt><trkpt lat="42.7217729" lon="12.4394013"><ele>400.0</ele><time>2026-04-30T06:43:34.263Z</time></trkpt><trkpt lat="42.7216834" lon="12.4396263"><ele>400.6666666666667</ele><time>2026-04-30T06:43:35.26Z</time></trkpt><trkpt lat="42.7215909" lon="12.4398671"><ele>401.33333333333337</ele><time>2026-04-30T06:43:36.259Z</time></trkpt><trkpt lat="42.7215007" lon="12.4400935"><ele>402.0</ele><time>2026-04-30T06:43:37.249Z</time></trkpt><trkpt lat="42.7214131" lon="12.4403073"><ele>401.66666666666663</ele><time>2026-04-30T06:43:38.258Z</time></trkpt><trkpt lat="42.7213334" lon="12.4405023"><ele>401.3333333333333</ele><time>2026-04-30T06:43:39.255Z</time></trkpt><trkpt lat="42.7212541" lon="12.4406944"><ele>401.0</ele><time>2026-04-30T06:43:40.264Z</time></trkpt><trkpt lat="42.7211705" lon="12.4408814"><ele>401.0</ele><time>2026-04-30T06:43:41.254Z</time></trkpt><trkpt lat="42.7210547" lon="12.4410465"><ele>401.0</ele><time>2026-04-30T06:43:42.248Z</time></trkpt><trkpt lat="42.7209176" lon="12.4411764"><ele>401.0</ele><time>2026-04-30T06:43:43.254Z</time></trkpt><trkpt lat="42.7207731" lon="12.4412941"><ele>402.0</ele><time>2026-04-30T06:43:44.255Z</time></trkpt><trkpt lat="42.7206248" lon="12.4414096"><ele>403.0</ele><time>2026-04-30T06:43:45.262Z</time></trkpt><trkpt lat="42.7204723" lon="12.4415375"><ele>404.0</ele><time>2026-04-30T06:43:46.269Z</time></trkpt><trkpt lat="42.7203238" lon="12.4416633"><ele>401.66666666666663</ele><time>2026-04-30T06:43:47.256Z</time></trkpt><trkpt lat="42.720171" lon="12.4417848"><ele>399.33333333333337</ele><time>2026-04-30T06:43:48.265Z</time></trkpt><trkpt lat="42.7200099" lon="12.4419155"><ele>397.0</ele><time>2026-04-30T06:43:49.254Z</time></trkpt><trkpt lat="42.7198539" lon="12.4420502"><ele>397.6666666666667</ele><time>2026-04-30T06:43:50.246Z</time></trkpt><trkpt lat="42.7196917" lon="12.4421831"><ele>398.33333333333337</ele><time>2026-04-30T06:43:51.256Z</time></trkpt><trkpt lat="42.7195308" lon="12.4423184"><ele>399.0</ele><time>2026-04-30T06:43:52.25Z</time></trkpt><trkpt lat="42.7193771" lon="12.4424526"><ele>400.0</ele><time>2026-04-30T06:43:53.235Z</time></trkpt><trkpt lat="42.7192194" lon="12.442592"><ele>401.0</ele><time>2026-04-30T06:43:54.262Z</time></trkpt><trkpt lat="42.7190513" lon="12.4427379"><ele>402.0</ele><time>2026-04-30T06:43:55.252Z</time></trkpt><trkpt lat="42.7188825" lon="12.4428852"><ele>402.33333333333337</ele><time>2026-04-30T06:43:56.263Z</time></trkpt><trkpt lat="42.7187098" lon="12.4430315"><ele>402.6666666666667</ele><time>2026-04-30T06:43:57.262Z</time></trkpt><trkpt lat="42.7185348" lon="12.443177"><ele>403.0</ele><time>2026-04-30T06:43:58.247Z</time></trkpt><trkpt lat="42.718363" lon="12.4433173"><ele>404.33333333333337</ele><time>2026-04-30T06:43:59.265Z</time></trkpt><trkpt lat="42.7181908" lon="12.4434646"><ele>405.66666666666663</ele><time>2026-04-30T06:44:00.263Z</time></trkpt><trkpt lat="42.71802" lon="12.4436097"><ele>407.0</ele><time>2026-04-30T06:44:01.243Z</time></trkpt><trkpt lat="42.7178456" lon="12.4437551"><ele>409.66666666666663</ele><time>2026-04-30T06:44:02.251Z</time></trkpt><trkpt lat="42.717676" lon="12.4439086"><ele>412.33333333333337</ele><time>2026-04-30T06:44:03.26Z</time></trkpt><trkpt lat="42.71751" lon="12.4440723"><ele>415.0</ele><time>2026-04-30T06:44:04.242Z</time></trkpt><trkpt lat="42.7173486" lon="12.4442381"><ele>415.0</ele><time>2026-04-30T06:44:05.252Z</time></trkpt><trkpt lat="42.7172002" lon="12.4443896"><ele>415.0</ele><time>2026-04-30T06:44:06.25Z</time></trkpt><trkpt lat="42.71706" lon="12.4445317"><ele>415.0</ele><time>2026-04-30T06:44:07.263Z</time></trkpt><trkpt lat="42.7169321" lon="12.4446605"><ele>414.33333333333337</ele><time>2026-04-30T06:44:08.255Z</time></trkpt><trkpt lat="42.7168011" lon="12.444783"><ele>413.66666666666663</ele><time>2026-04-30T06:44:09.272Z</time></trkpt><trkpt lat="42.7166576" lon="12.4448907"><ele>413.0</ele><time>2026-04-30T06:44:10.253Z</time></trkpt><trkpt lat="42.7165017" lon="12.4449785"><ele>413.0</ele><time>2026-04-30T06:44:11.254Z</time></trkpt><trkpt lat="42.7163414" lon="12.4450457"><ele>413.0</ele><time>2026-04-30T06:44:12.266Z</time></trkpt><trkpt lat="42.716178" lon="12.4450855"><ele>413.0</ele><time>2026-04-30T06:44:13.244Z</time></trkpt><trkpt lat="42.7160079" lon="12.4450944"><ele>412.3333333333333</ele><time>2026-04-30T06:44:14.274Z</time></trkpt><trkpt lat="42.7158388" lon="12.4450698"><ele>411.66666666666663</ele><time>2026-04-30T06:44:15.288Z</time></trkpt><trkpt lat="42.7156805" lon="12.4450196"><ele>411.0</ele><time>2026-04-30T06:44:16.281Z</time></trkpt><trkpt lat="42.7155328" lon="12.4449482"><ele>411.0</ele><time>2026-04-30T06:44:17.252Z</time></trkpt><trkpt lat="42.715406" lon="12.4448221"><ele>411.0</ele><time>2026-04-30T06:44:18.255Z</time></trkpt><trkpt lat="42.7153138" lon="12.4446489"><ele>411.0</ele><time>2026-04-30T06:44:19.254Z</time></trkpt><trkpt lat="42.7152526" lon="12.4444648"><ele>408.75</ele><time>2026-04-30T06:44:20.272Z</time></trkpt><trkpt lat="42.7152031" lon="12.4442775"><ele>406.5</ele><time>2026-04-30T06:44:21.262Z</time></trkpt><trkpt lat="42.7151522" lon="12.4440964"><ele>404.25</ele><time>2026-04-30T06:44:22.254Z</time></trkpt><trkpt lat="42.715101" lon="12.4439101"><ele>402.0</ele><time>2026-04-30T06:44:23.257Z</time></trkpt><trkpt lat="42.7150462" lon="12.4437266"><ele>402.0</ele><time>2026-04-30T06:44:24.254Z</time></trkpt><trkpt lat="42.7149744" lon="12.4435463"><ele>402.0</ele><time>2026-04-30T06:44:25.258Z</time></trkpt><trkpt lat="42.7148719" lon="12.4434028"><ele>402.0</ele><time>2026-04-30T06:44:26.265Z</time></trkpt><trkpt lat="42.7147367" lon="12.4433146"><ele>402.0</ele><time>2026-04-30T06:44:27.258Z</time></trkpt><trkpt lat="42.7145861" lon="12.4432714"><ele>402.0</ele><time>2026-04-30T06:44:28.262Z</time></trkpt><trkpt lat="42.7144207" lon="12.4432857"><ele>402.0</ele><time>2026-04-30T06:44:29.257Z</time></trkpt><trkpt lat="42.7142544" lon="12.4433331"><ele>402.0</ele><time>2026-04-30T06:44:30.275Z</time></trkpt><trkpt lat="42.7140891" lon="12.4434196"><ele>396.66666666666663</ele><time>2026-04-30T06:44:31.248Z</time></trkpt><trkpt lat="42.7139142" lon="12.4435316"><ele>391.3333333333333</ele><time>2026-04-30T06:44:32.254Z</time></trkpt><trkpt lat="42.7137391" lon="12.4436541"><ele>386.0</ele><time>2026-04-30T06:44:33.253Z</time></trkpt><trkpt lat="42.7135565" lon="12.4437803"><ele>382.3333333333333</ele><time>2026-04-30T06:44:34.259Z</time></trkpt><trkpt lat="42.7133685" lon="12.4439021"><ele>378.66666666666663</ele><time>2026-04-30T06:44:35.279Z</time></trkpt><trkpt lat="42.7131752" lon="12.4440264"><ele>375.0</ele><time>2026-04-30T06:44:36.273Z</time></trkpt><trkpt lat="42.7129738" lon="12.4441502"><ele>375.0</ele><time>2026-04-30T06:44:37.265Z</time></trkpt><trkpt lat="42.7127753" lon="12.4442666"><ele>375.0</ele><time>2026-04-30T06:44:38.272Z</time></trkpt><trkpt lat="42.712574" lon="12.4443799"><ele>375.0</ele><time>2026-04-30T06:44:39.288Z</time></trkpt><trkpt lat="42.71237" lon="12.4444857"><ele>375.3333333333333</ele><time>2026-04-30T06:44:40.261Z</time></trkpt><trkpt lat="42.7121626" lon="12.4445885"><ele>375.66666666666663</ele><time>2026-04-30T06:44:41.253Z</time></trkpt><trkpt lat="42.7119558" lon="12.4446888"><ele>376.0</ele><time>2026-04-30T06:44:42.267Z</time></trkpt><trkpt lat="42.711751" lon="12.4447908"><ele>376.0</ele><time>2026-04-30T06:44:43.285Z</time></trkpt><trkpt lat="42.711545" lon="12.4449012"><ele>376.0</ele><time>2026-04-30T06:44:44.26Z</time></trkpt><trkpt lat="42.7113381" lon="12.4450075"><ele>376.0</ele><time>2026-04-30T06:44:45.253Z</time></trkpt><trkpt lat="42.7111335" lon="12.4451166"><ele>376.3333333333333</ele><time>2026-04-30T06:44:46.258Z</time></trkpt><trkpt lat="42.710928" lon="12.4452235"><ele>376.6666666666667</ele><time>2026-04-30T06:44:47.274Z</time></trkpt><trkpt lat="42.7107264" lon="12.4453336"><ele>377.0</ele><time>2026-04-30T06:44:48.278Z</time></trkpt><trkpt lat="42.7105293" lon="12.4454451"><ele>376.33333333333337</ele><time>2026-04-30T06:44:49.259Z</time></trkpt><trkpt lat="42.7103377" lon="12.4455616"><ele>375.6666666666667</ele><time>2026-04-30T06:44:50.265Z</time></trkpt><trkpt lat="42.7101493" lon="12.4456913"><ele>375.0</ele><time>2026-04-30T06:44:51.254Z</time></trkpt><trkpt lat="42.7099694" lon="12.445833"><ele>377.3333333333333</ele><time>2026-04-30T06:44:52.267Z</time></trkpt><trkpt lat="42.7097997" lon="12.4459656"><ele>379.66666666666663</ele><time>2026-04-30T06:44:53.265Z</time></trkpt><trkpt lat="42.7096409" lon="12.4460917"><ele>382.0</ele><time>2026-04-30T06:44:54.268Z</time></trkpt><trkpt lat="42.709497" lon="12.4462062"><ele>383.5</ele><time>2026-04-30T06:44:55.253Z</time></trkpt><trkpt lat="42.7093624" lon="12.4463069"><ele>385.0</ele><time>2026-04-30T06:44:56.283Z</time></trkpt><trkpt lat="42.7092389" lon="12.4463975"><ele>386.5</ele><time>2026-04-30T06:44:57.259Z</time></trkpt><trkpt lat="42.709138" lon="12.44648"><ele>388.0</ele><time>2026-04-30T06:44:58.264Z</time></trkpt><trkpt lat="42.7090534" lon="12.4465473"><ele>388.00000000000006</ele><time>2026-04-30T06:44:59.254Z</time></trkpt><trkpt lat="42.7089855" lon="12.4466013"><ele>388.0</ele><time>2026-04-30T06:45:00.268Z</time></trkpt><trkpt lat="42.7089272" lon="12.4466489"><ele>388.0</ele><time>2026-04-30T06:45:01.268Z</time></trkpt><trkpt lat="42.7088407" lon="12.4467182"><ele>388.0</ele><time>2026-04-30T06:45:03.253Z</time></trkpt><trkpt lat="42.7087663" lon="12.4467803"><ele>388.00000000000006</ele><time>2026-04-30T06:45:06.271Z</time></trkpt><trkpt lat="42.7087055" lon="12.4468549"><ele>388.0</ele><time>2026-04-30T06:45:09.263Z</time></trkpt><trkpt lat="42.7086396" lon="12.4469138"><ele>388.0</ele><time>2026-04-30T06:45:11.258Z</time></trkpt><trkpt lat="42.7085714" lon="12.4469718"><ele>388.0</ele><time>2026-04-30T06:45:13.261Z</time></trkpt><trkpt lat="42.7084518" lon="12.4470134"><ele>388.0</ele><time>2026-04-30T06:45:15.257Z</time></trkpt><trkpt lat="42.7083792" lon="12.4470678"><ele>388.0</ele><time>2026-04-30T06:45:16.254Z</time></trkpt><trkpt lat="42.7082999" lon="12.4471279"><ele>388.0</ele><time>2026-04-30T06:45:17.27Z</time></trkpt><trkpt lat="42.7082199" lon="12.4471887"><ele>387.75</ele><time>2026-04-30T06:45:18.265Z</time></trkpt><trkpt lat="42.7081302" lon="12.4472561"><ele>387.5</ele><time>2026-04-30T06:45:19.254Z</time></trkpt><trkpt lat="42.7080305" lon="12.4473327"><ele>387.25</ele><time>2026-04-30T06:45:20.264Z</time></trkpt><trkpt lat="42.707926" lon="12.4474138"><ele>387.0</ele><time>2026-04-30T06:45:21.272Z</time></trkpt><trkpt lat="42.7078179" lon="12.4474962"><ele>388.0</ele><time>2026-04-30T06:45:22.251Z</time></trkpt><trkpt lat="42.7077042" lon="12.4475577"><ele>389.0</ele><time>2026-04-30T06:45:23.282Z</time></trkpt><trkpt lat="42.7075794" lon="12.4475808"><ele>390.0</ele><time>2026-04-30T06:45:24.262Z</time></trkpt><trkpt lat="42.7074425" lon="12.4475762"><ele>391.0</ele><time>2026-04-30T06:45:25.261Z</time></trkpt><trkpt lat="42.7072975" lon="12.4475559"><ele>391.0</ele><time>2026-04-30T06:45:26.272Z</time></trkpt><trkpt lat="42.7071469" lon="12.4475224"><ele>391.0</ele><time>2026-04-30T06:45:27.255Z</time></trkpt><trkpt lat="42.7069948" lon="12.4475024"><ele>391.0</ele><time>2026-04-30T06:45:28.28Z</time></trkpt><trkpt lat="42.7068518" lon="12.4475253"><ele>391.0</ele><time>2026-04-30T06:45:29.265Z</time></trkpt><trkpt lat="42.7067067" lon="12.4475875"><ele>393.0</ele><time>2026-04-30T06:45:30.248Z</time></trkpt><trkpt lat="42.7065628" lon="12.4476842"><ele>395.0</ele><time>2026-04-30T06:45:31.252Z</time></trkpt><trkpt lat="42.7064139" lon="12.4477946"><ele>397.0</ele><time>2026-04-30T06:45:32.252Z</time></trkpt><trkpt lat="42.706257" lon="12.4479108"><ele>398.6666666666667</ele><time>2026-04-30T06:45:33.265Z</time></trkpt><trkpt lat="42.7061013" lon="12.4480246"><ele>400.33333333333337</ele><time>2026-04-30T06:45:34.261Z</time></trkpt><trkpt lat="42.7059483" lon="12.4481322"><ele>402.0</ele><time>2026-04-30T06:45:35.258Z</time></trkpt><trkpt lat="42.7058017" lon="12.4482231"><ele>402.0</ele><time>2026-04-30T06:45:36.263Z</time></trkpt><trkpt lat="42.7056555" lon="12.4482938"><ele>402.0</ele><time>2026-04-30T06:45:37.273Z</time></trkpt><trkpt lat="42.7055159" lon="12.4483744"><ele>402.0</ele><time>2026-04-30T06:45:38.263Z</time></trkpt><trkpt lat="42.7053907" lon="12.448484"><ele>402.0</ele><time>2026-04-30T06:45:39.266Z</time></trkpt><trkpt lat="42.705282" lon="12.4486298"><ele>402.0</ele><time>2026-04-30T06:45:40.243Z</time></trkpt><trkpt lat="42.7052021" lon="12.4487918"><ele>402.0</ele><time>2026-04-30T06:45:41.278Z</time></trkpt><trkpt lat="42.7051526" lon="12.4489774"><ele>402.0</ele><time>2026-04-30T06:45:42.274Z</time></trkpt><trkpt lat="42.7051361" lon="12.4491928"><ele>400.66666666666663</ele><time>2026-04-30T06:45:43.25Z</time></trkpt><trkpt lat="42.7051266" lon="12.4494147"><ele>399.3333333333333</ele><time>2026-04-30T06:45:44.273Z</time></trkpt><trkpt lat="42.7051186" lon="12.4496203"><ele>398.0</ele><time>2026-04-30T06:45:45.259Z</time></trkpt><trkpt lat="42.70511" lon="12.4498222"><ele>396.75</ele><time>2026-04-30T06:45:46.28Z</time></trkpt><trkpt lat="42.7051009" lon="12.4500031"><ele>395.5</ele><time>2026-04-30T06:45:47.256Z</time></trkpt><trkpt lat="42.7050808" lon="12.450171"><ele>394.25</ele><time>2026-04-30T06:45:48.261Z</time></trkpt><trkpt lat="42.705035" lon="12.450324"><ele>393.0</ele><time>2026-04-30T06:45:49.264Z</time></trkpt><trkpt lat="42.7049656" lon="12.4504597"><ele>390.75</ele><time>2026-04-30T06:45:50.263Z</time></trkpt><trkpt lat="42.704879" lon="12.4505913"><ele>388.5</ele><time>2026-04-30T06:45:51.252Z</time></trkpt><trkpt lat="42.7047833" lon="12.4506996"><ele>386.25</ele><time>2026-04-30T06:45:52.262Z</time></trkpt><trkpt lat="42.7046662" lon="12.4507888"><ele>384.0</ele><time>2026-04-30T06:45:53.283Z</time></trkpt><trkpt lat="42.7045308" lon="12.450853"><ele>385.0</ele><time>2026-04-30T06:45:54.266Z</time></trkpt><trkpt lat="42.7043774" lon="12.4508891"><ele>386.0</ele><time>2026-04-30T06:45:55.265Z</time></trkpt><trkpt lat="42.704227" lon="12.4508919"><ele>387.0</ele><time>2026-04-30T06:45:56.267Z</time></trkpt><trkpt lat="42.7040664" lon="12.4508925"><ele>387.0</ele><time>2026-04-30T06:45:57.261Z</time></trkpt><trkpt lat="42.7038931" lon="12.4508889"><ele>387.0</ele><time>2026-04-30T06:45:58.268Z</time></trkpt><trkpt lat="42.7037181" lon="12.4508855"><ele>387.0</ele><time>2026-04-30T06:45:59.26Z</time></trkpt><trkpt lat="42.7035454" lon="12.4508888"><ele>385.3333333333333</ele><time>2026-04-30T06:46:00.264Z</time></trkpt><trkpt lat="42.7033758" lon="12.4509354"><ele>383.66666666666663</ele><time>2026-04-30T06:46:01.273Z</time></trkpt><trkpt lat="42.7031985" lon="12.4510367"><ele>382.0</ele><time>2026-04-30T06:46:02.26Z</time></trkpt><trkpt lat="42.7030199" lon="12.4511801"><ele>382.3333333333333</ele><time>2026-04-30T06:46:03.273Z</time></trkpt><trkpt lat="42.7028404" lon="12.4513379"><ele>382.6666666666667</ele><time>2026-04-30T06:46:04.259Z</time></trkpt><trkpt lat="42.7026699" lon="12.4514768"><ele>383.0</ele><time>2026-04-30T06:46:05.269Z</time></trkpt><trkpt lat="42.7025099" lon="12.4515904"><ele>381.0</ele><time>2026-04-30T06:46:06.262Z</time></trkpt><trkpt lat="42.7023437" lon="12.4516844"><ele>379.0</ele><time>2026-04-30T06:46:07.264Z</time></trkpt><trkpt lat="42.702167" lon="12.4517695"><ele>377.0</ele><time>2026-04-30T06:46:08.266Z</time></trkpt><trkpt lat="42.7019874" lon="12.451858"><ele>377.33333333333337</ele><time>2026-04-30T06:46:09.262Z</time></trkpt><trkpt lat="42.7018134" lon="12.4519802"><ele>377.6666666666667</ele><time>2026-04-30T06:46:10.262Z</time></trkpt><trkpt lat="42.7016497" lon="12.4521523"><ele>378.0</ele><time>2026-04-30T06:46:11.265Z</time></trkpt><trkpt lat="42.7015159" lon="12.4523444"><ele>378.3333333333333</ele><time>2026-04-30T06:46:12.285Z</time></trkpt><trkpt lat="42.7014052" lon="12.4525678"><ele>378.66666666666663</ele><time>2026-04-30T06:46:13.263Z</time></trkpt><trkpt lat="42.7012928" lon="12.4527955"><ele>379.0</ele><time>2026-04-30T06:46:14.255Z</time></trkpt><trkpt lat="42.7011825" lon="12.4530132"><ele>377.66666666666663</ele><time>2026-04-30T06:46:15.256Z</time></trkpt><trkpt lat="42.7010835" lon="12.453204"><ele>376.3333333333333</ele><time>2026-04-30T06:46:16.252Z</time></trkpt><trkpt lat="42.7009932" lon="12.4533628"><ele>375.0</ele><time>2026-04-30T06:46:17.262Z</time></trkpt><trkpt lat="42.7008956" lon="12.4534996"><ele>377.75</ele><time>2026-04-30T06:46:18.273Z</time></trkpt><trkpt lat="42.7007836" lon="12.4535734"><ele>380.5</ele><time>2026-04-30T06:46:19.26Z</time></trkpt><trkpt lat="42.7006529" lon="12.4535888"><ele>383.25</ele><time>2026-04-30T06:46:20.263Z</time></trkpt><trkpt lat="42.7005143" lon="12.4535192"><ele>386.0</ele><time>2026-04-30T06:46:21.273Z</time></trkpt><trkpt lat="42.7003679" lon="12.453434"><ele>388.66666666666663</ele><time>2026-04-30T06:46:22.256Z</time></trkpt><trkpt lat="42.7002032" lon="12.4533521"><ele>391.33333333333337</ele><time>2026-04-30T06:46:23.258Z</time></trkpt><trkpt lat="42.7000251" lon="12.4532702"><ele>394.0</ele><time>2026-04-30T06:46:24.262Z</time></trkpt><trkpt lat="42.6998526" lon="12.4531845"><ele>394.0</ele><time>2026-04-30T06:46:25.262Z</time></trkpt><trkpt lat="42.6996801" lon="12.4530959"><ele>394.0</ele><time>2026-04-30T06:46:26.262Z</time></trkpt><trkpt lat="42.6995152" lon="12.4530132"><ele>394.0</ele><time>2026-04-30T06:46:27.255Z</time></trkpt><trkpt lat="42.6993639" lon="12.4529394"><ele>395.6666666666667</ele><time>2026-04-30T06:46:28.259Z</time></trkpt><trkpt lat="42.6992242" lon="12.4528611"><ele>397.33333333333337</ele><time>2026-04-30T06:46:29.264Z</time></trkpt><trkpt lat="42.6990856" lon="12.4527779"><ele>399.0</ele><time>2026-04-30T06:46:30.26Z</time></trkpt><trkpt lat="42.6989442" lon="12.452695"><ele>399.0</ele><time>2026-04-30T06:46:31.25Z</time></trkpt><trkpt lat="42.6988112" lon="12.4526151"><ele>399.0</ele><time>2026-04-30T06:46:32.266Z</time></trkpt><trkpt lat="42.6986862" lon="12.4525414"><ele>399.0</ele><time>2026-04-30T06:46:33.269Z</time></trkpt><trkpt lat="42.6985661" lon="12.4524739"><ele>399.0</ele><time>2026-04-30T06:46:34.266Z</time></trkpt><trkpt lat="42.6984524" lon="12.4524332"><ele>398.0</ele><time>2026-04-30T06:46:35.262Z</time></trkpt><trkpt lat="42.6983298" lon="12.4524125"><ele>397.0</ele><time>2026-04-30T06:46:36.268Z</time></trkpt><trkpt lat="42.6981962" lon="12.4524034"><ele>396.0</ele><time>2026-04-30T06:46:37.263Z</time></trkpt><trkpt lat="42.6980533" lon="12.452395"><ele>395.0</ele><time>2026-04-30T06:46:38.251Z</time></trkpt><trkpt lat="42.6979032" lon="12.4524004"><ele>394.0</ele><time>2026-04-30T06:46:39.258Z</time></trkpt><trkpt lat="42.6977422" lon="12.4524077"><ele>393.0</ele><time>2026-04-30T06:46:40.28Z</time></trkpt><trkpt lat="42.6975691" lon="12.452411"><ele>392.0</ele><time>2026-04-30T06:46:41.285Z</time></trkpt><trkpt lat="42.6973824" lon="12.4524208"><ele>392.0</ele><time>2026-04-30T06:46:42.266Z</time></trkpt><trkpt lat="42.69719" lon="12.4524327"><ele>392.0</ele><time>2026-04-30T06:46:43.268Z</time></trkpt><trkpt lat="42.696995" lon="12.4524431"><ele>392.0</ele><time>2026-04-30T06:46:44.251Z</time></trkpt><trkpt lat="42.6968034" lon="12.4524526"><ele>391.66666666666663</ele><time>2026-04-30T06:46:45.266Z</time></trkpt><trkpt lat="42.6966263" lon="12.4524708"><ele>391.33333333333337</ele><time>2026-04-30T06:46:46.257Z</time></trkpt><trkpt lat="42.6964757" lon="12.4524921"><ele>391.0</ele><time>2026-04-30T06:46:47.258Z</time></trkpt><trkpt lat="42.6963508" lon="12.4525431"><ele>391.0</ele><time>2026-04-30T06:46:48.259Z</time></trkpt><trkpt lat="42.696248" lon="12.4526481"><ele>391.0</ele><time>2026-04-30T06:46:49.253Z</time></trkpt><trkpt lat="42.6961799" lon="12.4527895"><ele>391.0</ele><time>2026-04-30T06:46:50.248Z</time></trkpt><trkpt lat="42.6961434" lon="12.4529478"><ele>391.0</ele><time>2026-04-30T06:46:51.257Z</time></trkpt><trkpt lat="42.6961413" lon="12.4531322"><ele>392.5</ele><time>2026-04-30T06:46:52.245Z</time></trkpt><trkpt lat="42.6961415" lon="12.4533318"><ele>394.0</ele><time>2026-04-30T06:46:53.246Z</time></trkpt><trkpt lat="42.6961427" lon="12.4535335"><ele>395.5</ele><time>2026-04-30T06:46:54.258Z</time></trkpt><trkpt lat="42.6961323" lon="12.4537368"><ele>397.0</ele><time>2026-04-30T06:46:55.256Z</time></trkpt><trkpt lat="42.6960995" lon="12.4539319"><ele>392.6666666666667</ele><time>2026-04-30T06:46:56.255Z</time></trkpt><trkpt lat="42.6960234" lon="12.4541086"><ele>388.33333333333337</ele><time>2026-04-30T06:46:57.259Z</time></trkpt><trkpt lat="42.6959293" lon="12.4542577"><ele>384.0</ele><time>2026-04-30T06:46:58.256Z</time></trkpt><trkpt lat="42.6957939" lon="12.4543783"><ele>384.0</ele><time>2026-04-30T06:46:59.276Z</time></trkpt><trkpt lat="42.6956444" lon="12.4544726"><ele>384.0</ele><time>2026-04-30T06:47:00.264Z</time></trkpt><trkpt lat="42.6954992" lon="12.4545631"><ele>384.0</ele><time>2026-04-30T06:47:01.262Z</time></trkpt><trkpt lat="42.6953679" lon="12.4546545"><ele>383.0</ele><time>2026-04-30T06:47:02.26Z</time></trkpt><trkpt lat="42.6952371" lon="12.4547432"><ele>382.0</ele><time>2026-04-30T06:47:03.275Z</time></trkpt><trkpt lat="42.6951128" lon="12.4548297"><ele>381.0</ele><time>2026-04-30T06:47:04.255Z</time></trkpt><trkpt lat="42.6949916" lon="12.4549142"><ele>380.0</ele><time>2026-04-30T06:47:05.244Z</time></trkpt><trkpt lat="42.6948769" lon="12.4549904"><ele>380.0</ele><time>2026-04-30T06:47:06.248Z</time></trkpt><trkpt lat="42.6947694" lon="12.4550603"><ele>380.0</ele><time>2026-04-30T06:47:07.254Z</time></trkpt><trkpt lat="42.6946724" lon="12.455121"><ele>380.0</ele><time>2026-04-30T06:47:08.258Z</time></trkpt><trkpt lat="42.6945882" lon="12.4551698"><ele>380.0</ele><time>2026-04-30T06:47:09.268Z</time></trkpt><trkpt lat="42.6945111" lon="12.4551932"><ele>380.0</ele><time>2026-04-30T06:47:10.263Z</time></trkpt><trkpt lat="42.6944342" lon="12.455167"><ele>379.4</ele><time>2026-04-30T06:47:11.256Z</time></trkpt><trkpt lat="42.6943598" lon="12.4550916"><ele>378.8</ele><time>2026-04-30T06:47:12.274Z</time></trkpt><trkpt lat="42.694297" lon="12.4549848"><ele>378.20000000000005</ele><time>2026-04-30T06:47:13.246Z</time></trkpt><trkpt lat="42.6942337" lon="12.4548727"><ele>377.6</ele><time>2026-04-30T06:47:14.253Z</time></trkpt><trkpt lat="42.6941624" lon="12.4547573"><ele>377.0</ele><time>2026-04-30T06:47:15.256Z</time></trkpt><trkpt lat="42.6940842" lon="12.4546305"><ele>374.25</ele><time>2026-04-30T06:47:16.257Z</time></trkpt><trkpt lat="42.6939979" lon="12.4544962"><ele>371.5</ele><time>2026-04-30T06:47:17.254Z</time></trkpt><trkpt lat="42.6939104" lon="12.454356"><ele>368.75</ele><time>2026-04-30T06:47:18.245Z</time></trkpt><trkpt lat="42.6938208" lon="12.4542141"><ele>366.0</ele><time>2026-04-30T06:47:19.246Z</time></trkpt><trkpt lat="42.6937312" lon="12.4540637"><ele>366.0</ele><time>2026-04-30T06:47:20.257Z</time></trkpt><trkpt lat="42.6936396" lon="12.4539171"><ele>366.0</ele><time>2026-04-30T06:47:21.266Z</time></trkpt><trkpt lat="42.6935446" lon="12.4537713"><ele>366.0</ele><time>2026-04-30T06:47:22.255Z</time></trkpt><trkpt lat="42.6934526" lon="12.4536263"><ele>366.0</ele><time>2026-04-30T06:47:23.246Z</time></trkpt><trkpt lat="42.6933566" lon="12.453486"><ele>362.0</ele><time>2026-04-30T06:47:24.272Z</time></trkpt><trkpt lat="42.6932481" lon="12.453366"><ele>358.0</ele><time>2026-04-30T06:47:25.272Z</time></trkpt><trkpt lat="42.6931119" lon="12.4532778"><ele>354.0</ele><time>2026-04-30T06:47:26.251Z</time></trkpt><trkpt lat="42.6929508" lon="12.4532217"><ele>354.0</ele><time>2026-04-30T06:47:27.251Z</time></trkpt><trkpt lat="42.6927846" lon="12.4531719"><ele>354.0</ele><time>2026-04-30T06:47:28.246Z</time></trkpt><trkpt lat="42.6926071" lon="12.4531288"><ele>354.0</ele><time>2026-04-30T06:47:29.267Z</time></trkpt><trkpt lat="42.6924253" lon="12.4530794"><ele>350.3333333333333</ele><time>2026-04-30T06:47:30.246Z</time></trkpt><trkpt lat="42.6922458" lon="12.453036"><ele>346.66666666666663</ele><time>2026-04-30T06:47:31.276Z</time></trkpt><trkpt lat="42.6920669" lon="12.4529961"><ele>343.0</ele><time>2026-04-30T06:47:32.264Z</time></trkpt><trkpt lat="42.6918846" lon="12.4529671"><ele>341.0</ele><time>2026-04-30T06:47:33.264Z</time></trkpt><trkpt lat="42.6917005" lon="12.4529536"><ele>339.0</ele><time>2026-04-30T06:47:34.264Z</time></trkpt><trkpt lat="42.6915071" lon="12.452972"><ele>337.0</ele><time>2026-04-30T06:47:35.264Z</time></trkpt><trkpt lat="42.6913056" lon="12.4530258"><ele>337.0</ele><time>2026-04-30T06:47:36.259Z</time></trkpt><trkpt lat="42.6911106" lon="12.4531043"><ele>337.0</ele><time>2026-04-30T06:47:37.261Z</time></trkpt><trkpt lat="42.6909278" lon="12.4531845"><ele>337.0</ele><time>2026-04-30T06:47:38.264Z</time></trkpt><trkpt lat="42.6907481" lon="12.4532521"><ele>334.3333333333333</ele><time>2026-04-30T06:47:39.263Z</time></trkpt><trkpt lat="42.690577" lon="12.453306"><ele>331.6666666666667</ele><time>2026-04-30T06:47:40.268Z</time></trkpt><trkpt lat="42.6903973" lon="12.4533447"><ele>329.0</ele><time>2026-04-30T06:47:41.276Z</time></trkpt><trkpt lat="42.6902193" lon="12.453363"><ele>326.6666666666667</ele><time>2026-04-30T06:47:42.252Z</time></trkpt><trkpt lat="42.690042" lon="12.4533584"><ele>324.3333333333333</ele><time>2026-04-30T06:47:43.252Z</time></trkpt><trkpt lat="42.6898685" lon="12.453322"><ele>322.0</ele><time>2026-04-30T06:47:44.259Z</time></trkpt><trkpt lat="42.6896982" lon="12.4532631"><ele>322.0</ele><time>2026-04-30T06:47:45.254Z</time></trkpt><trkpt lat="42.6895304" lon="12.453191"><ele>322.0</ele><time>2026-04-30T06:47:46.246Z</time></trkpt><trkpt lat="42.6893724" lon="12.4531257"><ele>322.0</ele><time>2026-04-30T06:47:47.258Z</time></trkpt><trkpt lat="42.6892292" lon="12.4530707"><ele>322.25</ele><time>2026-04-30T06:47:48.27Z</time></trkpt><trkpt lat="42.689101" lon="12.453013"><ele>322.5</ele><time>2026-04-30T06:47:49.259Z</time></trkpt><trkpt lat="42.6889866" lon="12.4529418"><ele>322.75</ele><time>2026-04-30T06:47:50.256Z</time></trkpt><trkpt lat="42.6888926" lon="12.4528347"><ele>323.0</ele><time>2026-04-30T06:47:51.256Z</time></trkpt><trkpt lat="42.6888367" lon="12.4527108"><ele>325.25</ele><time>2026-04-30T06:47:52.253Z</time></trkpt><trkpt lat="42.6888298" lon="12.452562"><ele>327.5</ele><time>2026-04-30T06:47:53.259Z</time></trkpt><trkpt lat="42.6888656" lon="12.4524154"><ele>329.75</ele><time>2026-04-30T06:47:54.242Z</time></trkpt><trkpt lat="42.6889395" lon="12.4522812"><ele>332.0</ele><time>2026-04-30T06:47:55.263Z</time></trkpt><trkpt lat="42.6890505" lon="12.4521636"><ele>332.0</ele><time>2026-04-30T06:47:56.261Z</time></trkpt><trkpt lat="42.6891832" lon="12.4520534"><ele>332.0</ele><time>2026-04-30T06:47:57.264Z</time></trkpt><trkpt lat="42.6893113" lon="12.4519412"><ele>332.0</ele><time>2026-04-30T06:47:58.243Z</time></trkpt><trkpt lat="42.6894227" lon="12.4518463"><ele>332.0</ele><time>2026-04-30T06:47:59.258Z</time></trkpt><trkpt lat="42.6895005" lon="12.4517555"><ele>332.0</ele><time>2026-04-30T06:48:00.247Z</time></trkpt><trkpt lat="42.6895556" lon="12.4516377"><ele>332.0</ele><time>2026-04-30T06:48:01.261Z</time></trkpt><trkpt lat="42.68957" lon="12.4514908"><ele>332.0</ele><time>2026-04-30T06:48:02.255Z</time></trkpt><trkpt lat="42.6895303" lon="12.4513266"><ele>332.0</ele><time>2026-04-30T06:48:03.275Z</time></trkpt><trkpt lat="42.6893965" lon="12.4509484"><ele>340.0</ele><time>2026-04-30T06:48:05.247Z</time></trkpt><trkpt lat="42.6893259" lon="12.4507398"><ele>348.0</ele><time>2026-04-30T06:48:06.243Z</time></trkpt><trkpt lat="42.689253" lon="12.4505308"><ele>356.0</ele><time>2026-04-30T06:48:07.267Z</time></trkpt><trkpt lat="42.6891897" lon="12.4503317"><ele>358.0</ele><time>2026-04-30T06:48:08.253Z</time></trkpt><trkpt lat="42.6891369" lon="12.4501516"><ele>360.0</ele><time>2026-04-30T06:48:09.262Z</time></trkpt><trkpt lat="42.6890677" lon="12.4499921"><ele>362.0</ele><time>2026-04-30T06:48:10.261Z</time></trkpt><trkpt lat="42.6889685" lon="12.4498689"><ele>364.0</ele><time>2026-04-30T06:48:11.245Z</time></trkpt><trkpt lat="42.6888355" lon="12.4497777"><ele>364.0</ele><time>2026-04-30T06:48:12.275Z</time></trkpt><trkpt lat="42.6886776" lon="12.4497188"><ele>364.0</ele><time>2026-04-30T06:48:13.256Z</time></trkpt><trkpt lat="42.6885051" lon="12.4496503"><ele>364.0</ele><time>2026-04-30T06:48:14.254Z</time></trkpt><trkpt lat="42.6883417" lon="12.449557"><ele>368.3333333333333</ele><time>2026-04-30T06:48:15.262Z</time></trkpt><trkpt lat="42.6881972" lon="12.449452"><ele>372.6666666666667</ele><time>2026-04-30T06:48:16.267Z</time></trkpt><trkpt lat="42.6880715" lon="12.4493225"><ele>377.0</ele><time>2026-04-30T06:48:17.256Z</time></trkpt><trkpt lat="42.6879747" lon="12.4491861"><ele>377.0</ele><time>2026-04-30T06:48:18.253Z</time></trkpt><trkpt lat="42.6878952" lon="12.4490309"><ele>377.0</ele><time>2026-04-30T06:48:19.275Z</time></trkpt><trkpt lat="42.6878249" lon="12.4488686"><ele>377.0</ele><time>2026-04-30T06:48:20.257Z</time></trkpt><trkpt lat="42.6877697" lon="12.4487001"><ele>377.0</ele><time>2026-04-30T06:48:21.271Z</time></trkpt><trkpt lat="42.6877318" lon="12.4485012"><ele>377.33333333333337</ele><time>2026-04-30T06:48:22.272Z</time></trkpt><trkpt lat="42.6877087" lon="12.4482931"><ele>377.6666666666667</ele><time>2026-04-30T06:48:23.257Z</time></trkpt><trkpt lat="42.6876914" lon="12.4480843"><ele>378.0</ele><time>2026-04-30T06:48:24.26Z</time></trkpt><trkpt lat="42.6876685" lon="12.447876"><ele>382.33333333333337</ele><time>2026-04-30T06:48:25.273Z</time></trkpt><trkpt lat="42.6876398" lon="12.447666"><ele>386.6666666666667</ele><time>2026-04-30T06:48:26.251Z</time></trkpt><trkpt lat="42.6876101" lon="12.4474595"><ele>391.0</ele><time>2026-04-30T06:48:27.242Z</time></trkpt><trkpt lat="42.6875858" lon="12.4472607"><ele>393.25</ele><time>2026-04-30T06:48:28.261Z</time></trkpt><trkpt lat="42.6875638" lon="12.4470715"><ele>395.5</ele><time>2026-04-30T06:48:29.257Z</time></trkpt><trkpt lat="42.6875414" lon="12.4468837"><ele>397.75</ele><time>2026-04-30T06:48:30.277Z</time></trkpt><trkpt lat="42.6875201" lon="12.4467024"><ele>400.0</ele><time>2026-04-30T06:48:31.254Z</time></trkpt><trkpt lat="42.6874988" lon="12.4465185"><ele>400.0</ele><time>2026-04-30T06:48:32.275Z</time></trkpt><trkpt lat="42.6874877" lon="12.4463301"><ele>400.0</ele><time>2026-04-30T06:48:33.251Z</time></trkpt><trkpt lat="42.6874847" lon="12.4461262"><ele>400.0</ele><time>2026-04-30T06:48:34.253Z</time></trkpt><trkpt lat="42.6874948" lon="12.4459205"><ele>400.0</ele><time>2026-04-30T06:48:35.268Z</time></trkpt><trkpt lat="42.6875115" lon="12.445697"><ele>400.6666666666667</ele><time>2026-04-30T06:48:36.257Z</time></trkpt><trkpt lat="42.6875362" lon="12.4454694"><ele>401.33333333333337</ele><time>2026-04-30T06:48:37.254Z</time></trkpt><trkpt lat="42.6875626" lon="12.4452386"><ele>402.0</ele><time>2026-04-30T06:48:38.242Z</time></trkpt><trkpt lat="42.6875918" lon="12.4450107"><ele>402.33333333333337</ele><time>2026-04-30T06:48:39.254Z</time></trkpt><trkpt lat="42.6876189" lon="12.4447867"><ele>402.6666666666667</ele><time>2026-04-30T06:48:40.257Z</time></trkpt><trkpt lat="42.6876449" lon="12.4445812"><ele>403.0</ele><time>2026-04-30T06:48:41.252Z</time></trkpt><trkpt lat="42.6876651" lon="12.4443824"><ele>404.0</ele><time>2026-04-30T06:48:42.258Z</time></trkpt><trkpt lat="42.6876735" lon="12.4441785"><ele>405.0</ele><time>2026-04-30T06:48:43.262Z</time></trkpt><trkpt lat="42.6876654" lon="12.4439679"><ele>406.0</ele><time>2026-04-30T06:48:44.259Z</time></trkpt><trkpt lat="42.6876441" lon="12.4437591"><ele>406.75</ele><time>2026-04-30T06:48:45.258Z</time></trkpt><trkpt lat="42.6876148" lon="12.4435631"><ele>407.5</ele><time>2026-04-30T06:48:46.276Z</time></trkpt><trkpt lat="42.6875795" lon="12.4433711"><ele>408.25</ele><time>2026-04-30T06:48:47.257Z</time></trkpt><trkpt lat="42.6875424" lon="12.4431889"><ele>409.0</ele><time>2026-04-30T06:48:48.261Z</time></trkpt><trkpt lat="42.6875005" lon="12.4430218"><ele>409.5</ele><time>2026-04-30T06:48:49.246Z</time></trkpt><trkpt lat="42.6874642" lon="12.4428637"><ele>410.0</ele><time>2026-04-30T06:48:50.25Z</time></trkpt><trkpt lat="42.6874173" lon="12.4427128"><ele>410.5</ele><time>2026-04-30T06:48:51.254Z</time></trkpt><trkpt lat="42.6873491" lon="12.4425892"><ele>411.0</ele><time>2026-04-30T06:48:52.241Z</time></trkpt><trkpt lat="42.6872712" lon="12.4424849"><ele>411.0</ele><time>2026-04-30T06:48:53.239Z</time></trkpt><trkpt lat="42.6871755" lon="12.442394"><ele>411.0</ele><time>2026-04-30T06:48:54.256Z</time></trkpt><trkpt lat="42.6870689" lon="12.4423261"><ele>411.0</ele><time>2026-04-30T06:48:55.249Z</time></trkpt><trkpt lat="42.6869507" lon="12.4422924"><ele>411.0</ele><time>2026-04-30T06:48:56.243Z</time></trkpt><trkpt lat="42.6868281" lon="12.4423147"><ele>412.0</ele><time>2026-04-30T06:48:57.272Z</time></trkpt><trkpt lat="42.6866964" lon="12.4423644"><ele>413.0</ele><time>2026-04-30T06:48:58.247Z</time></trkpt><trkpt lat="42.6865677" lon="12.4424384"><ele>414.0</ele><time>2026-04-30T06:48:59.259Z</time></trkpt><trkpt lat="42.6864338" lon="12.4425195"><ele>415.0</ele><time>2026-04-30T06:49:00.253Z</time></trkpt><trkpt lat="42.6863033" lon="12.4425973"><ele>415.0</ele><time>2026-04-30T06:49:01.268Z</time></trkpt><trkpt lat="42.6861821" lon="12.4426752"><ele>415.0</ele><time>2026-04-30T06:49:02.247Z</time></trkpt><trkpt lat="42.686068" lon="12.4427534"><ele>415.0</ele><time>2026-04-30T06:49:03.257Z</time></trkpt><trkpt lat="42.6859512" lon="12.4428333"><ele>415.0</ele><time>2026-04-30T06:49:04.256Z</time></trkpt><trkpt lat="42.6858323" lon="12.4429099"><ele>414.0</ele><time>2026-04-30T06:49:05.256Z</time></trkpt><trkpt lat="42.6857142" lon="12.4429814"><ele>413.0</ele><time>2026-04-30T06:49:06.246Z</time></trkpt><trkpt lat="42.6855941" lon="12.4430461"><ele>412.0</ele><time>2026-04-30T06:49:07.249Z</time></trkpt><trkpt lat="42.6854692" lon="12.4431027"><ele>411.0</ele><time>2026-04-30T06:49:08.243Z</time></trkpt><trkpt lat="42.6853337" lon="12.4431381"><ele>411.0</ele><time>2026-04-30T06:49:09.241Z</time></trkpt><trkpt lat="42.6851892" lon="12.443176"><ele>411.0</ele><time>2026-04-30T06:49:10.25Z</time></trkpt><trkpt lat="42.6850506" lon="12.4432497"><ele>411.0</ele><time>2026-04-30T06:49:11.258Z</time></trkpt><trkpt lat="42.6849161" lon="12.4433581"><ele>411.0</ele><time>2026-04-30T06:49:12.263Z</time></trkpt><trkpt lat="42.6848015" lon="12.4435007"><ele>411.0</ele><time>2026-04-30T06:49:13.263Z</time></trkpt><trkpt lat="42.6847003" lon="12.4436261"><ele>411.0</ele><time>2026-04-30T06:49:14.256Z</time></trkpt><trkpt lat="42.684597" lon="12.4437336"><ele>411.0</ele><time>2026-04-30T06:49:15.25Z</time></trkpt><trkpt lat="42.6844871" lon="12.4438028"><ele>410.75</ele><time>2026-04-30T06:49:16.272Z</time></trkpt><trkpt lat="42.6843687" lon="12.4438346"><ele>410.5</ele><time>2026-04-30T06:49:17.264Z</time></trkpt><trkpt lat="42.6842476" lon="12.4438278"><ele>410.25</ele><time>2026-04-30T06:49:18.253Z</time></trkpt><trkpt lat="42.6841319" lon="12.4437921"><ele>410.0</ele><time>2026-04-30T06:49:19.249Z</time></trkpt><trkpt lat="42.6840234" lon="12.4437014"><ele>409.5</ele><time>2026-04-30T06:49:20.253Z</time></trkpt><trkpt lat="42.6839134" lon="12.4435974"><ele>409.0</ele><time>2026-04-30T06:49:21.251Z</time></trkpt><trkpt lat="42.683795" lon="12.443487"><ele>408.5</ele><time>2026-04-30T06:49:22.259Z</time></trkpt><trkpt lat="42.6836782" lon="12.4433753"><ele>408.0</ele><time>2026-04-30T06:49:23.265Z</time></trkpt><trkpt lat="42.6835678" lon="12.4432661"><ele>406.75</ele><time>2026-04-30T06:49:24.259Z</time></trkpt><trkpt lat="42.6834615" lon="12.4431656"><ele>405.5</ele><time>2026-04-30T06:49:25.277Z</time></trkpt><trkpt lat="42.6833627" lon="12.4430676"><ele>404.25</ele><time>2026-04-30T06:49:26.257Z</time></trkpt><trkpt lat="42.6832665" lon="12.4429764"><ele>403.0</ele><time>2026-04-30T06:49:27.256Z</time></trkpt><trkpt lat="42.6831631" lon="12.4429124"><ele>403.0</ele><time>2026-04-30T06:49:28.259Z</time></trkpt><trkpt lat="42.6830442" lon="12.4428878"><ele>403.0</ele><time>2026-04-30T06:49:29.255Z</time></trkpt><trkpt lat="42.6829121" lon="12.4429003"><ele>403.0</ele><time>2026-04-30T06:49:30.281Z</time></trkpt><trkpt lat="42.6827665" lon="12.442925"><ele>403.0</ele><time>2026-04-30T06:49:31.248Z</time></trkpt><trkpt lat="42.6826186" lon="12.4429496"><ele>408.33333333333337</ele><time>2026-04-30T06:49:32.241Z</time></trkpt><trkpt lat="42.6824618" lon="12.4429677"><ele>413.66666666666663</ele><time>2026-04-30T06:49:33.282Z</time></trkpt><trkpt lat="42.6823012" lon="12.4429789"><ele>419.0</ele><time>2026-04-30T06:49:34.257Z</time></trkpt><trkpt lat="42.6821434" lon="12.442984"><ele>419.0</ele><time>2026-04-30T06:49:35.259Z</time></trkpt><trkpt lat="42.6819844" lon="12.4429865"><ele>419.0</ele><time>2026-04-30T06:49:36.254Z</time></trkpt><trkpt lat="42.6818285" lon="12.4429825"><ele>419.0</ele><time>2026-04-30T06:49:37.255Z</time></trkpt><trkpt lat="42.6816721" lon="12.4429826"><ele>417.66666666666663</ele><time>2026-04-30T06:49:38.255Z</time></trkpt><trkpt lat="42.6815222" lon="12.4429772"><ele>416.33333333333337</ele><time>2026-04-30T06:49:39.242Z</time></trkpt><trkpt lat="42.6813712" lon="12.4429728"><ele>415.0</ele><time>2026-04-30T06:49:40.256Z</time></trkpt><trkpt lat="42.6812184" lon="12.4429705"><ele>412.25</ele><time>2026-04-30T06:49:41.253Z</time></trkpt><trkpt lat="42.681066" lon="12.4429728"><ele>409.5</ele><time>2026-04-30T06:49:42.248Z</time></trkpt><trkpt lat="42.6809193" lon="12.4429756"><ele>406.75</ele><time>2026-04-30T06:49:43.256Z</time></trkpt><trkpt lat="42.6807738" lon="12.4429664"><ele>404.0</ele><time>2026-04-30T06:49:44.264Z</time></trkpt><trkpt lat="42.6806315" lon="12.4429341"><ele>402.25</ele><time>2026-04-30T06:49:45.253Z</time></trkpt><trkpt lat="42.6804979" lon="12.442854"><ele>400.5</ele><time>2026-04-30T06:49:46.266Z</time></trkpt><trkpt lat="42.6803844" lon="12.442747"><ele>398.75</ele><time>2026-04-30T06:49:47.256Z</time></trkpt><trkpt lat="42.6802889" lon="12.442599"><ele>397.0</ele><time>2026-04-30T06:49:48.253Z</time></trkpt><trkpt lat="42.6802219" lon="12.44243"><ele>397.0</ele><time>2026-04-30T06:49:49.272Z</time></trkpt><trkpt lat="42.680181" lon="12.4422353"><ele>397.0</ele><time>2026-04-30T06:49:50.259Z</time></trkpt><trkpt lat="42.6801534" lon="12.442028"><ele>397.0</ele><time>2026-04-30T06:49:51.271Z</time></trkpt><trkpt lat="42.6801303" lon="12.4418258"><ele>397.75</ele><time>2026-04-30T06:49:52.257Z</time></trkpt><trkpt lat="42.6801101" lon="12.4416465"><ele>398.5</ele><time>2026-04-30T06:49:53.264Z</time></trkpt><trkpt lat="42.6800894" lon="12.4414882"><ele>399.25</ele><time>2026-04-30T06:49:54.251Z</time></trkpt><trkpt lat="42.6800704" lon="12.4413409"><ele>400.0</ele><time>2026-04-30T06:49:55.259Z</time></trkpt><trkpt lat="42.6800345" lon="12.4411976"><ele>403.0</ele><time>2026-04-30T06:49:56.259Z</time></trkpt><trkpt lat="42.6799619" lon="12.4410695"><ele>406.0</ele><time>2026-04-30T06:49:57.27Z</time></trkpt><trkpt lat="42.6798611" lon="12.4409595"><ele>409.0</ele><time>2026-04-30T06:49:58.264Z</time></trkpt><trkpt lat="42.6797426" lon="12.4408928"><ele>412.0</ele><time>2026-04-30T06:49:59.275Z</time></trkpt><trkpt lat="42.6796103" lon="12.4408817"><ele>412.0</ele><time>2026-04-30T06:50:00.254Z</time></trkpt><trkpt lat="42.6794686" lon="12.4408981"><ele>412.0</ele><time>2026-04-30T06:50:01.257Z</time></trkpt><trkpt lat="42.6793216" lon="12.4409131"><ele>412.0</ele><time>2026-04-30T06:50:02.26Z</time></trkpt><trkpt lat="42.6791786" lon="12.440928"><ele>412.0</ele><time>2026-04-30T06:50:03.254Z</time></trkpt><trkpt lat="42.6790357" lon="12.4409483"><ele>412.5</ele><time>2026-04-30T06:50:04.251Z</time></trkpt><trkpt lat="42.6788975" lon="12.4409614"><ele>413.0</ele><time>2026-04-30T06:50:05.28Z</time></trkpt><trkpt lat="42.678765" lon="12.440968"><ele>413.5</ele><time>2026-04-30T06:50:06.252Z</time></trkpt><trkpt lat="42.6786413" lon="12.4409743"><ele>414.0</ele><time>2026-04-30T06:50:07.252Z</time></trkpt><trkpt lat="42.678524" lon="12.4409855"><ele>414.25</ele><time>2026-04-30T06:50:08.25Z</time></trkpt><trkpt lat="42.6784076" lon="12.4410184"><ele>414.5</ele><time>2026-04-30T06:50:09.253Z</time></trkpt><trkpt lat="42.6783005" lon="12.441085"><ele>414.75</ele><time>2026-04-30T06:50:10.264Z</time></trkpt><trkpt lat="42.6782251" lon="12.4411971"><ele>415.0</ele><time>2026-04-30T06:50:11.267Z</time></trkpt><trkpt lat="42.6781798" lon="12.4413705"><ele>415.0</ele><time>2026-04-30T06:50:12.27Z</time></trkpt><trkpt lat="42.6781678" lon="12.4415585"><ele>415.0</ele><time>2026-04-30T06:50:13.252Z</time></trkpt><trkpt lat="42.6782071" lon="12.4417449"><ele>415.0</ele><time>2026-04-30T06:50:14.262Z</time></trkpt><trkpt lat="42.6782558" lon="12.4418957"><ele>415.0</ele><time>2026-04-30T06:50:15.265Z</time></trkpt><trkpt lat="42.6782857" lon="12.4420462"><ele>415.2</ele><time>2026-04-30T06:50:16.256Z</time></trkpt><trkpt lat="42.6782836" lon="12.4421956"><ele>415.4</ele><time>2026-04-30T06:50:17.266Z</time></trkpt><trkpt lat="42.6782492" lon="12.4423397"><ele>415.6</ele><time>2026-04-30T06:50:18.286Z</time></trkpt><trkpt lat="42.6781535" lon="12.4424411"><ele>415.8</ele><time>2026-04-30T06:50:19.274Z</time></trkpt><trkpt lat="42.6780515" lon="12.4424833"><ele>416.0</ele><time>2026-04-30T06:50:20.246Z</time></trkpt><trkpt lat="42.6779381" lon="12.4424642"><ele>416.0</ele><time>2026-04-30T06:50:21.249Z</time></trkpt><trkpt lat="42.677814" lon="12.4423859"><ele>416.0</ele><time>2026-04-30T06:50:22.256Z</time></trkpt><trkpt lat="42.6776756" lon="12.4422976"><ele>416.0</ele><time>2026-04-30T06:50:23.253Z</time></trkpt><trkpt lat="42.6775223" lon="12.4421926"><ele>418.66666666666663</ele><time>2026-04-30T06:50:24.268Z</time></trkpt><trkpt lat="42.677366" lon="12.442065"><ele>421.33333333333337</ele><time>2026-04-30T06:50:25.248Z</time></trkpt><trkpt lat="42.677204" lon="12.4419299"><ele>424.0</ele><time>2026-04-30T06:50:26.257Z</time></trkpt><trkpt lat="42.6770383" lon="12.4418094"><ele>426.6666666666667</ele><time>2026-04-30T06:50:27.252Z</time></trkpt><trkpt lat="42.6768623" lon="12.4416826"><ele>429.33333333333337</ele><time>2026-04-30T06:50:28.265Z</time></trkpt><trkpt lat="42.6766893" lon="12.4415476"><ele>432.0</ele><time>2026-04-30T06:50:29.263Z</time></trkpt><trkpt lat="42.6765209" lon="12.4414074"><ele>434.0</ele><time>2026-04-30T06:50:30.266Z</time></trkpt><trkpt lat="42.6763486" lon="12.4412677"><ele>436.0</ele><time>2026-04-30T06:50:31.254Z</time></trkpt><trkpt lat="42.6761779" lon="12.4411149"><ele>438.0</ele><time>2026-04-30T06:50:32.262Z</time></trkpt><trkpt lat="42.6760155" lon="12.4409588"><ele>439.66666666666663</ele><time>2026-04-30T06:50:33.252Z</time></trkpt><trkpt lat="42.6758536" lon="12.4408108"><ele>441.3333333333333</ele><time>2026-04-30T06:50:34.252Z</time></trkpt><trkpt lat="42.675691" lon="12.4406883"><ele>443.0</ele><time>2026-04-30T06:50:35.253Z</time></trkpt><trkpt lat="42.6755237" lon="12.4406088"><ele>443.0</ele><time>2026-04-30T06:50:36.249Z</time></trkpt><trkpt lat="42.6753504" lon="12.4405535"><ele>443.0</ele><time>2026-04-30T06:50:37.252Z</time></trkpt><trkpt lat="42.6751825" lon="12.4405221"><ele>443.0</ele><time>2026-04-30T06:50:38.253Z</time></trkpt><trkpt lat="42.6750143" lon="12.4404944"><ele>443.0</ele><time>2026-04-30T06:50:39.263Z</time></trkpt><trkpt lat="42.674857" lon="12.4404714"><ele>443.0</ele><time>2026-04-30T06:50:40.258Z</time></trkpt><trkpt lat="42.6747125" lon="12.4404421"><ele>443.0</ele><time>2026-04-30T06:50:41.256Z</time></trkpt><trkpt lat="42.6745682" lon="12.4404189"><ele>443.5</ele><time>2026-04-30T06:50:42.257Z</time></trkpt><trkpt lat="42.674427" lon="12.440395"><ele>444.0</ele><time>2026-04-30T06:50:43.256Z</time></trkpt><trkpt lat="42.6742805" lon="12.4403713"><ele>444.5</ele><time>2026-04-30T06:50:44.257Z</time></trkpt><trkpt lat="42.6741264" lon="12.4403529"><ele>445.0</ele><time>2026-04-30T06:50:45.275Z</time></trkpt><trkpt lat="42.6739735" lon="12.4403274"><ele>445.0</ele><time>2026-04-30T06:50:46.267Z</time></trkpt><trkpt lat="42.6738263" lon="12.4403074"><ele>445.0</ele><time>2026-04-30T06:50:47.25Z</time></trkpt><trkpt lat="42.6736902" lon="12.4402856"><ele>445.0</ele><time>2026-04-30T06:50:48.256Z</time></trkpt><trkpt lat="42.6735617" lon="12.4402692"><ele>445.0</ele><time>2026-04-30T06:50:49.252Z</time></trkpt><trkpt lat="42.6734376" lon="12.4402613"><ele>445.2</ele><time>2026-04-30T06:50:50.248Z</time></trkpt><trkpt lat="42.6733224" lon="12.440281"><ele>445.4</ele><time>2026-04-30T06:50:51.265Z</time></trkpt><trkpt lat="42.6732158" lon="12.4403271"><ele>445.6</ele><time>2026-04-30T06:50:52.25Z</time></trkpt><trkpt lat="42.6731274" lon="12.4403986"><ele>445.8</ele><time>2026-04-30T06:50:53.269Z</time></trkpt><trkpt lat="42.6730564" lon="12.4404878"><ele>446.0</ele><time>2026-04-30T06:50:54.25Z</time></trkpt><trkpt lat="42.6729852" lon="12.4405912"><ele>446.0</ele><time>2026-04-30T06:50:55.267Z</time></trkpt><trkpt lat="42.67293" lon="12.4407126"><ele>446.0</ele><time>2026-04-30T06:50:56.266Z</time></trkpt><trkpt lat="42.6728849" lon="12.4408369"><ele>446.0</ele><time>2026-04-30T06:50:57.268Z</time></trkpt><trkpt lat="42.6728447" lon="12.4409592"><ele>446.0</ele><time>2026-04-30T06:50:58.247Z</time></trkpt><trkpt lat="42.6728036" lon="12.4410892"><ele>446.0</ele><time>2026-04-30T06:50:59.256Z</time></trkpt><trkpt lat="42.6727648" lon="12.4412163"><ele>445.0</ele><time>2026-04-30T06:51:00.266Z</time></trkpt><trkpt lat="42.6727253" lon="12.4413454"><ele>444.0</ele><time>2026-04-30T06:51:01.255Z</time></trkpt><trkpt lat="42.6726833" lon="12.4414759"><ele>443.0</ele><time>2026-04-30T06:51:02.263Z</time></trkpt><trkpt lat="42.6726446" lon="12.4416034"><ele>442.0</ele><time>2026-04-30T06:51:03.259Z</time></trkpt><trkpt lat="42.6726051" lon="12.4417311"><ele>441.0</ele><time>2026-04-30T06:51:04.263Z</time></trkpt><trkpt lat="42.6725658" lon="12.4418574"><ele>441.0</ele><time>2026-04-30T06:51:05.255Z</time></trkpt><trkpt lat="42.6725267" lon="12.4419822"><ele>441.0</ele><time>2026-04-30T06:51:06.253Z</time></trkpt><trkpt lat="42.6724869" lon="12.4421079"><ele>441.0</ele><time>2026-04-30T06:51:07.251Z</time></trkpt><trkpt lat="42.6724473" lon="12.4422338"><ele>441.0</ele><time>2026-04-30T06:51:08.248Z</time></trkpt><trkpt lat="42.6724071" lon="12.4423586"><ele>441.0</ele><time>2026-04-30T06:51:09.25Z</time></trkpt><trkpt lat="42.672368" lon="12.4424835"><ele>440.5</ele><time>2026-04-30T06:51:10.264Z</time></trkpt><trkpt lat="42.67233" lon="12.44262"><ele>440.0</ele><time>2026-04-30T06:51:11.293Z</time></trkpt><trkpt lat="42.6722887" lon="12.4427697"><ele>439.5</ele><time>2026-04-30T06:51:12.259Z</time></trkpt><trkpt lat="42.6722456" lon="12.4429179"><ele>439.0</ele><time>2026-04-30T06:51:13.269Z</time></trkpt><trkpt lat="42.6721969" lon="12.4430693"><ele>437.5</ele><time>2026-04-30T06:51:14.264Z</time></trkpt><trkpt lat="42.6721497" lon="12.4432207"><ele>436.0</ele><time>2026-04-30T06:51:15.262Z</time></trkpt><trkpt lat="42.672102" lon="12.4433706"><ele>434.5</ele><time>2026-04-30T06:51:16.252Z</time></trkpt><trkpt lat="42.6720521" lon="12.4435202"><ele>433.0</ele><time>2026-04-30T06:51:17.255Z</time></trkpt><trkpt lat="42.6720045" lon="12.4436669"><ele>432.2</ele><time>2026-04-30T06:51:18.254Z</time></trkpt><trkpt lat="42.6719587" lon="12.4438097"><ele>431.4</ele><time>2026-04-30T06:51:19.256Z</time></trkpt><trkpt lat="42.6719169" lon="12.4439464"><ele>430.59999999999997</ele><time>2026-04-30T06:51:20.261Z</time></trkpt><trkpt lat="42.6718758" lon="12.4440884"><ele>429.79999999999995</ele><time>2026-04-30T06:51:21.251Z</time></trkpt><trkpt lat="42.6718347" lon="12.4442323"><ele>429.0</ele><time>2026-04-30T06:51:22.254Z</time></trkpt><trkpt lat="42.6717921" lon="12.4443641"><ele>430.8333333333333</ele><time>2026-04-30T06:51:23.255Z</time></trkpt><trkpt lat="42.6717477" lon="12.4444853"><ele>432.66666666666663</ele><time>2026-04-30T06:51:24.268Z</time></trkpt><trkpt lat="42.6716994" lon="12.4445976"><ele>434.5</ele><time>2026-04-30T06:51:25.247Z</time></trkpt><trkpt lat="42.671647" lon="12.4446946"><ele>436.3333333333333</ele><time>2026-04-30T06:51:26.253Z</time></trkpt><trkpt lat="42.671598" lon="12.4447561"><ele>438.16666666666663</ele><time>2026-04-30T06:51:27.251Z</time></trkpt><trkpt lat="42.6715145" lon="12.4448212"><ele>440.0</ele><time>2026-04-30T06:51:29.254Z</time></trkpt><trkpt lat="42.6714705" lon="12.4449246"><ele>439.99999999999994</ele><time>2026-04-30T06:51:31.251Z</time></trkpt><trkpt lat="42.6714736" lon="12.4450145"><ele>440.0</ele><time>2026-04-30T06:51:32.247Z</time></trkpt><trkpt lat="42.6714814" lon="12.4451234"><ele>440.0</ele><time>2026-04-30T06:51:33.25Z</time></trkpt><trkpt lat="42.6714746" lon="12.4452414"><ele>440.0</ele><time>2026-04-30T06:51:34.266Z</time></trkpt><trkpt lat="42.6714528" lon="12.4453675"><ele>439.99999999999994</ele><time>2026-04-30T06:51:35.246Z</time></trkpt><trkpt lat="42.6714266" lon="12.4454896"><ele>440.0</ele><time>2026-04-30T06:51:36.275Z</time></trkpt><trkpt lat="42.6713894" lon="12.4456107"><ele>438.6</ele><time>2026-04-30T06:51:37.254Z</time></trkpt><trkpt lat="42.6713547" lon="12.4457253"><ele>437.2</ele><time>2026-04-30T06:51:38.252Z</time></trkpt><trkpt lat="42.6713154" lon="12.4458385"><ele>435.79999999999995</ele><time>2026-04-30T06:51:39.278Z</time></trkpt><trkpt lat="42.6712744" lon="12.4459546"><ele>434.4</ele><time>2026-04-30T06:51:40.252Z</time></trkpt><trkpt lat="42.6712304" lon="12.4460781"><ele>433.0</ele><time>2026-04-30T06:51:41.251Z</time></trkpt><trkpt lat="42.6711837" lon="12.4462085"><ele>433.79999999999995</ele><time>2026-04-30T06:51:42.245Z</time></trkpt><trkpt lat="42.6711439" lon="12.4463521"><ele>434.59999999999997</ele><time>2026-04-30T06:51:43.256Z</time></trkpt><trkpt lat="42.6711176" lon="12.4464986"><ele>435.40000000000003</ele><time>2026-04-30T06:51:44.263Z</time></trkpt><trkpt lat="42.6711023" lon="12.4466421"><ele>436.20000000000005</ele><time>2026-04-30T06:51:45.254Z</time></trkpt><trkpt lat="42.6710907" lon="12.4467873"><ele>437.0</ele><time>2026-04-30T06:51:46.263Z</time></trkpt><trkpt lat="42.671086" lon="12.4469357"><ele>437.0</ele><time>2026-04-30T06:51:47.247Z</time></trkpt><trkpt lat="42.6710866" lon="12.4470847"><ele>437.0</ele><time>2026-04-30T06:51:48.275Z</time></trkpt><trkpt lat="42.6710867" lon="12.4472373"><ele>437.0</ele><time>2026-04-30T06:51:49.247Z</time></trkpt><trkpt lat="42.6710865" lon="12.4473925"><ele>437.0</ele><time>2026-04-30T06:51:50.262Z</time></trkpt><trkpt lat="42.671081" lon="12.4475622"><ele>436.0</ele><time>2026-04-30T06:51:51.267Z</time></trkpt><trkpt lat="42.6710755" lon="12.4477365"><ele>435.0</ele><time>2026-04-30T06:51:52.279Z</time></trkpt><trkpt lat="42.6710706" lon="12.4479086"><ele>434.0</ele><time>2026-04-30T06:51:53.253Z</time></trkpt><trkpt lat="42.6710588" lon="12.4480866"><ele>433.0</ele><time>2026-04-30T06:51:54.252Z</time></trkpt><trkpt lat="42.6710446" lon="12.4482633"><ele>433.0</ele><time>2026-04-30T06:51:55.249Z</time></trkpt><trkpt lat="42.6710256" lon="12.4484363"><ele>433.0</ele><time>2026-04-30T06:51:56.263Z</time></trkpt><trkpt lat="42.6710036" lon="12.4486155"><ele>433.0</ele><time>2026-04-30T06:51:57.278Z</time></trkpt><trkpt lat="42.6709807" lon="12.4488007"><ele>433.0</ele><time>2026-04-30T06:51:58.254Z</time></trkpt><trkpt lat="42.6709605" lon="12.4489853"><ele>433.25</ele><time>2026-04-30T06:51:59.263Z</time></trkpt><trkpt lat="42.6709428" lon="12.4491685"><ele>433.5</ele><time>2026-04-30T06:52:00.251Z</time></trkpt><trkpt lat="42.6709237" lon="12.449345"><ele>433.75</ele><time>2026-04-30T06:52:01.26Z</time></trkpt><trkpt lat="42.670899" lon="12.4495145"><ele>434.0</ele><time>2026-04-30T06:52:02.255Z</time></trkpt><trkpt lat="42.6708747" lon="12.4496896"><ele>434.75</ele><time>2026-04-30T06:52:03.26Z</time></trkpt><trkpt lat="42.6708499" lon="12.4498699"><ele>435.5</ele><time>2026-04-30T06:52:04.263Z</time></trkpt><trkpt lat="42.6708207" lon="12.4500513"><ele>436.25</ele><time>2026-04-30T06:52:05.248Z</time></trkpt><trkpt lat="42.6707883" lon="12.4502306"><ele>437.0</ele><time>2026-04-30T06:52:06.264Z</time></trkpt><trkpt lat="42.6707642" lon="12.450421"><ele>438.0</ele><time>2026-04-30T06:52:07.251Z</time></trkpt><trkpt lat="42.6707528" lon="12.4506107"><ele>439.0</ele><time>2026-04-30T06:52:08.25Z</time></trkpt><trkpt lat="42.6707544" lon="12.4507959"><ele>440.0</ele><time>2026-04-30T06:52:09.249Z</time></trkpt><trkpt lat="42.6707686" lon="12.4509792"><ele>441.0</ele><time>2026-04-30T06:52:10.282Z</time></trkpt><trkpt lat="42.6707949" lon="12.4511599"><ele>440.5</ele><time>2026-04-30T06:52:11.248Z</time></trkpt><trkpt lat="42.6708229" lon="12.4513399"><ele>440.0</ele><time>2026-04-30T06:52:12.253Z</time></trkpt><trkpt lat="42.6708579" lon="12.4515206"><ele>439.5</ele><time>2026-04-30T06:52:13.246Z</time></trkpt><trkpt lat="42.6708895" lon="12.4517002"><ele>439.0</ele><time>2026-04-30T06:52:14.264Z</time></trkpt><trkpt lat="42.6709166" lon="12.4518781"><ele>439.0</ele><time>2026-04-30T06:52:15.26Z</time></trkpt><trkpt lat="42.6709448" lon="12.4520527"><ele>439.0</ele><time>2026-04-30T06:52:16.271Z</time></trkpt><trkpt lat="42.6709684" lon="12.4522272"><ele>439.0</ele><time>2026-04-30T06:52:17.268Z</time></trkpt><trkpt lat="42.6709822" lon="12.452408"><ele>439.0</ele><time>2026-04-30T06:52:18.258Z</time></trkpt><trkpt lat="42.670988" lon="12.4525875"><ele>439.5</ele><time>2026-04-30T06:52:19.25Z</time></trkpt><trkpt lat="42.6709755" lon="12.4527652"><ele>440.0</ele><time>2026-04-30T06:52:20.252Z</time></trkpt><trkpt lat="42.6709414" lon="12.4529298"><ele>440.5</ele><time>2026-04-30T06:52:21.265Z</time></trkpt><trkpt lat="42.6708809" lon="12.4530857"><ele>441.0</ele><time>2026-04-30T06:52:22.262Z</time></trkpt><trkpt lat="42.6707991" lon="12.4532361"><ele>441.75</ele><time>2026-04-30T06:52:23.263Z</time></trkpt><trkpt lat="42.6707033" lon="12.453377"><ele>442.5</ele><time>2026-04-30T06:52:24.246Z</time></trkpt><trkpt lat="42.6706071" lon="12.4535159"><ele>443.25</ele><time>2026-04-30T06:52:25.248Z</time></trkpt><trkpt lat="42.6705187" lon="12.4536565"><ele>444.0</ele><time>2026-04-30T06:52:26.26Z</time></trkpt><trkpt lat="42.6704363" lon="12.4537974"><ele>444.25</ele><time>2026-04-30T06:52:27.263Z</time></trkpt><trkpt lat="42.6703524" lon="12.4539226"><ele>444.5</ele><time>2026-04-30T06:52:28.251Z</time></trkpt><trkpt lat="42.6702713" lon="12.4540493"><ele>444.75</ele><time>2026-04-30T06:52:29.256Z</time></trkpt><trkpt lat="42.6701892" lon="12.4541673"><ele>445.0</ele><time>2026-04-30T06:52:30.252Z</time></trkpt><trkpt lat="42.6701061" lon="12.4542939"><ele>445.25</ele><time>2026-04-30T06:52:31.264Z</time></trkpt><trkpt lat="42.6700205" lon="12.4544234"><ele>445.5</ele><time>2026-04-30T06:52:32.277Z</time></trkpt><trkpt lat="42.6699249" lon="12.454557"><ele>445.75</ele><time>2026-04-30T06:52:33.264Z</time></trkpt><trkpt lat="42.6698241" lon="12.4546931"><ele>446.0</ele><time>2026-04-30T06:52:34.243Z</time></trkpt><trkpt lat="42.6697207" lon="12.4548353"><ele>444.3333333333333</ele><time>2026-04-30T06:52:35.275Z</time></trkpt><trkpt lat="42.6696203" lon="12.4549946"><ele>442.66666666666663</ele><time>2026-04-30T06:52:36.266Z</time></trkpt><trkpt lat="42.6695267" lon="12.4551614"><ele>441.0</ele><time>2026-04-30T06:52:37.247Z</time></trkpt><trkpt lat="42.6694358" lon="12.4553305"><ele>438.66666666666663</ele><time>2026-04-30T06:52:38.276Z</time></trkpt><trkpt lat="42.6693502" lon="12.4554935"><ele>436.3333333333333</ele><time>2026-04-30T06:52:39.261Z</time></trkpt><trkpt lat="42.6692605" lon="12.4556585"><ele>434.0</ele><time>2026-04-30T06:52:40.247Z</time></trkpt><trkpt lat="42.6691712" lon="12.4558314"><ele>434.0</ele><time>2026-04-30T06:52:41.255Z</time></trkpt><trkpt lat="42.669078" lon="12.4560153"><ele>434.0</ele><time>2026-04-30T06:52:42.248Z</time></trkpt><trkpt lat="42.6689892" lon="12.4562098"><ele>434.0</ele><time>2026-04-30T06:52:43.28Z</time></trkpt><trkpt lat="42.6689082" lon="12.4564058"><ele>432.3333333333333</ele><time>2026-04-30T06:52:44.267Z</time></trkpt><trkpt lat="42.6688402" lon="12.4566157"><ele>430.66666666666663</ele><time>2026-04-30T06:52:45.268Z</time></trkpt><trkpt lat="42.6687746" lon="12.4568284"><ele>429.0</ele><time>2026-04-30T06:52:46.275Z</time></trkpt><trkpt lat="42.6687164" lon="12.457049"><ele>427.33333333333337</ele><time>2026-04-30T06:52:47.266Z</time></trkpt><trkpt lat="42.668658" lon="12.4572731"><ele>425.6666666666667</ele><time>2026-04-30T06:52:48.263Z</time></trkpt><trkpt lat="42.6685987" lon="12.4574959"><ele>424.0</ele><time>2026-04-30T06:52:49.258Z</time></trkpt><trkpt lat="42.6685368" lon="12.4577203"><ele>424.0</ele><time>2026-04-30T06:52:50.258Z</time></trkpt><trkpt lat="42.6684761" lon="12.4579446"><ele>424.0</ele><time>2026-04-30T06:52:51.265Z</time></trkpt><trkpt lat="42.6684137" lon="12.4581679"><ele>424.0</ele><time>2026-04-30T06:52:52.264Z</time></trkpt><trkpt lat="42.6683533" lon="12.4583928"><ele>423.0</ele><time>2026-04-30T06:52:53.256Z</time></trkpt><trkpt lat="42.6682923" lon="12.4586215"><ele>422.0</ele><time>2026-04-30T06:52:54.261Z</time></trkpt><trkpt lat="42.6682267" lon="12.4588563"><ele>421.0</ele><time>2026-04-30T06:52:55.266Z</time></trkpt><trkpt lat="42.6681576" lon="12.459103"><ele>420.33333333333337</ele><time>2026-04-30T06:52:56.277Z</time></trkpt><trkpt lat="42.668081" lon="12.4593637"><ele>419.66666666666663</ele><time>2026-04-30T06:52:57.271Z</time></trkpt><trkpt lat="42.6679956" lon="12.4596359"><ele>419.0</ele><time>2026-04-30T06:52:58.26Z</time></trkpt><trkpt lat="42.6678987" lon="12.4599159"><ele>419.0</ele><time>2026-04-30T06:52:59.262Z</time></trkpt><trkpt lat="42.6677923" lon="12.460189"><ele>419.0</ele><time>2026-04-30T06:53:00.265Z</time></trkpt><trkpt lat="42.6676895" lon="12.4604582"><ele>419.0</ele><time>2026-04-30T06:53:01.247Z</time></trkpt><trkpt lat="42.6675948" lon="12.4607228"><ele>419.0</ele><time>2026-04-30T06:53:02.275Z</time></trkpt><trkpt lat="42.6675209" lon="12.4609916"><ele>419.0</ele><time>2026-04-30T06:53:03.26Z</time></trkpt><trkpt lat="42.6674572" lon="12.461271"><ele>418.66666666666663</ele><time>2026-04-30T06:53:04.297Z</time></trkpt><trkpt lat="42.6673935" lon="12.4615541"><ele>418.33333333333337</ele><time>2026-04-30T06:53:05.267Z</time></trkpt><trkpt lat="42.6673283" lon="12.4618364"><ele>418.0</ele><time>2026-04-30T06:53:06.277Z</time></trkpt><trkpt lat="42.6672625" lon="12.4621147"><ele>417.6666666666667</ele><time>2026-04-30T06:53:07.268Z</time></trkpt><trkpt lat="42.6671969" lon="12.4623912"><ele>417.33333333333337</ele><time>2026-04-30T06:53:08.264Z</time></trkpt><trkpt lat="42.6671273" lon="12.4626683"><ele>417.0</ele><time>2026-04-30T06:53:09.257Z</time></trkpt><trkpt lat="42.6670559" lon="12.4629461"><ele>417.33333333333337</ele><time>2026-04-30T06:53:10.257Z</time></trkpt><trkpt lat="42.666983" lon="12.4632234"><ele>417.6666666666667</ele><time>2026-04-30T06:53:11.25Z</time></trkpt><trkpt lat="42.6669035" lon="12.463499"><ele>418.0</ele><time>2026-04-30T06:53:12.261Z</time></trkpt><trkpt lat="42.66682" lon="12.4637703"><ele>417.6666666666667</ele><time>2026-04-30T06:53:13.253Z</time></trkpt><trkpt lat="42.6667364" lon="12.4640361"><ele>417.33333333333337</ele><time>2026-04-30T06:53:14.263Z</time></trkpt><trkpt lat="42.6666492" lon="12.4643009"><ele>417.0</ele><time>2026-04-30T06:53:15.248Z</time></trkpt><trkpt lat="42.666561" lon="12.4645624"><ele>418.33333333333337</ele><time>2026-04-30T06:53:16.263Z</time></trkpt><trkpt lat="42.6664718" lon="12.4648168"><ele>419.6666666666667</ele><time>2026-04-30T06:53:17.244Z</time></trkpt><trkpt lat="42.6663868" lon="12.4650736"><ele>421.0</ele><time>2026-04-30T06:53:18.271Z</time></trkpt><trkpt lat="42.6663026" lon="12.4653325"><ele>420.6666666666667</ele><time>2026-04-30T06:53:19.262Z</time></trkpt><trkpt lat="42.6662173" lon="12.4655934"><ele>420.33333333333337</ele><time>2026-04-30T06:53:20.269Z</time></trkpt><trkpt lat="42.666133" lon="12.4658578"><ele>420.0</ele><time>2026-04-30T06:53:21.245Z</time></trkpt><trkpt lat="42.6660503" lon="12.466118"><ele>418.33333333333337</ele><time>2026-04-30T06:53:22.263Z</time></trkpt><trkpt lat="42.6659671" lon="12.4663813"><ele>416.6666666666667</ele><time>2026-04-30T06:53:23.259Z</time></trkpt><trkpt lat="42.6658833" lon="12.4666435"><ele>415.0</ele><time>2026-04-30T06:53:24.28Z</time></trkpt><trkpt lat="42.6658008" lon="12.4669081"><ele>415.33333333333337</ele><time>2026-04-30T06:53:25.269Z</time></trkpt><trkpt lat="42.6657221" lon="12.467177"><ele>415.66666666666663</ele><time>2026-04-30T06:53:26.262Z</time></trkpt><trkpt lat="42.6656431" lon="12.4674356"><ele>416.0</ele><time>2026-04-30T06:53:27.263Z</time></trkpt><trkpt lat="42.6655683" lon="12.4676889"><ele>416.0</ele><time>2026-04-30T06:53:28.257Z</time></trkpt><trkpt lat="42.6654963" lon="12.467931"><ele>416.0</ele><time>2026-04-30T06:53:29.246Z</time></trkpt><trkpt lat="42.665422" lon="12.4681615"><ele>416.0</ele><time>2026-04-30T06:53:30.261Z</time></trkpt><trkpt lat="42.6653421" lon="12.4683884"><ele>416.0</ele><time>2026-04-30T06:53:31.262Z</time></trkpt><trkpt lat="42.6652582" lon="12.4686064"><ele>416.0</ele><time>2026-04-30T06:53:32.272Z</time></trkpt><trkpt lat="42.6651704" lon="12.4688206"><ele>416.0</ele><time>2026-04-30T06:53:33.243Z</time></trkpt><trkpt lat="42.6650801" lon="12.4690249"><ele>417.0</ele><time>2026-04-30T06:53:34.265Z</time></trkpt><trkpt lat="42.6649905" lon="12.4692181"><ele>418.0</ele><time>2026-04-30T06:53:35.261Z</time></trkpt><trkpt lat="42.6649062" lon="12.4693948"><ele>419.0</ele><time>2026-04-30T06:53:36.259Z</time></trkpt><trkpt lat="42.6648296" lon="12.4695513"><ele>419.25</ele><time>2026-04-30T06:53:37.261Z</time></trkpt><trkpt lat="42.6647567" lon="12.4696978"><ele>419.5</ele><time>2026-04-30T06:53:38.25Z</time></trkpt><trkpt lat="42.6646989" lon="12.4698564"><ele>419.75</ele><time>2026-04-30T06:53:39.265Z</time></trkpt><trkpt lat="42.6646596" lon="12.4700342"><ele>420.0</ele><time>2026-04-30T06:53:40.259Z</time></trkpt><trkpt lat="42.6646318" lon="12.4702241"><ele>420.0</ele><time>2026-04-30T06:53:41.256Z</time></trkpt><trkpt lat="42.6646171" lon="12.4704344"><ele>420.0</ele><time>2026-04-30T06:53:42.269Z</time></trkpt><trkpt lat="42.6646175" lon="12.4706556"><ele>420.0</ele><time>2026-04-30T06:53:43.262Z</time></trkpt><trkpt lat="42.6646391" lon="12.470897"><ele>420.66666666666663</ele><time>2026-04-30T06:53:44.261Z</time></trkpt><trkpt lat="42.6646801" lon="12.4711462"><ele>421.3333333333333</ele><time>2026-04-30T06:53:45.26Z</time></trkpt><trkpt lat="42.6647345" lon="12.4713922"><ele>422.0</ele><time>2026-04-30T06:53:46.246Z</time></trkpt><trkpt lat="42.6647981" lon="12.4716416"><ele>423.3333333333333</ele><time>2026-04-30T06:53:47.249Z</time></trkpt><trkpt lat="42.6648628" lon="12.4718961"><ele>424.66666666666663</ele><time>2026-04-30T06:53:48.262Z</time></trkpt><trkpt lat="42.6649259" lon="12.4721501"><ele>426.0</ele><time>2026-04-30T06:53:49.248Z</time></trkpt><trkpt lat="42.6649893" lon="12.4724059"><ele>427.0</ele><time>2026-04-30T06:53:50.273Z</time></trkpt><trkpt lat="42.6650526" lon="12.4726492"><ele>428.0</ele><time>2026-04-30T06:53:51.255Z</time></trkpt><trkpt lat="42.6651077" lon="12.4728752"><ele>429.0</ele><time>2026-04-30T06:53:52.247Z</time></trkpt><trkpt lat="42.6651591" lon="12.4730731"><ele>429.25</ele><time>2026-04-30T06:53:53.261Z</time></trkpt><trkpt lat="42.6652099" lon="12.4732517"><ele>429.5</ele><time>2026-04-30T06:53:54.267Z</time></trkpt><trkpt lat="42.6652658" lon="12.473419"><ele>429.75</ele><time>2026-04-30T06:53:55.26Z</time></trkpt><trkpt lat="42.665334" lon="12.4735823"><ele>430.0</ele><time>2026-04-30T06:53:56.267Z</time></trkpt><trkpt lat="42.6654131" lon="12.4737433"><ele>430.5</ele><time>2026-04-30T06:53:57.247Z</time></trkpt><trkpt lat="42.6654997" lon="12.4738968"><ele>431.0</ele><time>2026-04-30T06:53:58.258Z</time></trkpt><trkpt lat="42.6655965" lon="12.4740423"><ele>431.5</ele><time>2026-04-30T06:53:59.257Z</time></trkpt><trkpt lat="42.6656916" lon="12.4741748"><ele>432.0</ele><time>2026-04-30T06:54:00.247Z</time></trkpt><trkpt lat="42.6657813" lon="12.4742965"><ele>432.0</ele><time>2026-04-30T06:54:01.251Z</time></trkpt><trkpt lat="42.6658594" lon="12.4744007"><ele>432.00000000000006</ele><time>2026-04-30T06:54:02.26Z</time></trkpt><trkpt lat="42.6659293" lon="12.474487"><ele>432.00000000000006</ele><time>2026-04-30T06:54:03.28Z</time></trkpt><trkpt lat="42.6659853" lon="12.474553"><ele>432.0</ele><time>2026-04-30T06:54:04.263Z</time></trkpt><trkpt lat="42.6660452" lon="12.474641"><ele>432.0</ele><time>2026-04-30T06:54:06.263Z</time></trkpt><trkpt lat="42.6661156" lon="12.474706"><ele>432.0</ele><time>2026-04-30T06:54:09.259Z</time></trkpt><trkpt lat="42.6660965" lon="12.4745992"><ele>432.0</ele><time>2026-04-30T06:54:12.256Z</time></trkpt><trkpt lat="42.6660091" lon="12.4745176"><ele>432.0</ele><time>2026-04-30T06:54:14.257Z</time></trkpt><trkpt lat="42.665957" lon="12.4744505"><ele>432.0</ele><time>2026-04-30T06:54:15.258Z</time></trkpt><trkpt lat="42.6658931" lon="12.4743668"><ele>432.0</ele><time>2026-04-30T06:54:16.271Z</time></trkpt><trkpt lat="42.6658233" lon="12.474274"><ele>432.0</ele><time>2026-04-30T06:54:17.255Z</time></trkpt><trkpt lat="42.6657429" lon="12.4741832"><ele>432.0</ele><time>2026-04-30T06:54:18.261Z</time></trkpt><trkpt lat="42.6656588" lon="12.4740751"><ele>432.0</ele><time>2026-04-30T06:54:19.269Z</time></trkpt><trkpt lat="42.6655724" lon="12.4739505"><ele>432.0</ele><time>2026-04-30T06:54:20.274Z</time></trkpt><trkpt lat="42.6654913" lon="12.4738115"><ele>432.0</ele><time>2026-04-30T06:54:21.258Z</time></trkpt><trkpt lat="42.6654149" lon="12.4736694"><ele>432.25</ele><time>2026-04-30T06:54:22.26Z</time></trkpt><trkpt lat="42.6653453" lon="12.4735188"><ele>432.5</ele><time>2026-04-30T06:54:23.258Z</time></trkpt><trkpt lat="42.665278" lon="12.4733531"><ele>432.75</ele><time>2026-04-30T06:54:24.261Z</time></trkpt><trkpt lat="42.6652163" lon="12.4731824"><ele>433.0</ele><time>2026-04-30T06:54:25.257Z</time></trkpt><trkpt lat="42.6651645" lon="12.4729921"><ele>431.6666666666667</ele><time>2026-04-30T06:54:26.248Z</time></trkpt><trkpt lat="42.6651135" lon="12.4727979"><ele>430.33333333333337</ele><time>2026-04-30T06:54:27.274Z</time></trkpt><trkpt lat="42.6650609" lon="12.4725971"><ele>429.0</ele><time>2026-04-30T06:54:28.277Z</time></trkpt><trkpt lat="42.6650078" lon="12.4723899"><ele>429.0</ele><time>2026-04-30T06:54:29.264Z</time></trkpt><trkpt lat="42.6649578" lon="12.4721887"><ele>429.0</ele><time>2026-04-30T06:54:30.256Z</time></trkpt><trkpt lat="42.6649104" lon="12.471993"><ele>429.0</ele><time>2026-04-30T06:54:31.256Z</time></trkpt><trkpt lat="42.6648669" lon="12.4718016"><ele>428.25</ele><time>2026-04-30T06:54:32.257Z</time></trkpt><trkpt lat="42.6648223" lon="12.471617"><ele>427.5</ele><time>2026-04-30T06:54:33.254Z</time></trkpt><trkpt lat="42.6647761" lon="12.4714291"><ele>426.75</ele><time>2026-04-30T06:54:34.257Z</time></trkpt><trkpt lat="42.664734" lon="12.4712471"><ele>426.0</ele><time>2026-04-30T06:54:35.258Z</time></trkpt><trkpt lat="42.6646966" lon="12.4710776"><ele>425.0</ele><time>2026-04-30T06:54:36.26Z</time></trkpt><trkpt lat="42.6646679" lon="12.4709132"><ele>424.0</ele><time>2026-04-30T06:54:37.25Z</time></trkpt><trkpt lat="42.6646538" lon="12.4707554"><ele>423.0</ele><time>2026-04-30T06:54:38.25Z</time></trkpt><trkpt lat="42.6646472" lon="12.4706069"><ele>422.0</ele><time>2026-04-30T06:54:39.257Z</time></trkpt><trkpt lat="42.6646487" lon="12.4704617"><ele>421.6</ele><time>2026-04-30T06:54:40.258Z</time></trkpt><trkpt lat="42.6646551" lon="12.4703133"><ele>421.20000000000005</ele><time>2026-04-30T06:54:41.243Z</time></trkpt><trkpt lat="42.6646711" lon="12.4701686"><ele>420.8</ele><time>2026-04-30T06:54:42.262Z</time></trkpt><trkpt lat="42.664692" lon="12.4700428"><ele>420.4</ele><time>2026-04-30T06:54:43.258Z</time></trkpt><trkpt lat="42.6647059" lon="12.4699386"><ele>420.0</ele><time>2026-04-30T06:54:44.26Z</time></trkpt><trkpt lat="42.6646999" lon="12.4698126"><ele>420.0</ele><time>2026-04-30T06:54:46.266Z</time></trkpt><trkpt lat="42.6646274" lon="12.4697482"><ele>420.0</ele><time>2026-04-30T06:54:49.274Z</time></trkpt><trkpt lat="42.66451" lon="12.4698362"><ele>420.0</ele><time>2026-04-30T06:54:51.271Z</time></trkpt><trkpt lat="42.6644317" lon="12.4699057"><ele>420.0</ele><time>2026-04-30T06:54:52.246Z</time></trkpt><trkpt lat="42.6643343" lon="12.4699817"><ele>420.0</ele><time>2026-04-30T06:54:53.256Z</time></trkpt><trkpt lat="42.6642196" lon="12.4700669"><ele>421.33333333333337</ele><time>2026-04-30T06:54:54.255Z</time></trkpt><trkpt lat="42.664087" lon="12.4701713"><ele>422.6666666666667</ele><time>2026-04-30T06:54:55.274Z</time></trkpt><trkpt lat="42.6639299" lon="12.4702913"><ele>424.0</ele><time>2026-04-30T06:54:56.257Z</time></trkpt><trkpt lat="42.6637631" lon="12.4704236"><ele>424.33333333333337</ele><time>2026-04-30T06:54:57.266Z</time></trkpt><trkpt lat="42.6636019" lon="12.4705618"><ele>424.66666666666663</ele><time>2026-04-30T06:54:58.25Z</time></trkpt><trkpt lat="42.6634508" lon="12.4707199"><ele>425.0</ele><time>2026-04-30T06:54:59.26Z</time></trkpt><trkpt lat="42.6633055" lon="12.4708937"><ele>425.0</ele><time>2026-04-30T06:55:00.269Z</time></trkpt><trkpt lat="42.6631635" lon="12.4710653"><ele>425.0</ele><time>2026-04-30T06:55:01.262Z</time></trkpt><trkpt lat="42.6630312" lon="12.4712324"><ele>425.0</ele><time>2026-04-30T06:55:02.27Z</time></trkpt><trkpt lat="42.6629039" lon="12.4714065"><ele>424.0</ele><time>2026-04-30T06:55:03.257Z</time></trkpt><trkpt lat="42.6627847" lon="12.4715997"><ele>423.0</ele><time>2026-04-30T06:55:04.255Z</time></trkpt><trkpt lat="42.6626657" lon="12.4718182"><ele>422.0</ele><time>2026-04-30T06:55:05.268Z</time></trkpt><trkpt lat="42.6625367" lon="12.4720465"><ele>423.5</ele><time>2026-04-30T06:55:06.251Z</time></trkpt><trkpt lat="42.6623945" lon="12.4722856"><ele>425.0</ele><time>2026-04-30T06:55:07.259Z</time></trkpt><trkpt lat="42.6622467" lon="12.472536"><ele>425.0</ele><time>2026-04-30T06:55:08.255Z</time></trkpt><trkpt lat="42.6620871" lon="12.4727916"><ele>425.0</ele><time>2026-04-30T06:55:09.264Z</time></trkpt><trkpt lat="42.6619281" lon="12.4730434"><ele>422.0</ele><time>2026-04-30T06:55:10.272Z</time></trkpt><trkpt lat="42.6617659" lon="12.4733022"><ele>419.0</ele><time>2026-04-30T06:55:11.262Z</time></trkpt><trkpt lat="42.6616066" lon="12.4735701"><ele>418.0</ele><time>2026-04-30T06:55:12.266Z</time></trkpt><trkpt lat="42.6614499" lon="12.4738368"><ele>417.0</ele><time>2026-04-30T06:55:13.272Z</time></trkpt><trkpt lat="42.6612941" lon="12.4740982"><ele>417.0</ele><time>2026-04-30T06:55:14.268Z</time></trkpt><trkpt lat="42.6611455" lon="12.4743578"><ele>417.0</ele><time>2026-04-30T06:55:15.26Z</time></trkpt><trkpt lat="42.6610019" lon="12.4746208"><ele>418.5</ele><time>2026-04-30T06:55:16.257Z</time></trkpt><trkpt lat="42.66087" lon="12.4748858"><ele>420.0</ele><time>2026-04-30T06:55:17.27Z</time></trkpt><trkpt lat="42.6607454" lon="12.4751621"><ele>420.0</ele><time>2026-04-30T06:55:18.256Z</time></trkpt><trkpt lat="42.66063" lon="12.4754275"><ele>420.0</ele><time>2026-04-30T06:55:19.253Z</time></trkpt><trkpt lat="42.6605303" lon="12.4756716"><ele>420.0</ele><time>2026-04-30T06:55:20.254Z</time></trkpt><trkpt lat="42.6604338" lon="12.4759086"><ele>419.0</ele><time>2026-04-30T06:55:21.261Z</time></trkpt><trkpt lat="42.6603336" lon="12.4761484"><ele>418.0</ele><time>2026-04-30T06:55:22.269Z</time></trkpt><trkpt lat="42.6602331" lon="12.4763811"><ele>417.0</ele><time>2026-04-30T06:55:23.259Z</time></trkpt><trkpt lat="42.660133" lon="12.4765918"><ele>416.66666666666663</ele><time>2026-04-30T06:55:24.256Z</time></trkpt><trkpt lat="42.6600407" lon="12.4767888"><ele>416.3333333333333</ele><time>2026-04-30T06:55:25.259Z</time></trkpt><trkpt lat="42.6599332" lon="12.4769751"><ele>416.0</ele><time>2026-04-30T06:55:26.258Z</time></trkpt><trkpt lat="42.6597947" lon="12.477136"><ele>416.0</ele><time>2026-04-30T06:55:27.275Z</time></trkpt><trkpt lat="42.6596368" lon="12.4772717"><ele>416.0</ele><time>2026-04-30T06:55:28.27Z</time></trkpt><trkpt lat="42.6594589" lon="12.4773865"><ele>416.0</ele><time>2026-04-30T06:55:29.249Z</time></trkpt><trkpt lat="42.6592686" lon="12.4775026"><ele>419.66666666666663</ele><time>2026-04-30T06:55:30.253Z</time></trkpt><trkpt lat="42.659082" lon="12.4776235"><ele>423.33333333333337</ele><time>2026-04-30T06:55:31.253Z</time></trkpt><trkpt lat="42.6589058" lon="12.4777437"><ele>427.0</ele><time>2026-04-30T06:55:32.259Z</time></trkpt><trkpt lat="42.6587456" lon="12.4778514"><ele>427.0</ele><time>2026-04-30T06:55:33.255Z</time></trkpt><trkpt lat="42.6585863" lon="12.4779334"><ele>427.0</ele><time>2026-04-30T06:55:34.259Z</time></trkpt><trkpt lat="42.658409" lon="12.4779658"><ele>427.0</ele><time>2026-04-30T06:55:35.255Z</time></trkpt><trkpt lat="42.6582104" lon="12.47798"><ele>424.33333333333337</ele><time>2026-04-30T06:55:36.27Z</time></trkpt><trkpt lat="42.6579981" lon="12.4780008"><ele>421.66666666666663</ele><time>2026-04-30T06:55:37.256Z</time></trkpt><trkpt lat="42.6577933" lon="12.47806"><ele>419.0</ele><time>2026-04-30T06:55:38.258Z</time></trkpt><trkpt lat="42.6576024" lon="12.4781366"><ele>419.0</ele><time>2026-04-30T06:55:39.257Z</time></trkpt><trkpt lat="42.657419" lon="12.4782054"><ele>419.0</ele><time>2026-04-30T06:55:40.259Z</time></trkpt><trkpt lat="42.6572303" lon="12.4782532"><ele>419.0</ele><time>2026-04-30T06:55:41.263Z</time></trkpt><trkpt lat="42.6570331" lon="12.4782822"><ele>417.3333333333333</ele><time>2026-04-30T06:55:42.263Z</time></trkpt><trkpt lat="42.6568252" lon="12.4782876"><ele>415.66666666666663</ele><time>2026-04-30T06:55:43.246Z</time></trkpt><trkpt lat="42.6566117" lon="12.4783024"><ele>414.0</ele><time>2026-04-30T06:55:44.256Z</time></trkpt><trkpt lat="42.6563973" lon="12.4783399"><ele>414.0</ele><time>2026-04-30T06:55:45.272Z</time></trkpt><trkpt lat="42.6561763" lon="12.4784046"><ele>414.0</ele><time>2026-04-30T06:55:46.263Z</time></trkpt><trkpt lat="42.6559533" lon="12.4784795"><ele>413.0</ele><time>2026-04-30T06:55:47.257Z</time></trkpt><trkpt lat="42.6557348" lon="12.4785507"><ele>412.0</ele><time>2026-04-30T06:55:48.256Z</time></trkpt><trkpt lat="42.6555296" lon="12.4786224"><ele>411.0</ele><time>2026-04-30T06:55:49.259Z</time></trkpt><trkpt lat="42.6553399" lon="12.4786911"><ele>410.66666666666663</ele><time>2026-04-30T06:55:50.257Z</time></trkpt><trkpt lat="42.6551696" lon="12.47876"><ele>410.3333333333333</ele><time>2026-04-30T06:55:51.266Z</time></trkpt><trkpt lat="42.6550224" lon="12.4788478"><ele>410.0</ele><time>2026-04-30T06:55:52.243Z</time></trkpt><trkpt lat="42.6548932" lon="12.4789807"><ele>410.0</ele><time>2026-04-30T06:55:53.265Z</time></trkpt><trkpt lat="42.6547741" lon="12.4791493"><ele>410.0</ele><time>2026-04-30T06:55:54.261Z</time></trkpt><trkpt lat="42.6546743" lon="12.4793421"><ele>410.0</ele><time>2026-04-30T06:55:55.255Z</time></trkpt><trkpt lat="42.6545739" lon="12.4795498"><ele>408.0</ele><time>2026-04-30T06:55:56.251Z</time></trkpt><trkpt lat="42.6544817" lon="12.4797494"><ele>406.0</ele><time>2026-04-30T06:55:57.269Z</time></trkpt><trkpt lat="42.6543807" lon="12.4799162"><ele>404.0</ele><time>2026-04-30T06:55:58.272Z</time></trkpt><trkpt lat="42.6542676" lon="12.4800455"><ele>404.0</ele><time>2026-04-30T06:55:59.269Z</time></trkpt><trkpt lat="42.6541302" lon="12.4801416"><ele>404.0</ele><time>2026-04-30T06:56:00.276Z</time></trkpt><trkpt lat="42.6539687" lon="12.4802089"><ele>404.0</ele><time>2026-04-30T06:56:01.265Z</time></trkpt><trkpt lat="42.6537898" lon="12.4802688"><ele>402.3333333333333</ele><time>2026-04-30T06:56:02.263Z</time></trkpt><trkpt lat="42.6536167" lon="12.4803237"><ele>400.66666666666663</ele><time>2026-04-30T06:56:03.256Z</time></trkpt><trkpt lat="42.6534619" lon="12.4803648"><ele>399.0</ele><time>2026-04-30T06:56:04.271Z</time></trkpt><trkpt lat="42.6533137" lon="12.4804034"><ele>399.0</ele><time>2026-04-30T06:56:05.254Z</time></trkpt><trkpt lat="42.6531653" lon="12.4804304"><ele>399.0</ele><time>2026-04-30T06:56:06.269Z</time></trkpt><trkpt lat="42.6530115" lon="12.4803961"><ele>399.0</ele><time>2026-04-30T06:56:07.256Z</time></trkpt><trkpt lat="42.6528511" lon="12.4803139"><ele>396.66666666666663</ele><time>2026-04-30T06:56:08.254Z</time></trkpt><trkpt lat="42.6526862" lon="12.4801998"><ele>394.3333333333333</ele><time>2026-04-30T06:56:09.247Z</time></trkpt><trkpt lat="42.652524" lon="12.4800691"><ele>392.0</ele><time>2026-04-30T06:56:10.256Z</time></trkpt><trkpt lat="42.6523613" lon="12.47995"><ele>392.0</ele><time>2026-04-30T06:56:11.253Z</time></trkpt><trkpt lat="42.6521904" lon="12.4798385"><ele>392.0</ele><time>2026-04-30T06:56:12.253Z</time></trkpt><trkpt lat="42.6520132" lon="12.4797493"><ele>392.0</ele><time>2026-04-30T06:56:13.252Z</time></trkpt><trkpt lat="42.6518343" lon="12.4796829"><ele>389.0</ele><time>2026-04-30T06:56:14.269Z</time></trkpt><trkpt lat="42.6516598" lon="12.4796565"><ele>386.0</ele><time>2026-04-30T06:56:15.258Z</time></trkpt><trkpt lat="42.651506" lon="12.4796637"><ele>383.0</ele><time>2026-04-30T06:56:16.253Z</time></trkpt><trkpt lat="42.6513729" lon="12.4796843"><ele>383.0</ele><time>2026-04-30T06:56:17.272Z</time></trkpt><trkpt lat="42.6512613" lon="12.4797102"><ele>383.0</ele><time>2026-04-30T06:56:18.254Z</time></trkpt><trkpt lat="42.6511659" lon="12.4797314"><ele>383.0</ele><time>2026-04-30T06:56:19.25Z</time></trkpt><trkpt lat="42.6510683" lon="12.4797512"><ele>383.0</ele><time>2026-04-30T06:56:20.253Z</time></trkpt><trkpt lat="42.6509718" lon="12.4797757"><ele>383.0</ele><time>2026-04-30T06:56:21.268Z</time></trkpt><trkpt lat="42.650881" lon="12.4797952"><ele>382.59999999999997</ele><time>2026-04-30T06:56:22.268Z</time></trkpt><trkpt lat="42.6507916" lon="12.4798041"><ele>382.2</ele><time>2026-04-30T06:56:23.268Z</time></trkpt><trkpt lat="42.6506926" lon="12.4798237"><ele>381.8</ele><time>2026-04-30T06:56:24.25Z</time></trkpt><trkpt lat="42.6505882" lon="12.4798475"><ele>381.4</ele><time>2026-04-30T06:56:25.254Z</time></trkpt><trkpt lat="42.6504596" lon="12.4798738"><ele>381.0</ele><time>2026-04-30T06:56:26.282Z</time></trkpt><trkpt lat="42.6503178" lon="12.4799"><ele>380.75</ele><time>2026-04-30T06:56:27.263Z</time></trkpt><trkpt lat="42.6501741" lon="12.4799248"><ele>380.5</ele><time>2026-04-30T06:56:28.259Z</time></trkpt><trkpt lat="42.6500363" lon="12.4799468"><ele>380.25</ele><time>2026-04-30T06:56:29.295Z</time></trkpt><trkpt lat="42.64991" lon="12.4799695"><ele>380.0</ele><time>2026-04-30T06:56:30.273Z</time></trkpt><trkpt lat="42.649798" lon="12.4799875"><ele>380.0</ele><time>2026-04-30T06:56:31.274Z</time></trkpt><trkpt lat="42.6496899" lon="12.4799958"><ele>380.0</ele><time>2026-04-30T06:56:32.285Z</time></trkpt><trkpt lat="42.6495907" lon="12.4799998"><ele>380.0</ele><time>2026-04-30T06:56:33.251Z</time></trkpt><trkpt lat="42.6494992" lon="12.4800019"><ele>380.0</ele><time>2026-04-30T06:56:34.267Z</time></trkpt><trkpt lat="42.6494108" lon="12.4800031"><ele>380.0</ele><time>2026-04-30T06:56:35.271Z</time></trkpt><trkpt lat="42.6493199" lon="12.4800064"><ele>378.4</ele><time>2026-04-30T06:56:36.263Z</time></trkpt><trkpt lat="42.649228" lon="12.480012"><ele>376.8</ele><time>2026-04-30T06:56:37.282Z</time></trkpt><trkpt lat="42.6491358" lon="12.4800105"><ele>375.20000000000005</ele><time>2026-04-30T06:56:38.256Z</time></trkpt><trkpt lat="42.649047" lon="12.4800056"><ele>373.6</ele><time>2026-04-30T06:56:39.268Z</time></trkpt><trkpt lat="42.6489536" lon="12.480002"><ele>372.0</ele><time>2026-04-30T06:56:40.264Z</time></trkpt><trkpt lat="42.6488592" lon="12.4799966"><ele>372.0</ele><time>2026-04-30T06:56:41.256Z</time></trkpt><trkpt lat="42.6487671" lon="12.4799884"><ele>372.0</ele><time>2026-04-30T06:56:42.258Z</time></trkpt><trkpt lat="42.6486738" lon="12.4799753"><ele>372.0</ele><time>2026-04-30T06:56:43.266Z</time></trkpt><trkpt lat="42.6485823" lon="12.4799637"><ele>372.0</ele><time>2026-04-30T06:56:44.257Z</time></trkpt><trkpt lat="42.6484935" lon="12.4799544"><ele>372.0</ele><time>2026-04-30T06:56:45.251Z</time></trkpt><trkpt lat="42.6484089" lon="12.4799461"><ele>371.20000000000005</ele><time>2026-04-30T06:56:46.255Z</time></trkpt><trkpt lat="42.6483235" lon="12.4799275"><ele>370.4</ele><time>2026-04-30T06:56:47.255Z</time></trkpt><trkpt lat="42.6482371" lon="12.4799034"><ele>369.6</ele><time>2026-04-30T06:56:48.266Z</time></trkpt><trkpt lat="42.6481476" lon="12.4798761"><ele>368.79999999999995</ele><time>2026-04-30T06:56:49.256Z</time></trkpt><trkpt lat="42.6480513" lon="12.4798473"><ele>368.0</ele><time>2026-04-30T06:56:50.254Z</time></trkpt><trkpt lat="42.6479525" lon="12.4798171"><ele>368.0</ele><time>2026-04-30T06:56:51.257Z</time></trkpt><trkpt lat="42.6478499" lon="12.4797837"><ele>368.0</ele><time>2026-04-30T06:56:52.264Z</time></trkpt><trkpt lat="42.6477358" lon="12.4797539"><ele>368.0</ele><time>2026-04-30T06:56:53.248Z</time></trkpt><trkpt lat="42.6476169" lon="12.4797301"><ele>368.0</ele><time>2026-04-30T06:56:54.263Z</time></trkpt><trkpt lat="42.6474699" lon="12.4797285"><ele>366.33333333333337</ele><time>2026-04-30T06:56:55.265Z</time></trkpt><trkpt lat="42.6473036" lon="12.4797136"><ele>364.6666666666667</ele><time>2026-04-30T06:56:56.256Z</time></trkpt><trkpt lat="42.6471323" lon="12.4797"><ele>363.0</ele><time>2026-04-30T06:56:57.266Z</time></trkpt><trkpt lat="42.6469662" lon="12.4796883"><ele>360.3333333333333</ele><time>2026-04-30T06:56:58.257Z</time></trkpt><trkpt lat="42.6468112" lon="12.4796725"><ele>357.66666666666663</ele><time>2026-04-30T06:56:59.257Z</time></trkpt><trkpt lat="42.6466607" lon="12.4796529"><ele>355.0</ele><time>2026-04-30T06:57:00.254Z</time></trkpt><trkpt lat="42.6465153" lon="12.4796319"><ele>355.0</ele><time>2026-04-30T06:57:01.249Z</time></trkpt><trkpt lat="42.6463796" lon="12.4796258"><ele>355.0</ele><time>2026-04-30T06:57:02.306Z</time></trkpt><trkpt lat="42.6462549" lon="12.4796182"><ele>355.0</ele><time>2026-04-30T06:57:03.265Z</time></trkpt><trkpt lat="42.6461432" lon="12.479628"><ele>355.0</ele><time>2026-04-30T06:57:04.263Z</time></trkpt><trkpt lat="42.6460525" lon="12.4796801"><ele>354.6</ele><time>2026-04-30T06:57:05.263Z</time></trkpt><trkpt lat="42.6459817" lon="12.4797651"><ele>354.2</ele><time>2026-04-30T06:57:06.293Z</time></trkpt><trkpt lat="42.645926" lon="12.4798743"><ele>353.79999999999995</ele><time>2026-04-30T06:57:07.297Z</time></trkpt><trkpt lat="42.6458864" lon="12.4800077"><ele>353.4</ele><time>2026-04-30T06:57:08.249Z</time></trkpt><trkpt lat="42.6458733" lon="12.4801559"><ele>353.0</ele><time>2026-04-30T06:57:09.256Z</time></trkpt><trkpt lat="42.6458706" lon="12.4803271"><ele>351.25</ele><time>2026-04-30T06:57:10.282Z</time></trkpt><trkpt lat="42.6458799" lon="12.4805057"><ele>349.5</ele><time>2026-04-30T06:57:11.25Z</time></trkpt><trkpt lat="42.6458977" lon="12.4806942"><ele>347.75</ele><time>2026-04-30T06:57:12.246Z</time></trkpt><trkpt lat="42.6459176" lon="12.4808826"><ele>346.0</ele><time>2026-04-30T06:57:13.26Z</time></trkpt><trkpt lat="42.6459329" lon="12.48106"><ele>346.0</ele><time>2026-04-30T06:57:14.267Z</time></trkpt><trkpt lat="42.6459446" lon="12.4812375"><ele>346.0</ele><time>2026-04-30T06:57:15.262Z</time></trkpt><trkpt lat="42.6459578" lon="12.4814154"><ele>346.0</ele><time>2026-04-30T06:57:16.257Z</time></trkpt><trkpt lat="42.6459725" lon="12.4815835"><ele>346.0</ele><time>2026-04-30T06:57:17.26Z</time></trkpt><trkpt lat="42.6459841" lon="12.4817483"><ele>346.20000000000005</ele><time>2026-04-30T06:57:18.296Z</time></trkpt><trkpt lat="42.6459919" lon="12.4819078"><ele>346.40000000000003</ele><time>2026-04-30T06:57:19.264Z</time></trkpt><trkpt lat="42.6459917" lon="12.4820477"><ele>346.6</ele><time>2026-04-30T06:57:20.277Z</time></trkpt><trkpt lat="42.645981" lon="12.4821766"><ele>346.8</ele><time>2026-04-30T06:57:21.251Z</time></trkpt><trkpt lat="42.6459567" lon="12.482294"><ele>347.0</ele><time>2026-04-30T06:57:22.291Z</time></trkpt><trkpt lat="42.6459482" lon="12.4824013"><ele>347.0</ele><time>2026-04-30T06:57:23.274Z</time></trkpt><trkpt lat="42.6459683" lon="12.4825017"><ele>347.0</ele><time>2026-04-30T06:57:24.254Z</time></trkpt><trkpt lat="42.6460036" lon="12.4825872"><ele>347.0</ele><time>2026-04-30T06:57:25.284Z</time></trkpt><trkpt lat="42.6460451" lon="12.4827313"><ele>347.0</ele><time>2026-04-30T06:57:27.262Z</time></trkpt><trkpt lat="42.6460568" lon="12.4828916"><ele>347.0</ele><time>2026-04-30T06:57:29.24Z</time></trkpt><trkpt lat="42.6460673" lon="12.4829776"><ele>347.0</ele><time>2026-04-30T06:57:30.278Z</time></trkpt><trkpt lat="42.6460864" lon="12.4831279"><ele>347.83333333333337</ele><time>2026-04-30T06:57:32.253Z</time></trkpt><trkpt lat="42.6461022" lon="12.4832954"><ele>348.6666666666667</ele><time>2026-04-30T06:57:34.279Z</time></trkpt><trkpt lat="42.6461149" lon="12.4833849"><ele>349.5</ele><time>2026-04-30T06:57:35.278Z</time></trkpt><trkpt lat="42.6461321" lon="12.4834773"><ele>350.3333333333333</ele><time>2026-04-30T06:57:36.262Z</time></trkpt><trkpt lat="42.6461544" lon="12.4835823"><ele>351.16666666666663</ele><time>2026-04-30T06:57:37.256Z</time></trkpt><trkpt lat="42.6461855" lon="12.4836954"><ele>352.0</ele><time>2026-04-30T06:57:38.25Z</time></trkpt><trkpt lat="42.6462216" lon="12.4838108"><ele>352.5</ele><time>2026-04-30T06:57:39.267Z</time></trkpt><trkpt lat="42.6462626" lon="12.4839198"><ele>353.0</ele><time>2026-04-30T06:57:40.265Z</time></trkpt><trkpt lat="42.6463156" lon="12.4840451"><ele>353.5</ele><time>2026-04-30T06:57:41.301Z</time></trkpt><trkpt lat="42.6464013" lon="12.4842196"><ele>354.0</ele><time>2026-04-30T06:57:42.275Z</time></trkpt><trkpt lat="42.6465108" lon="12.4844511"><ele>356.0</ele><time>2026-04-30T06:57:43.251Z</time></trkpt><trkpt lat="42.6466488" lon="12.4847208"><ele>358.0</ele><time>2026-04-30T06:57:44.253Z</time></trkpt><trkpt lat="42.6468202" lon="12.4850273"><ele>358.0</ele><time>2026-04-30T06:57:45.25Z</time></trkpt><trkpt lat="42.6470112" lon="12.4853594"><ele>358.0</ele><time>2026-04-30T06:57:46.238Z</time></trkpt><trkpt lat="42.6472056" lon="12.4856737"><ele>358.0</ele><time>2026-04-30T06:57:47.271Z</time></trkpt><trkpt lat="42.6473916" lon="12.4859728"><ele>358.0</ele><time>2026-04-30T06:57:48.257Z</time></trkpt><trkpt lat="42.6475732" lon="12.4862688"><ele>358.0</ele><time>2026-04-30T06:57:49.263Z</time></trkpt><trkpt lat="42.6477425" lon="12.4865642"><ele>358.0</ele><time>2026-04-30T06:57:50.252Z</time></trkpt><trkpt lat="42.6479087" lon="12.4868471"><ele>359.5</ele><time>2026-04-30T06:57:51.265Z</time></trkpt><trkpt lat="42.6480689" lon="12.4871159"><ele>361.0</ele><time>2026-04-30T06:57:52.254Z</time></trkpt><trkpt lat="42.6482253" lon="12.4873765"><ele>361.0</ele><time>2026-04-30T06:57:53.245Z</time></trkpt><trkpt lat="42.6483777" lon="12.4876271"><ele>361.0</ele><time>2026-04-30T06:57:54.264Z</time></trkpt><trkpt lat="42.6485257" lon="12.4878803"><ele>363.5</ele><time>2026-04-30T06:57:55.266Z</time></trkpt><trkpt lat="42.6486659" lon="12.4881286"><ele>366.0</ele><time>2026-04-30T06:57:56.254Z</time></trkpt><trkpt lat="42.6488055" lon="12.4883743"><ele>366.0</ele><time>2026-04-30T06:57:57.246Z</time></trkpt><trkpt lat="42.6489533" lon="12.4886097"><ele>366.0</ele><time>2026-04-30T06:57:58.252Z</time></trkpt><trkpt lat="42.6491074" lon="12.488836"><ele>365.0</ele><time>2026-04-30T06:57:59.266Z</time></trkpt><trkpt lat="42.649273" lon="12.4890489"><ele>364.0</ele><time>2026-04-30T06:58:00.269Z</time></trkpt><trkpt lat="42.6494582" lon="12.4892448"><ele>365.0</ele><time>2026-04-30T06:58:01.299Z</time></trkpt><trkpt lat="42.6496514" lon="12.4894236"><ele>366.0</ele><time>2026-04-30T06:58:02.29Z</time></trkpt><trkpt lat="42.6498528" lon="12.4895947"><ele>366.0</ele><time>2026-04-30T06:58:03.262Z</time></trkpt><trkpt lat="42.6500539" lon="12.4897549"><ele>366.0</ele><time>2026-04-30T06:58:04.287Z</time></trkpt><trkpt lat="42.6502621" lon="12.4899095"><ele>369.5</ele><time>2026-04-30T06:58:05.276Z</time></trkpt><trkpt lat="42.6504697" lon="12.4900508"><ele>373.0</ele><time>2026-04-30T06:58:06.274Z</time></trkpt><trkpt lat="42.650688" lon="12.4901852"><ele>373.0</ele><time>2026-04-30T06:58:07.269Z</time></trkpt><trkpt lat="42.6509084" lon="12.4903135"><ele>373.0</ele><time>2026-04-30T06:58:08.302Z</time></trkpt><trkpt lat="42.6511335" lon="12.4904418"><ele>374.0</ele><time>2026-04-30T06:58:09.263Z</time></trkpt><trkpt lat="42.6513582" lon="12.4905708"><ele>375.0</ele><time>2026-04-30T06:58:10.265Z</time></trkpt><trkpt lat="42.6515881" lon="12.4906994"><ele>375.0</ele><time>2026-04-30T06:58:11.296Z</time></trkpt><trkpt lat="42.6518128" lon="12.4908287"><ele>375.0</ele><time>2026-04-30T06:58:12.267Z</time></trkpt><trkpt lat="42.6520392" lon="12.4909562"><ele>380.5</ele><time>2026-04-30T06:58:13.273Z</time></trkpt><trkpt lat="42.6522619" lon="12.4910851"><ele>386.0</ele><time>2026-04-30T06:58:14.319Z</time></trkpt><trkpt lat="42.6524761" lon="12.4912117"><ele>387.3333333333333</ele><time>2026-04-30T06:58:15.268Z</time></trkpt><trkpt lat="42.6526754" lon="12.4913288"><ele>388.66666666666663</ele><time>2026-04-30T06:58:16.296Z</time></trkpt><trkpt lat="42.6528531" lon="12.4914262"><ele>390.0</ele><time>2026-04-30T06:58:17.252Z</time></trkpt><trkpt lat="42.6530164" lon="12.4915246"><ele>390.0</ele><time>2026-04-30T06:58:18.252Z</time></trkpt><trkpt lat="42.6531695" lon="12.4916075"><ele>390.0</ele><time>2026-04-30T06:58:19.276Z</time></trkpt><trkpt lat="42.6533142" lon="12.4916814"><ele>390.0</ele><time>2026-04-30T06:58:20.252Z</time></trkpt><trkpt lat="42.6534528" lon="12.4917563"><ele>390.0</ele><time>2026-04-30T06:58:21.248Z</time></trkpt><trkpt lat="42.6535921" lon="12.4918366"><ele>390.0</ele><time>2026-04-30T06:58:22.265Z</time></trkpt><trkpt lat="42.6537229" lon="12.4919258"><ele>390.0</ele><time>2026-04-30T06:58:23.262Z</time></trkpt><trkpt lat="42.6538402" lon="12.4920383"><ele>390.0</ele><time>2026-04-30T06:58:24.254Z</time></trkpt><trkpt lat="42.6539465" lon="12.4921747"><ele>392.66666666666663</ele><time>2026-04-30T06:58:25.273Z</time></trkpt><trkpt lat="42.6540498" lon="12.4923361"><ele>395.3333333333333</ele><time>2026-04-30T06:58:26.259Z</time></trkpt><trkpt lat="42.6541379" lon="12.4925156"><ele>398.0</ele><time>2026-04-30T06:58:27.252Z</time></trkpt><trkpt lat="42.6542051" lon="12.4927262"><ele>397.3333333333333</ele><time>2026-04-30T06:58:28.26Z</time></trkpt><trkpt lat="42.6542556" lon="12.4929569"><ele>396.66666666666663</ele><time>2026-04-30T06:58:29.253Z</time></trkpt><trkpt lat="42.6542945" lon="12.4932055"><ele>396.0</ele><time>2026-04-30T06:58:30.248Z</time></trkpt><trkpt lat="42.6543171" lon="12.4934547"><ele>396.0</ele><time>2026-04-30T06:58:31.263Z</time></trkpt><trkpt lat="42.6543409" lon="12.4936976"><ele>396.0</ele><time>2026-04-30T06:58:32.258Z</time></trkpt><trkpt lat="42.6543625" lon="12.4939404"><ele>396.0</ele><time>2026-04-30T06:58:33.263Z</time></trkpt><trkpt lat="42.6543846" lon="12.4941765"><ele>396.33333333333337</ele><time>2026-04-30T06:58:34.259Z</time></trkpt><trkpt lat="42.6544081" lon="12.4944001"><ele>396.6666666666667</ele><time>2026-04-30T06:58:35.251Z</time></trkpt><trkpt lat="42.6544333" lon="12.4946102"><ele>397.0</ele><time>2026-04-30T06:58:36.268Z</time></trkpt><trkpt lat="42.6544594" lon="12.4948054"><ele>398.75</ele><time>2026-04-30T06:58:37.239Z</time></trkpt><trkpt lat="42.6544796" lon="12.4949879"><ele>400.5</ele><time>2026-04-30T06:58:38.265Z</time></trkpt><trkpt lat="42.6545143" lon="12.4951621"><ele>402.25</ele><time>2026-04-30T06:58:39.254Z</time></trkpt><trkpt lat="42.6545543" lon="12.4953304"><ele>404.0</ele><time>2026-04-30T06:58:40.263Z</time></trkpt><trkpt lat="42.6546204" lon="12.4954876"><ele>404.0</ele><time>2026-04-30T06:58:41.262Z</time></trkpt><trkpt lat="42.6547067" lon="12.4956216"><ele>404.0</ele><time>2026-04-30T06:58:42.258Z</time></trkpt><trkpt lat="42.6548179" lon="12.4957319"><ele>404.0</ele><time>2026-04-30T06:58:43.252Z</time></trkpt><trkpt lat="42.6549399" lon="12.4958141"><ele>404.0</ele><time>2026-04-30T06:58:44.264Z</time></trkpt><trkpt lat="42.6550606" lon="12.4958761"><ele>404.0</ele><time>2026-04-30T06:58:45.259Z</time></trkpt><trkpt lat="42.6551909" lon="12.4959243"><ele>404.0</ele><time>2026-04-30T06:58:46.265Z</time></trkpt><trkpt lat="42.6553339" lon="12.4959546"><ele>404.0</ele><time>2026-04-30T06:58:47.248Z</time></trkpt><trkpt lat="42.6554927" lon="12.4959878"><ele>404.0</ele><time>2026-04-30T06:58:48.256Z</time></trkpt><trkpt lat="42.6556533" lon="12.4960451"><ele>405.0</ele><time>2026-04-30T06:58:49.254Z</time></trkpt><trkpt lat="42.6558247" lon="12.4961153"><ele>406.0</ele><time>2026-04-30T06:58:50.248Z</time></trkpt><trkpt lat="42.6560033" lon="12.4961837"><ele>407.0</ele><time>2026-04-30T06:58:51.265Z</time></trkpt><trkpt lat="42.6561821" lon="12.4962432"><ele>405.0</ele><time>2026-04-30T06:58:52.26Z</time></trkpt><trkpt lat="42.6563624" lon="12.4963059"><ele>403.0</ele><time>2026-04-30T06:58:53.274Z</time></trkpt><trkpt lat="42.6565456" lon="12.4963683"><ele>401.0</ele><time>2026-04-30T06:58:54.262Z</time></trkpt><trkpt lat="42.6567274" lon="12.4964201"><ele>401.0</ele><time>2026-04-30T06:58:55.25Z</time></trkpt><trkpt lat="42.6569096" lon="12.496481"><ele>401.0</ele><time>2026-04-30T06:58:56.26Z</time></trkpt><trkpt lat="42.6570896" lon="12.4965407"><ele>401.0</ele><time>2026-04-30T06:58:57.264Z</time></trkpt><trkpt lat="42.6572641" lon="12.4966131"><ele>403.0</ele><time>2026-04-30T06:58:58.248Z</time></trkpt><trkpt lat="42.6574319" lon="12.4966987"><ele>405.0</ele><time>2026-04-30T06:58:59.262Z</time></trkpt><trkpt lat="42.6575902" lon="12.4968084"><ele>407.0</ele><time>2026-04-30T06:59:00.258Z</time></trkpt><trkpt lat="42.6577502" lon="12.4969299"><ele>406.66666666666663</ele><time>2026-04-30T06:59:01.257Z</time></trkpt><trkpt lat="42.6579056" lon="12.4970613"><ele>406.33333333333337</ele><time>2026-04-30T06:59:02.251Z</time></trkpt><trkpt lat="42.658052" lon="12.4972056"><ele>406.0</ele><time>2026-04-30T06:59:03.245Z</time></trkpt><trkpt lat="42.658195" lon="12.4973719"><ele>406.0</ele><time>2026-04-30T06:59:04.264Z</time></trkpt><trkpt lat="42.6583403" lon="12.4975418"><ele>406.0</ele><time>2026-04-30T06:59:05.258Z</time></trkpt><trkpt lat="42.6584856" lon="12.4977168"><ele>406.0</ele><time>2026-04-30T06:59:06.259Z</time></trkpt><trkpt lat="42.6586203" lon="12.4978953"><ele>405.33333333333337</ele><time>2026-04-30T06:59:07.261Z</time></trkpt><trkpt lat="42.6587461" lon="12.4980795"><ele>404.66666666666663</ele><time>2026-04-30T06:59:08.249Z</time></trkpt><trkpt lat="42.6588694" lon="12.4982692"><ele>404.0</ele><time>2026-04-30T06:59:09.264Z</time></trkpt><trkpt lat="42.658993" lon="12.4984616"><ele>404.0</ele><time>2026-04-30T06:59:10.264Z</time></trkpt><trkpt lat="42.6591055" lon="12.498659"><ele>404.0</ele><time>2026-04-30T06:59:11.267Z</time></trkpt><trkpt lat="42.6592136" lon="12.4988611"><ele>404.0</ele><time>2026-04-30T06:59:12.276Z</time></trkpt><trkpt lat="42.6593168" lon="12.4990701"><ele>403.0</ele><time>2026-04-30T06:59:13.255Z</time></trkpt><trkpt lat="42.6594172" lon="12.4992844"><ele>402.0</ele><time>2026-04-30T06:59:14.265Z</time></trkpt><trkpt lat="42.6595136" lon="12.4995056"><ele>401.0</ele><time>2026-04-30T06:59:15.268Z</time></trkpt><trkpt lat="42.6596093" lon="12.499731"><ele>400.3333333333333</ele><time>2026-04-30T06:59:16.266Z</time></trkpt><trkpt lat="42.6597026" lon="12.4999563"><ele>399.66666666666663</ele><time>2026-04-30T06:59:17.262Z</time></trkpt><trkpt lat="42.6597956" lon="12.5001823"><ele>399.0</ele><time>2026-04-30T06:59:18.263Z</time></trkpt><trkpt lat="42.6598926" lon="12.5004152"><ele>399.66666666666663</ele><time>2026-04-30T06:59:19.264Z</time></trkpt><trkpt lat="42.6599907" lon="12.5006512"><ele>400.3333333333333</ele><time>2026-04-30T06:59:20.262Z</time></trkpt><trkpt lat="42.6600898" lon="12.5008854"><ele>401.0</ele><time>2026-04-30T06:59:21.254Z</time></trkpt><trkpt lat="42.6601934" lon="12.501122"><ele>403.0</ele><time>2026-04-30T06:59:22.247Z</time></trkpt><trkpt lat="42.6602944" lon="12.5013574"><ele>405.0</ele><time>2026-04-30T06:59:23.249Z</time></trkpt><trkpt lat="42.660392" lon="12.5015907"><ele>407.0</ele><time>2026-04-30T06:59:24.256Z</time></trkpt><trkpt lat="42.6604893" lon="12.5018266"><ele>407.0</ele><time>2026-04-30T06:59:25.245Z</time></trkpt><trkpt lat="42.660587" lon="12.5020596"><ele>407.0</ele><time>2026-04-30T06:59:26.256Z</time></trkpt><trkpt lat="42.6606831" lon="12.5022934"><ele>407.0</ele><time>2026-04-30T06:59:27.253Z</time></trkpt><trkpt lat="42.6607785" lon="12.5025263"><ele>407.0</ele><time>2026-04-30T06:59:28.263Z</time></trkpt><trkpt lat="42.6608755" lon="12.5027563"><ele>407.0</ele><time>2026-04-30T06:59:29.259Z</time></trkpt><trkpt lat="42.6609695" lon="12.5029825"><ele>407.0</ele><time>2026-04-30T06:59:30.264Z</time></trkpt><trkpt lat="42.6610641" lon="12.5032068"><ele>409.3333333333333</ele><time>2026-04-30T06:59:31.273Z</time></trkpt><trkpt lat="42.6611597" lon="12.5034285"><ele>411.66666666666663</ele><time>2026-04-30T06:59:32.266Z</time></trkpt><trkpt lat="42.6612502" lon="12.503646"><ele>414.0</ele><time>2026-04-30T06:59:33.247Z</time></trkpt><trkpt lat="42.6613358" lon="12.5038564"><ele>414.0</ele><time>2026-04-30T06:59:34.265Z</time></trkpt><trkpt lat="42.6614104" lon="12.5040532"><ele>414.0</ele><time>2026-04-30T06:59:35.25Z</time></trkpt><trkpt lat="42.6614702" lon="12.5042532"><ele>414.0</ele><time>2026-04-30T06:59:36.26Z</time></trkpt><trkpt lat="42.6615042" lon="12.5044557"><ele>413.66666666666663</ele><time>2026-04-30T06:59:37.253Z</time></trkpt><trkpt lat="42.6615039" lon="12.5046557"><ele>413.3333333333333</ele><time>2026-04-30T06:59:38.247Z</time></trkpt><trkpt lat="42.6614747" lon="12.5048624"><ele>413.0</ele><time>2026-04-30T06:59:39.246Z</time></trkpt><trkpt lat="42.6614227" lon="12.505067"><ele>413.0</ele><time>2026-04-30T06:59:40.265Z</time></trkpt><trkpt lat="42.6613526" lon="12.505281"><ele>413.0</ele><time>2026-04-30T06:59:41.236Z</time></trkpt><trkpt lat="42.6612796" lon="12.5055052"><ele>413.0</ele><time>2026-04-30T06:59:42.253Z</time></trkpt><trkpt lat="42.661206" lon="12.505728"><ele>412.66666666666663</ele><time>2026-04-30T06:59:43.262Z</time></trkpt><trkpt lat="42.6611246" lon="12.5059605"><ele>412.33333333333337</ele><time>2026-04-30T06:59:44.258Z</time></trkpt><trkpt lat="42.6610447" lon="12.5061957"><ele>412.0</ele><time>2026-04-30T06:59:45.279Z</time></trkpt><trkpt lat="42.6609717" lon="12.5064273"><ele>414.33333333333337</ele><time>2026-04-30T06:59:46.242Z</time></trkpt><trkpt lat="42.6609008" lon="12.5066498"><ele>416.66666666666663</ele><time>2026-04-30T06:59:47.257Z</time></trkpt><trkpt lat="42.6608502" lon="12.506864"><ele>419.0</ele><time>2026-04-30T06:59:48.26Z</time></trkpt><trkpt lat="42.660812" lon="12.50707"><ele>420.3333333333333</ele><time>2026-04-30T06:59:49.275Z</time></trkpt><trkpt lat="42.6607815" lon="12.5072747"><ele>421.66666666666663</ele><time>2026-04-30T06:59:50.264Z</time></trkpt><trkpt lat="42.6607605" lon="12.5074793"><ele>423.0</ele><time>2026-04-30T06:59:51.259Z</time></trkpt><trkpt lat="42.6607496" lon="12.5076906"><ele>423.0</ele><time>2026-04-30T06:59:52.27Z</time></trkpt><trkpt lat="42.6607504" lon="12.5079025"><ele>423.0</ele><time>2026-04-30T06:59:53.273Z</time></trkpt><trkpt lat="42.6607568" lon="12.5081203"><ele>423.0</ele><time>2026-04-30T06:59:54.276Z</time></trkpt><trkpt lat="42.6607707" lon="12.5083388"><ele>424.33333333333337</ele><time>2026-04-30T06:59:55.259Z</time></trkpt><trkpt lat="42.6607989" lon="12.5085513"><ele>425.6666666666667</ele><time>2026-04-30T06:59:56.275Z</time></trkpt><trkpt lat="42.660837" lon="12.5087495"><ele>427.0</ele><time>2026-04-30T06:59:57.263Z</time></trkpt><trkpt lat="42.6608793" lon="12.5089448"><ele>427.0</ele><time>2026-04-30T06:59:58.265Z</time></trkpt><trkpt lat="42.6609265" lon="12.5091357"><ele>427.0</ele><time>2026-04-30T06:59:59.266Z</time></trkpt><trkpt lat="42.6609683" lon="12.509319"><ele>427.0</ele><time>2026-04-30T07:00:00.269Z</time></trkpt><trkpt lat="42.6610128" lon="12.5094802"><ele>427.0</ele><time>2026-04-30T07:00:01.261Z</time></trkpt><trkpt lat="42.6610567" lon="12.5096215"><ele>427.0</ele><time>2026-04-30T07:00:02.261Z</time></trkpt><trkpt lat="42.6611076" lon="12.5097396"><ele>427.00000000000006</ele><time>2026-04-30T07:00:03.244Z</time></trkpt><trkpt lat="42.661157" lon="12.5098445"><ele>427.00000000000006</ele><time>2026-04-30T07:00:04.244Z</time></trkpt><trkpt lat="42.6611991" lon="12.5099484"><ele>427.0</ele><time>2026-04-30T07:00:05.258Z</time></trkpt><trkpt lat="42.6612441" lon="12.5100543"><ele>427.0</ele><time>2026-04-30T07:00:06.246Z</time></trkpt><trkpt lat="42.661284" lon="12.5101512"><ele>427.20000000000005</ele><time>2026-04-30T07:00:07.265Z</time></trkpt><trkpt lat="42.6613231" lon="12.5102505"><ele>427.40000000000003</ele><time>2026-04-30T07:00:08.248Z</time></trkpt><trkpt lat="42.661359" lon="12.5103483"><ele>427.59999999999997</ele><time>2026-04-30T07:00:09.259Z</time></trkpt><trkpt lat="42.6613954" lon="12.5104602"><ele>427.79999999999995</ele><time>2026-04-30T07:00:10.26Z</time></trkpt><trkpt lat="42.6614307" lon="12.5105856"><ele>428.0</ele><time>2026-04-30T07:00:11.284Z</time></trkpt><trkpt lat="42.6614696" lon="12.5107231"><ele>428.0</ele><time>2026-04-30T07:00:12.268Z</time></trkpt><trkpt lat="42.6615189" lon="12.5108589"><ele>427.99999999999994</ele><time>2026-04-30T07:00:13.255Z</time></trkpt><trkpt lat="42.6615549" lon="12.5109982"><ele>427.99999999999994</ele><time>2026-04-30T07:00:14.258Z</time></trkpt><trkpt lat="42.661555" lon="12.511131"><ele>428.0</ele><time>2026-04-30T07:00:15.266Z</time></trkpt><trkpt lat="42.6615102" lon="12.5112413"><ele>428.0</ele><time>2026-04-30T07:00:16.246Z</time></trkpt><trkpt lat="42.6614214" lon="12.5113187"><ele>425.75</ele><time>2026-04-30T07:00:17.252Z</time></trkpt><trkpt lat="42.6613113" lon="12.5113382"><ele>423.5</ele><time>2026-04-30T07:00:18.264Z</time></trkpt><trkpt lat="42.6611761" lon="12.5113362"><ele>421.25</ele><time>2026-04-30T07:00:19.245Z</time></trkpt><trkpt lat="42.6610306" lon="12.51134"><ele>419.0</ele><time>2026-04-30T07:00:20.273Z</time></trkpt><trkpt lat="42.6608714" lon="12.5113585"><ele>418.3333333333333</ele><time>2026-04-30T07:00:21.279Z</time></trkpt><trkpt lat="42.6607062" lon="12.5113724"><ele>417.66666666666663</ele><time>2026-04-30T07:00:22.29Z</time></trkpt><trkpt lat="42.6605362" lon="12.5113755"><ele>417.0</ele><time>2026-04-30T07:00:23.292Z</time></trkpt><trkpt lat="42.6603626" lon="12.5113802"><ele>415.0</ele><time>2026-04-30T07:00:24.265Z</time></trkpt><trkpt lat="42.6601815" lon="12.5113832"><ele>413.0</ele><time>2026-04-30T07:00:25.273Z</time></trkpt><trkpt lat="42.6600003" lon="12.5113867"><ele>411.0</ele><time>2026-04-30T07:00:26.279Z</time></trkpt><trkpt lat="42.6598136" lon="12.5113794"><ele>411.0</ele><time>2026-04-30T07:00:27.268Z</time></trkpt><trkpt lat="42.6596364" lon="12.5113747"><ele>411.0</ele><time>2026-04-30T07:00:28.276Z</time></trkpt><trkpt lat="42.6594566" lon="12.5113675"><ele>411.0</ele><time>2026-04-30T07:00:29.277Z</time></trkpt><trkpt lat="42.6592911" lon="12.5113587"><ele>409.66666666666663</ele><time>2026-04-30T07:00:30.278Z</time></trkpt><trkpt lat="42.6591314" lon="12.5113484"><ele>408.3333333333333</ele><time>2026-04-30T07:00:31.274Z</time></trkpt><trkpt lat="42.6589807" lon="12.5113387"><ele>407.0</ele><time>2026-04-30T07:00:32.264Z</time></trkpt><trkpt lat="42.6588291" lon="12.5113273"><ele>407.0</ele><time>2026-04-30T07:00:33.256Z</time></trkpt><trkpt lat="42.6586846" lon="12.5113171"><ele>407.0</ele><time>2026-04-30T07:00:34.267Z</time></trkpt><trkpt lat="42.6585447" lon="12.5113098"><ele>407.0</ele><time>2026-04-30T07:00:35.247Z</time></trkpt><trkpt lat="42.6584126" lon="12.5113225"><ele>407.0</ele><time>2026-04-30T07:00:36.26Z</time></trkpt><trkpt lat="42.6582812" lon="12.5113389"><ele>406.5</ele><time>2026-04-30T07:00:37.24Z</time></trkpt><trkpt lat="42.658146" lon="12.5113615"><ele>406.0</ele><time>2026-04-30T07:00:38.27Z</time></trkpt><trkpt lat="42.6580116" lon="12.5113888"><ele>405.5</ele><time>2026-04-30T07:00:39.271Z</time></trkpt><trkpt lat="42.6578699" lon="12.5114308"><ele>405.0</ele><time>2026-04-30T07:00:40.259Z</time></trkpt><trkpt lat="42.6577337" lon="12.5114753"><ele>404.5</ele><time>2026-04-30T07:00:41.259Z</time></trkpt><trkpt lat="42.6575985" lon="12.5115206"><ele>404.0</ele><time>2026-04-30T07:00:42.258Z</time></trkpt><trkpt lat="42.6574596" lon="12.5115703"><ele>403.5</ele><time>2026-04-30T07:00:43.263Z</time></trkpt><trkpt lat="42.6573112" lon="12.5116162"><ele>403.0</ele><time>2026-04-30T07:00:44.262Z</time></trkpt><trkpt lat="42.657158" lon="12.5116706"><ele>403.0</ele><time>2026-04-30T07:00:45.257Z</time></trkpt><trkpt lat="42.657004" lon="12.511731"><ele>403.0</ele><time>2026-04-30T07:00:46.26Z</time></trkpt><trkpt lat="42.6568461" lon="12.5117859"><ele>403.0</ele><time>2026-04-30T07:00:47.253Z</time></trkpt><trkpt lat="42.6566881" lon="12.5118415"><ele>403.33333333333337</ele><time>2026-04-30T07:00:48.278Z</time></trkpt><trkpt lat="42.6565282" lon="12.5118991"><ele>403.66666666666663</ele><time>2026-04-30T07:00:49.25Z</time></trkpt><trkpt lat="42.6563681" lon="12.5119597"><ele>404.0</ele><time>2026-04-30T07:00:50.263Z</time></trkpt><trkpt lat="42.6562073" lon="12.5120125"><ele>403.66666666666663</ele><time>2026-04-30T07:00:51.258Z</time></trkpt><trkpt lat="42.6560407" lon="12.5120663"><ele>403.33333333333337</ele><time>2026-04-30T07:00:52.263Z</time></trkpt><trkpt lat="42.6558683" lon="12.5121195"><ele>403.0</ele><time>2026-04-30T07:00:53.268Z</time></trkpt><trkpt lat="42.6556946" lon="12.5121749"><ele>403.0</ele><time>2026-04-30T07:00:54.245Z</time></trkpt><trkpt lat="42.6555217" lon="12.5122325"><ele>403.0</ele><time>2026-04-30T07:00:55.258Z</time></trkpt><trkpt lat="42.6553515" lon="12.512291"><ele>403.0</ele><time>2026-04-30T07:00:56.268Z</time></trkpt><trkpt lat="42.6551919" lon="12.5123459"><ele>403.0</ele><time>2026-04-30T07:00:57.262Z</time></trkpt><trkpt lat="42.6550405" lon="12.5123934"><ele>403.0</ele><time>2026-04-30T07:00:58.249Z</time></trkpt><trkpt lat="42.6548991" lon="12.5124373"><ele>403.0</ele><time>2026-04-30T07:00:59.261Z</time></trkpt><trkpt lat="42.6547691" lon="12.5124785"><ele>403.0</ele><time>2026-04-30T07:01:00.256Z</time></trkpt><trkpt lat="42.6546514" lon="12.5125307"><ele>403.0</ele><time>2026-04-30T07:01:01.274Z</time></trkpt><trkpt lat="42.6545341" lon="12.512585"><ele>403.0</ele><time>2026-04-30T07:01:02.26Z</time></trkpt><trkpt lat="42.6543988" lon="12.5126375"><ele>403.0</ele><time>2026-04-30T07:01:03.249Z</time></trkpt><trkpt lat="42.6542574" lon="12.5126847"><ele>403.0</ele><time>2026-04-30T07:01:04.275Z</time></trkpt><trkpt lat="42.6541145" lon="12.5127467"><ele>403.0</ele><time>2026-04-30T07:01:05.251Z</time></trkpt><trkpt lat="42.6539802" lon="12.5128456"><ele>403.0</ele><time>2026-04-30T07:01:06.264Z</time></trkpt><trkpt lat="42.6538486" lon="12.5129552"><ele>403.0</ele><time>2026-04-30T07:01:07.257Z</time></trkpt><trkpt lat="42.6537269" lon="12.5130714"><ele>403.33333333333337</ele><time>2026-04-30T07:01:08.255Z</time></trkpt><trkpt lat="42.6536052" lon="12.5131926"><ele>403.66666666666663</ele><time>2026-04-30T07:01:09.247Z</time></trkpt><trkpt lat="42.6534789" lon="12.5133152"><ele>404.0</ele><time>2026-04-30T07:01:10.244Z</time></trkpt><trkpt lat="42.6533487" lon="12.513439"><ele>404.0</ele><time>2026-04-30T07:01:11.255Z</time></trkpt><trkpt lat="42.6532157" lon="12.5135579"><ele>404.0</ele><time>2026-04-30T07:01:12.246Z</time></trkpt><trkpt lat="42.6530846" lon="12.5136792"><ele>404.0</ele><time>2026-04-30T07:01:13.269Z</time></trkpt><trkpt lat="42.6529498" lon="12.5138003"><ele>402.66666666666663</ele><time>2026-04-30T07:01:14.249Z</time></trkpt><trkpt lat="42.652817" lon="12.5139232"><ele>401.33333333333337</ele><time>2026-04-30T07:01:15.261Z</time></trkpt><trkpt lat="42.6526784" lon="12.5140519"><ele>400.0</ele><time>2026-04-30T07:01:16.277Z</time></trkpt><trkpt lat="42.6525387" lon="12.5141872"><ele>400.0</ele><time>2026-04-30T07:01:17.26Z</time></trkpt><trkpt lat="42.6523922" lon="12.5143262"><ele>400.0</ele><time>2026-04-30T07:01:18.273Z</time></trkpt><trkpt lat="42.6522376" lon="12.5144747"><ele>400.0</ele><time>2026-04-30T07:01:19.261Z</time></trkpt><trkpt lat="42.6520804" lon="12.5146262"><ele>399.6666666666667</ele><time>2026-04-30T07:01:20.262Z</time></trkpt><trkpt lat="42.6519243" lon="12.5147812"><ele>399.33333333333337</ele><time>2026-04-30T07:01:21.272Z</time></trkpt><trkpt lat="42.6517618" lon="12.5149369"><ele>399.0</ele><time>2026-04-30T07:01:22.271Z</time></trkpt><trkpt lat="42.6515968" lon="12.5150923"><ele>399.0</ele><time>2026-04-30T07:01:23.256Z</time></trkpt><trkpt lat="42.6514303" lon="12.5152473"><ele>399.0</ele><time>2026-04-30T07:01:24.256Z</time></trkpt><trkpt lat="42.6512609" lon="12.5154033"><ele>399.0</ele><time>2026-04-30T07:01:25.27Z</time></trkpt><trkpt lat="42.6510972" lon="12.5155586"><ele>398.66666666666663</ele><time>2026-04-30T07:01:26.259Z</time></trkpt><trkpt lat="42.6509342" lon="12.5157103"><ele>398.3333333333333</ele><time>2026-04-30T07:01:27.256Z</time></trkpt><trkpt lat="42.6507732" lon="12.5158586"><ele>398.0</ele><time>2026-04-30T07:01:28.257Z</time></trkpt><trkpt lat="42.6506131" lon="12.5160109"><ele>398.0</ele><time>2026-04-30T07:01:29.241Z</time></trkpt><trkpt lat="42.6504628" lon="12.5161581"><ele>398.0</ele><time>2026-04-30T07:01:30.276Z</time></trkpt><trkpt lat="42.6503158" lon="12.516298"><ele>398.0</ele><time>2026-04-30T07:01:31.252Z</time></trkpt><trkpt lat="42.6501709" lon="12.5164363"><ele>399.0</ele><time>2026-04-30T07:01:32.259Z</time></trkpt><trkpt lat="42.6500303" lon="12.5165638"><ele>400.0</ele><time>2026-04-30T07:01:33.263Z</time></trkpt><trkpt lat="42.649897" lon="12.5166903"><ele>401.0</ele><time>2026-04-30T07:01:34.262Z</time></trkpt><trkpt lat="42.6497737" lon="12.516808"><ele>401.0</ele><time>2026-04-30T07:01:35.253Z</time></trkpt><trkpt lat="42.6496504" lon="12.5169253"><ele>401.0</ele><time>2026-04-30T07:01:36.271Z</time></trkpt><trkpt lat="42.6495294" lon="12.5170325"><ele>401.0</ele><time>2026-04-30T07:01:37.258Z</time></trkpt><trkpt lat="42.6494174" lon="12.5171496"><ele>401.0</ele><time>2026-04-30T07:01:38.292Z</time></trkpt><trkpt lat="42.6493193" lon="12.5172899"><ele>399.3333333333333</ele><time>2026-04-30T07:01:39.266Z</time></trkpt><trkpt lat="42.6492386" lon="12.517447"><ele>397.66666666666663</ele><time>2026-04-30T07:01:40.277Z</time></trkpt><trkpt lat="42.6491841" lon="12.5176382"><ele>396.0</ele><time>2026-04-30T07:01:41.255Z</time></trkpt><trkpt lat="42.6491627" lon="12.5178612"><ele>395.66666666666663</ele><time>2026-04-30T07:01:42.246Z</time></trkpt><trkpt lat="42.6491637" lon="12.5180775"><ele>395.3333333333333</ele><time>2026-04-30T07:01:43.253Z</time></trkpt><trkpt lat="42.6491806" lon="12.5182974"><ele>395.0</ele><time>2026-04-30T07:01:44.262Z</time></trkpt><trkpt lat="42.6492023" lon="12.5185187"><ele>395.0</ele><time>2026-04-30T07:01:45.255Z</time></trkpt><trkpt lat="42.6492206" lon="12.5187297"><ele>395.0</ele><time>2026-04-30T07:01:46.257Z</time></trkpt><trkpt lat="42.6492364" lon="12.5189315"><ele>395.0</ele><time>2026-04-30T07:01:47.269Z</time></trkpt><trkpt lat="42.6492511" lon="12.519127"><ele>393.75</ele><time>2026-04-30T07:01:48.273Z</time></trkpt><trkpt lat="42.6492651" lon="12.5193115"><ele>392.5</ele><time>2026-04-30T07:01:49.257Z</time></trkpt><trkpt lat="42.6492681" lon="12.5194873"><ele>391.25</ele><time>2026-04-30T07:01:50.257Z</time></trkpt><trkpt lat="42.6492285" lon="12.5196269"><ele>390.0</ele><time>2026-04-30T07:01:51.253Z</time></trkpt><trkpt lat="42.6491558" lon="12.519739"><ele>389.4</ele><time>2026-04-30T07:01:52.258Z</time></trkpt><trkpt lat="42.6490664" lon="12.5198126"><ele>388.8</ele><time>2026-04-30T07:01:53.256Z</time></trkpt><trkpt lat="42.6489738" lon="12.5199002"><ele>388.20000000000005</ele><time>2026-04-30T07:01:54.274Z</time></trkpt><trkpt lat="42.6489029" lon="12.5199939"><ele>387.6</ele><time>2026-04-30T07:01:55.27Z</time></trkpt><trkpt lat="42.6488422" lon="12.5200914"><ele>387.0</ele><time>2026-04-30T07:01:56.264Z</time></trkpt><trkpt lat="42.6488015" lon="12.5202075"><ele>387.0</ele><time>2026-04-30T07:01:57.243Z</time></trkpt><trkpt lat="42.6487747" lon="12.5203363"><ele>387.0</ele><time>2026-04-30T07:01:58.272Z</time></trkpt><trkpt lat="42.6487529" lon="12.5204726"><ele>387.0</ele><time>2026-04-30T07:01:59.258Z</time></trkpt><trkpt lat="42.6487372" lon="12.5206004"><ele>387.0</ele><time>2026-04-30T07:02:00.252Z</time></trkpt><trkpt lat="42.648722" lon="12.520725"><ele>387.0</ele><time>2026-04-30T07:02:01.263Z</time></trkpt><trkpt lat="42.6487062" lon="12.5208497"><ele>385.8</ele><time>2026-04-30T07:02:02.255Z</time></trkpt><trkpt lat="42.6486915" lon="12.5209788"><ele>384.6</ele><time>2026-04-30T07:02:03.262Z</time></trkpt><trkpt lat="42.6486747" lon="12.521109"><ele>383.40000000000003</ele><time>2026-04-30T07:02:04.264Z</time></trkpt><trkpt lat="42.6486576" lon="12.521232"><ele>382.20000000000005</ele><time>2026-04-30T07:02:05.278Z</time></trkpt><trkpt lat="42.6486368" lon="12.5213515"><ele>381.0</ele><time>2026-04-30T07:02:06.265Z</time></trkpt><trkpt lat="42.6486168" lon="12.5214765"><ele>383.4</ele><time>2026-04-30T07:02:07.253Z</time></trkpt><trkpt lat="42.6485846" lon="12.5216003"><ele>385.8</ele><time>2026-04-30T07:02:08.255Z</time></trkpt><trkpt lat="42.6485486" lon="12.5217225"><ele>388.2</ele><time>2026-04-30T07:02:09.256Z</time></trkpt><trkpt lat="42.6485032" lon="12.5218365"><ele>390.59999999999997</ele><time>2026-04-30T07:02:10.26Z</time></trkpt><trkpt lat="42.6484491" lon="12.5219372"><ele>393.0</ele><time>2026-04-30T07:02:11.256Z</time></trkpt><trkpt lat="42.6483764" lon="12.5220261"><ele>389.75</ele><time>2026-04-30T07:02:12.258Z</time></trkpt><trkpt lat="42.6482891" lon="12.522098"><ele>386.5</ele><time>2026-04-30T07:02:13.258Z</time></trkpt><trkpt lat="42.6481897" lon="12.5221645"><ele>383.25</ele><time>2026-04-30T07:02:14.256Z</time></trkpt><trkpt lat="42.6480768" lon="12.5222363"><ele>380.0</ele><time>2026-04-30T07:02:15.251Z</time></trkpt><trkpt lat="42.6479494" lon="12.5223125"><ele>380.0</ele><time>2026-04-30T07:02:16.259Z</time></trkpt><trkpt lat="42.6478241" lon="12.5223922"><ele>380.0</ele><time>2026-04-30T07:02:17.257Z</time></trkpt><trkpt lat="42.6477076" lon="12.522468"><ele>380.0</ele><time>2026-04-30T07:02:18.287Z</time></trkpt><trkpt lat="42.6475983" lon="12.5225434"><ele>380.0</ele><time>2026-04-30T07:02:19.29Z</time></trkpt><trkpt lat="42.6474913" lon="12.5226155"><ele>381.0</ele><time>2026-04-30T07:02:20.293Z</time></trkpt><trkpt lat="42.6473831" lon="12.5226927"><ele>382.0</ele><time>2026-04-30T07:02:21.258Z</time></trkpt><trkpt lat="42.6472681" lon="12.5227641"><ele>383.0</ele><time>2026-04-30T07:02:22.266Z</time></trkpt><trkpt lat="42.6471499" lon="12.5228399"><ele>384.0</ele><time>2026-04-30T07:02:23.252Z</time></trkpt><trkpt lat="42.6470333" lon="12.5229185"><ele>381.25</ele><time>2026-04-30T07:02:24.275Z</time></trkpt><trkpt lat="42.6469183" lon="12.5230007"><ele>378.5</ele><time>2026-04-30T07:02:25.261Z</time></trkpt><trkpt lat="42.6468109" lon="12.5231075"><ele>375.75</ele><time>2026-04-30T07:02:26.245Z</time></trkpt><trkpt lat="42.6467046" lon="12.5232295"><ele>373.0</ele><time>2026-04-30T07:02:27.293Z</time></trkpt><trkpt lat="42.6466019" lon="12.5233481"><ele>373.0</ele><time>2026-04-30T07:02:28.278Z</time></trkpt><trkpt lat="42.6464996" lon="12.5234574"><ele>373.0</ele><time>2026-04-30T07:02:29.272Z</time></trkpt><trkpt lat="42.646404" lon="12.5235589"><ele>373.0</ele><time>2026-04-30T07:02:30.285Z</time></trkpt><trkpt lat="42.646318" lon="12.5236546"><ele>373.0</ele><time>2026-04-30T07:02:31.28Z</time></trkpt><trkpt lat="42.6462388" lon="12.5237532"><ele>372.0</ele><time>2026-04-30T07:02:32.256Z</time></trkpt><trkpt lat="42.6461646" lon="12.5238629"><ele>371.0</ele><time>2026-04-30T07:02:33.25Z</time></trkpt><trkpt lat="42.6460877" lon="12.5239754"><ele>370.0</ele><time>2026-04-30T07:02:34.264Z</time></trkpt><trkpt lat="42.6460166" lon="12.5240938"><ele>369.0</ele><time>2026-04-30T07:02:35.258Z</time></trkpt><trkpt lat="42.6459468" lon="12.5242143"><ele>368.0</ele><time>2026-04-30T07:02:36.256Z</time></trkpt><trkpt lat="42.6458825" lon="12.5243263"><ele>368.0</ele><time>2026-04-30T07:02:37.269Z</time></trkpt><trkpt lat="42.6458249" lon="12.5244295"><ele>368.0</ele><time>2026-04-30T07:02:38.255Z</time></trkpt><trkpt lat="42.6457653" lon="12.5245359"><ele>368.0</ele><time>2026-04-30T07:02:39.269Z</time></trkpt><trkpt lat="42.6457016" lon="12.5246454"><ele>368.0</ele><time>2026-04-30T07:02:40.252Z</time></trkpt><trkpt lat="42.6456348" lon="12.5247595"><ele>368.0</ele><time>2026-04-30T07:02:41.268Z</time></trkpt><trkpt lat="42.6455664" lon="12.5248766"><ele>367.5</ele><time>2026-04-30T07:02:42.255Z</time></trkpt><trkpt lat="42.6454971" lon="12.5249973"><ele>367.0</ele><time>2026-04-30T07:02:43.252Z</time></trkpt><trkpt lat="42.6454224" lon="12.5251246"><ele>366.5</ele><time>2026-04-30T07:02:44.261Z</time></trkpt><trkpt lat="42.6453451" lon="12.5252565"><ele>366.0</ele><time>2026-04-30T07:02:45.258Z</time></trkpt><trkpt lat="42.6452706" lon="12.5253883"><ele>365.3333333333333</ele><time>2026-04-30T07:02:46.259Z</time></trkpt><trkpt lat="42.6452066" lon="12.5255077"><ele>364.6666666666667</ele><time>2026-04-30T07:02:47.262Z</time></trkpt><trkpt lat="42.6451475" lon="12.5256165"><ele>364.0</ele><time>2026-04-30T07:02:48.252Z</time></trkpt><trkpt lat="42.6450928" lon="12.5257146"><ele>363.33333333333337</ele><time>2026-04-30T07:02:49.255Z</time></trkpt><trkpt lat="42.6450465" lon="12.5257893"><ele>362.6666666666667</ele><time>2026-04-30T07:02:50.255Z</time></trkpt><trkpt lat="42.6449947" lon="12.5258568"><ele>362.0</ele><time>2026-04-30T07:02:52.256Z</time></trkpt><trkpt lat="42.6449463" lon="12.5259267"><ele>362.0</ele><time>2026-04-30T07:02:57.247Z</time></trkpt><trkpt lat="42.6448852" lon="12.5260405"><ele>362.0</ele><time>2026-04-30T07:02:59.259Z</time></trkpt><trkpt lat="42.6448429" lon="12.5261172"><ele>362.0</ele><time>2026-04-30T07:03:00.258Z</time></trkpt><trkpt lat="42.6447928" lon="12.5262118"><ele>362.0</ele><time>2026-04-30T07:03:01.248Z</time></trkpt><trkpt lat="42.6447411" lon="12.5263131"><ele>362.0</ele><time>2026-04-30T07:03:02.255Z</time></trkpt><trkpt lat="42.6446709" lon="12.5264273"><ele>362.25</ele><time>2026-04-30T07:03:03.25Z</time></trkpt><trkpt lat="42.6445972" lon="12.5265642"><ele>362.5</ele><time>2026-04-30T07:03:04.252Z</time></trkpt><trkpt lat="42.6445283" lon="12.5266976"><ele>362.75</ele><time>2026-04-30T07:03:05.252Z</time></trkpt><trkpt lat="42.6444558" lon="12.5268268"><ele>363.0</ele><time>2026-04-30T07:03:06.254Z</time></trkpt><trkpt lat="42.644375" lon="12.5269626"><ele>363.5</ele><time>2026-04-30T07:03:07.251Z</time></trkpt><trkpt lat="42.6442848" lon="12.5271093"><ele>364.0</ele><time>2026-04-30T07:03:08.255Z</time></trkpt><trkpt lat="42.6441915" lon="12.5272673"><ele>364.5</ele><time>2026-04-30T07:03:09.279Z</time></trkpt><trkpt lat="42.6440983" lon="12.5274261"><ele>365.0</ele><time>2026-04-30T07:03:10.253Z</time></trkpt><trkpt lat="42.6440078" lon="12.5275894"><ele>365.0</ele><time>2026-04-30T07:03:11.257Z</time></trkpt><trkpt lat="42.6439159" lon="12.5277525"><ele>365.0</ele><time>2026-04-30T07:03:12.256Z</time></trkpt><trkpt lat="42.6438166" lon="12.5279293"><ele>365.0</ele><time>2026-04-30T07:03:13.243Z</time></trkpt><trkpt lat="42.6437127" lon="12.5281164"><ele>364.33333333333337</ele><time>2026-04-30T07:03:14.258Z</time></trkpt><trkpt lat="42.6436076" lon="12.5283045"><ele>363.6666666666667</ele><time>2026-04-30T07:03:15.258Z</time></trkpt><trkpt lat="42.6435094" lon="12.5284857"><ele>363.0</ele><time>2026-04-30T07:03:16.265Z</time></trkpt><trkpt lat="42.6434187" lon="12.5286454"><ele>364.0</ele><time>2026-04-30T07:03:17.248Z</time></trkpt><trkpt lat="42.6433291" lon="12.5287956"><ele>365.0</ele><time>2026-04-30T07:03:18.249Z</time></trkpt><trkpt lat="42.6432429" lon="12.5289389"><ele>366.0</ele><time>2026-04-30T07:03:19.261Z</time></trkpt><trkpt lat="42.6431462" lon="12.5290736"><ele>367.0</ele><time>2026-04-30T07:03:20.252Z</time></trkpt><trkpt lat="42.6430406" lon="12.5292038"><ele>367.0</ele><time>2026-04-30T07:03:21.254Z</time></trkpt><trkpt lat="42.6429171" lon="12.5293171"><ele>367.0</ele><time>2026-04-30T07:03:22.254Z</time></trkpt><trkpt lat="42.6427707" lon="12.5294103"><ele>367.0</ele><time>2026-04-30T07:03:23.253Z</time></trkpt><trkpt lat="42.642613" lon="12.5294996"><ele>366.3333333333333</ele><time>2026-04-30T07:03:24.268Z</time></trkpt><trkpt lat="42.6424532" lon="12.5295892"><ele>365.6666666666667</ele><time>2026-04-30T07:03:25.254Z</time></trkpt><trkpt lat="42.6422856" lon="12.5296785"><ele>365.0</ele><time>2026-04-30T07:03:26.257Z</time></trkpt><trkpt lat="42.6421209" lon="12.5297687"><ele>365.33333333333337</ele><time>2026-04-30T07:03:27.251Z</time></trkpt><trkpt lat="42.6419537" lon="12.5298528"><ele>365.6666666666667</ele><time>2026-04-30T07:03:28.255Z</time></trkpt><trkpt lat="42.641787" lon="12.529933"><ele>366.0</ele><time>2026-04-30T07:03:29.257Z</time></trkpt><trkpt lat="42.6416117" lon="12.5299895"><ele>366.0</ele><time>2026-04-30T07:03:30.267Z</time></trkpt><trkpt lat="42.6414386" lon="12.5300231"><ele>366.0</ele><time>2026-04-30T07:03:31.252Z</time></trkpt><trkpt lat="42.6412516" lon="12.5300351"><ele>366.0</ele><time>2026-04-30T07:03:32.274Z</time></trkpt><trkpt lat="42.6410433" lon="12.5300299"><ele>367.0</ele><time>2026-04-30T07:03:33.257Z</time></trkpt><trkpt lat="42.6408127" lon="12.5300284"><ele>368.0</ele><time>2026-04-30T07:03:34.251Z</time></trkpt><trkpt lat="42.6405686" lon="12.5300304"><ele>368.0</ele><time>2026-04-30T07:03:35.264Z</time></trkpt><trkpt lat="42.6403322" lon="12.5300255"><ele>368.0</ele><time>2026-04-30T07:03:36.263Z</time></trkpt><trkpt lat="42.6401146" lon="12.5300206"><ele>368.6666666666667</ele><time>2026-04-30T07:03:37.253Z</time></trkpt><trkpt lat="42.6399167" lon="12.5300233"><ele>369.3333333333333</ele><time>2026-04-30T07:03:38.272Z</time></trkpt><trkpt lat="42.639745" lon="12.5300154"><ele>370.0</ele><time>2026-04-30T07:03:39.27Z</time></trkpt><trkpt lat="42.6395844" lon="12.5300202"><ele>369.66666666666663</ele><time>2026-04-30T07:03:40.264Z</time></trkpt><trkpt lat="42.6394362" lon="12.5300568"><ele>369.3333333333333</ele><time>2026-04-30T07:03:41.266Z</time></trkpt><trkpt lat="42.6393012" lon="12.5301459"><ele>369.0</ele><time>2026-04-30T07:03:42.253Z</time></trkpt><trkpt lat="42.6391775" lon="12.5302901"><ele>368.6666666666667</ele><time>2026-04-30T07:03:43.255Z</time></trkpt><trkpt lat="42.6390654" lon="12.5304811"><ele>368.33333333333337</ele><time>2026-04-30T07:03:44.275Z</time></trkpt><trkpt lat="42.6389596" lon="12.5306905"><ele>368.0</ele><time>2026-04-30T07:03:45.264Z</time></trkpt><trkpt lat="42.6388372" lon="12.5309069"><ele>368.0</ele><time>2026-04-30T07:03:46.267Z</time></trkpt><trkpt lat="42.6387102" lon="12.5311294"><ele>368.0</ele><time>2026-04-30T07:03:47.256Z</time></trkpt><trkpt lat="42.6385778" lon="12.531363"><ele>368.0</ele><time>2026-04-30T07:03:48.273Z</time></trkpt><trkpt lat="42.6384445" lon="12.5315974"><ele>368.0</ele><time>2026-04-30T07:03:49.268Z</time></trkpt><trkpt lat="42.6383091" lon="12.5318315"><ele>368.0</ele><time>2026-04-30T07:03:50.26Z</time></trkpt><trkpt lat="42.6381691" lon="12.5320752"><ele>368.0</ele><time>2026-04-30T07:03:51.261Z</time></trkpt><trkpt lat="42.6380297" lon="12.5323167"><ele>369.0</ele><time>2026-04-30T07:03:52.248Z</time></trkpt><trkpt lat="42.6378929" lon="12.5325586"><ele>370.0</ele><time>2026-04-30T07:03:53.256Z</time></trkpt><trkpt lat="42.6377565" lon="12.5327932"><ele>371.0</ele><time>2026-04-30T07:03:54.269Z</time></trkpt><trkpt lat="42.6376217" lon="12.533026"><ele>371.0</ele><time>2026-04-30T07:03:55.256Z</time></trkpt><trkpt lat="42.637488" lon="12.5332519"><ele>371.0</ele><time>2026-04-30T07:03:56.258Z</time></trkpt><trkpt lat="42.6373558" lon="12.5334781"><ele>371.0</ele><time>2026-04-30T07:03:57.251Z</time></trkpt><trkpt lat="42.6372314" lon="12.5337025"><ele>370.6666666666667</ele><time>2026-04-30T07:03:58.258Z</time></trkpt><trkpt lat="42.6371127" lon="12.5339118"><ele>370.3333333333333</ele><time>2026-04-30T07:03:59.263Z</time></trkpt><trkpt lat="42.636999" lon="12.5341145"><ele>370.0</ele><time>2026-04-30T07:04:00.273Z</time></trkpt><trkpt lat="42.6368937" lon="12.5343231"><ele>370.66666666666663</ele><time>2026-04-30T07:04:01.261Z</time></trkpt><trkpt lat="42.6368089" lon="12.5345543"><ele>371.3333333333333</ele><time>2026-04-30T07:04:02.26Z</time></trkpt><trkpt lat="42.6367452" lon="12.5347981"><ele>372.0</ele><time>2026-04-30T07:04:03.254Z</time></trkpt><trkpt lat="42.6366834" lon="12.5350454"><ele>372.3333333333333</ele><time>2026-04-30T07:04:04.263Z</time></trkpt><trkpt lat="42.6366123" lon="12.5352919"><ele>372.66666666666663</ele><time>2026-04-30T07:04:05.247Z</time></trkpt><trkpt lat="42.636527" lon="12.5355295"><ele>373.0</ele><time>2026-04-30T07:04:06.255Z</time></trkpt><trkpt lat="42.6364229" lon="12.5357574"><ele>374.0</ele><time>2026-04-30T07:04:07.247Z</time></trkpt><trkpt lat="42.6363083" lon="12.5359958"><ele>375.0</ele><time>2026-04-30T07:04:08.261Z</time></trkpt><trkpt lat="42.6362072" lon="12.5362456"><ele>376.0</ele><time>2026-04-30T07:04:09.253Z</time></trkpt><trkpt lat="42.636119" lon="12.5365019"><ele>375.66666666666663</ele><time>2026-04-30T07:04:10.254Z</time></trkpt><trkpt lat="42.6360303" lon="12.5367573"><ele>375.3333333333333</ele><time>2026-04-30T07:04:11.26Z</time></trkpt><trkpt lat="42.6359519" lon="12.5370093"><ele>375.0</ele><time>2026-04-30T07:04:12.264Z</time></trkpt><trkpt lat="42.6358876" lon="12.5372566"><ele>375.0</ele><time>2026-04-30T07:04:13.264Z</time></trkpt><trkpt lat="42.6358306" lon="12.5374898"><ele>375.0</ele><time>2026-04-30T07:04:14.275Z</time></trkpt><trkpt lat="42.6357792" lon="12.5377024"><ele>375.0</ele><time>2026-04-30T07:04:15.261Z</time></trkpt><trkpt lat="42.6357292" lon="12.5378962"><ele>376.25</ele><time>2026-04-30T07:04:16.264Z</time></trkpt><trkpt lat="42.6356815" lon="12.5380869"><ele>377.5</ele><time>2026-04-30T07:04:17.254Z</time></trkpt><trkpt lat="42.6356315" lon="12.5382769"><ele>378.75</ele><time>2026-04-30T07:04:18.258Z</time></trkpt><trkpt lat="42.6355646" lon="12.538463"><ele>380.0</ele><time>2026-04-30T07:04:19.255Z</time></trkpt><trkpt lat="42.6354719" lon="12.5386255"><ele>380.6666666666667</ele><time>2026-04-30T07:04:20.248Z</time></trkpt><trkpt lat="42.6353558" lon="12.538778"><ele>381.3333333333333</ele><time>2026-04-30T07:04:21.259Z</time></trkpt><trkpt lat="42.6352221" lon="12.5389278"><ele>382.0</ele><time>2026-04-30T07:04:22.265Z</time></trkpt><trkpt lat="42.6350774" lon="12.5390861"><ele>382.0</ele><time>2026-04-30T07:04:23.263Z</time></trkpt><trkpt lat="42.6349336" lon="12.5392311"><ele>382.0</ele><time>2026-04-30T07:04:24.257Z</time></trkpt><trkpt lat="42.6347853" lon="12.5393665"><ele>382.0</ele><time>2026-04-30T07:04:25.269Z</time></trkpt><trkpt lat="42.6346328" lon="12.5394829"><ele>381.66666666666663</ele><time>2026-04-30T07:04:26.252Z</time></trkpt><trkpt lat="42.6344745" lon="12.5395822"><ele>381.3333333333333</ele><time>2026-04-30T07:04:27.269Z</time></trkpt><trkpt lat="42.6343111" lon="12.5396849"><ele>381.0</ele><time>2026-04-30T07:04:28.255Z</time></trkpt><trkpt lat="42.6341505" lon="12.5398046"><ele>381.0</ele><time>2026-04-30T07:04:29.261Z</time></trkpt><trkpt lat="42.6340007" lon="12.5399484"><ele>381.0</ele><time>2026-04-30T07:04:30.255Z</time></trkpt><trkpt lat="42.6338558" lon="12.5401128"><ele>381.0</ele><time>2026-04-30T07:04:31.247Z</time></trkpt><trkpt lat="42.6337163" lon="12.5403002"><ele>383.33333333333337</ele><time>2026-04-30T07:04:32.266Z</time></trkpt><trkpt lat="42.6335809" lon="12.5404885"><ele>385.6666666666667</ele><time>2026-04-30T07:04:33.274Z</time></trkpt><trkpt lat="42.6334443" lon="12.5406833"><ele>388.0</ele><time>2026-04-30T07:04:34.248Z</time></trkpt><trkpt lat="42.6333064" lon="12.5408738"><ele>388.0</ele><time>2026-04-30T07:04:35.258Z</time></trkpt><trkpt lat="42.633174" lon="12.5410493"><ele>388.0</ele><time>2026-04-30T07:04:36.265Z</time></trkpt><trkpt lat="42.6330401" lon="12.5412018"><ele>388.0</ele><time>2026-04-30T07:04:37.268Z</time></trkpt><trkpt lat="42.6329016" lon="12.5413313"><ele>388.0</ele><time>2026-04-30T07:04:38.255Z</time></trkpt><trkpt lat="42.6327534" lon="12.5414473"><ele>388.0</ele><time>2026-04-30T07:04:39.253Z</time></trkpt><trkpt lat="42.6326069" lon="12.5415531"><ele>388.0</ele><time>2026-04-30T07:04:40.269Z</time></trkpt><trkpt lat="42.63246" lon="12.5416561"><ele>388.0</ele><time>2026-04-30T07:04:41.268Z</time></trkpt><trkpt lat="42.6323231" lon="12.5417693"><ele>388.0</ele><time>2026-04-30T07:04:42.267Z</time></trkpt><trkpt lat="42.632194" lon="12.5419001"><ele>388.0</ele><time>2026-04-30T07:04:43.267Z</time></trkpt><trkpt lat="42.6320682" lon="12.542049"><ele>386.33333333333337</ele><time>2026-04-30T07:04:44.253Z</time></trkpt><trkpt lat="42.631942" lon="12.5422175"><ele>384.6666666666667</ele><time>2026-04-30T07:04:45.271Z</time></trkpt><trkpt lat="42.6318169" lon="12.5424008"><ele>383.0</ele><time>2026-04-30T07:04:46.252Z</time></trkpt><trkpt lat="42.6316856" lon="12.5425877"><ele>383.0</ele><time>2026-04-30T07:04:47.262Z</time></trkpt><trkpt lat="42.6315528" lon="12.5427749"><ele>383.0</ele><time>2026-04-30T07:04:48.258Z</time></trkpt><trkpt lat="42.6314153" lon="12.5429615"><ele>383.0</ele><time>2026-04-30T07:04:49.253Z</time></trkpt><trkpt lat="42.6312832" lon="12.5431491"><ele>381.6666666666667</ele><time>2026-04-30T07:04:50.272Z</time></trkpt><trkpt lat="42.6311568" lon="12.5433243"><ele>380.3333333333333</ele><time>2026-04-30T07:04:51.269Z</time></trkpt><trkpt lat="42.631036" lon="12.5434967"><ele>379.0</ele><time>2026-04-30T07:04:52.246Z</time></trkpt><trkpt lat="42.6309195" lon="12.5436665"><ele>380.3333333333333</ele><time>2026-04-30T07:04:53.247Z</time></trkpt><trkpt lat="42.6308094" lon="12.543823"><ele>381.6666666666667</ele><time>2026-04-30T07:04:54.272Z</time></trkpt><trkpt lat="42.6307046" lon="12.5439783"><ele>383.0</ele><time>2026-04-30T07:04:55.25Z</time></trkpt><trkpt lat="42.6306068" lon="12.5441346"><ele>383.0</ele><time>2026-04-30T07:04:56.253Z</time></trkpt><trkpt lat="42.6305237" lon="12.5443093"><ele>383.0</ele><time>2026-04-30T07:04:57.261Z</time></trkpt><trkpt lat="42.6304476" lon="12.544502"><ele>383.0</ele><time>2026-04-30T07:04:58.254Z</time></trkpt><trkpt lat="42.6303786" lon="12.5447113"><ele>382.33333333333337</ele><time>2026-04-30T07:04:59.252Z</time></trkpt><trkpt lat="42.6303122" lon="12.5449365"><ele>381.6666666666667</ele><time>2026-04-30T07:05:00.251Z</time></trkpt><trkpt lat="42.6302506" lon="12.5451722"><ele>381.0</ele><time>2026-04-30T07:05:01.256Z</time></trkpt><trkpt lat="42.6301896" lon="12.5454154"><ele>379.3333333333333</ele><time>2026-04-30T07:05:02.26Z</time></trkpt><trkpt lat="42.6301364" lon="12.5456608"><ele>377.66666666666663</ele><time>2026-04-30T07:05:03.248Z</time></trkpt><trkpt lat="42.6300883" lon="12.5458949"><ele>376.0</ele><time>2026-04-30T07:05:04.28Z</time></trkpt><trkpt lat="42.6300434" lon="12.5461167"><ele>375.0</ele><time>2026-04-30T07:05:05.256Z</time></trkpt><trkpt lat="42.6299988" lon="12.5463287"><ele>374.0</ele><time>2026-04-30T07:05:06.25Z</time></trkpt><trkpt lat="42.6299632" lon="12.5465344"><ele>373.0</ele><time>2026-04-30T07:05:07.265Z</time></trkpt><trkpt lat="42.629944" lon="12.5467481"><ele>373.0</ele><time>2026-04-30T07:05:08.26Z</time></trkpt><trkpt lat="42.6299362" lon="12.5469704"><ele>373.0</ele><time>2026-04-30T07:05:09.264Z</time></trkpt><trkpt lat="42.6299371" lon="12.5471825"><ele>373.0</ele><time>2026-04-30T07:05:10.264Z</time></trkpt><trkpt lat="42.6299424" lon="12.5473833"><ele>373.75</ele><time>2026-04-30T07:05:11.255Z</time></trkpt><trkpt lat="42.6299534" lon="12.5475689"><ele>374.5</ele><time>2026-04-30T07:05:12.264Z</time></trkpt><trkpt lat="42.62998" lon="12.5477395"><ele>375.25</ele><time>2026-04-30T07:05:13.267Z</time></trkpt><trkpt lat="42.6300515" lon="12.5478871"><ele>376.0</ele><time>2026-04-30T07:05:14.251Z</time></trkpt><trkpt lat="42.6301552" lon="12.5480017"><ele>376.0</ele><time>2026-04-30T07:05:15.257Z</time></trkpt><trkpt lat="42.6302674" lon="12.5481152"><ele>376.0</ele><time>2026-04-30T07:05:16.266Z</time></trkpt><trkpt lat="42.6303754" lon="12.5482333"><ele>376.0</ele><time>2026-04-30T07:05:17.251Z</time></trkpt><trkpt lat="42.6304691" lon="12.5483811"><ele>376.0</ele><time>2026-04-30T07:05:18.251Z</time></trkpt><trkpt lat="42.6305482" lon="12.548548"><ele>377.25</ele><time>2026-04-30T07:05:19.265Z</time></trkpt><trkpt lat="42.6306194" lon="12.5487198"><ele>378.5</ele><time>2026-04-30T07:05:20.256Z</time></trkpt><trkpt lat="42.630678" lon="12.5488835"><ele>379.75</ele><time>2026-04-30T07:05:21.25Z</time></trkpt><trkpt lat="42.6307129" lon="12.5490393"><ele>381.0</ele><time>2026-04-30T07:05:22.268Z</time></trkpt><trkpt lat="42.6307214" lon="12.5491885"><ele>381.0</ele><time>2026-04-30T07:05:23.269Z</time></trkpt><trkpt lat="42.6307065" lon="12.5493283"><ele>381.0</ele><time>2026-04-30T07:05:24.259Z</time></trkpt><trkpt lat="42.630673" lon="12.5494676"><ele>381.0</ele><time>2026-04-30T07:05:25.256Z</time></trkpt><trkpt lat="42.6306154" lon="12.5496039"><ele>381.0</ele><time>2026-04-30T07:05:26.254Z</time></trkpt><trkpt lat="42.6305501" lon="12.54975"><ele>380.25</ele><time>2026-04-30T07:05:27.252Z</time></trkpt><trkpt lat="42.6304876" lon="12.5499049"><ele>379.5</ele><time>2026-04-30T07:05:28.269Z</time></trkpt><trkpt lat="42.6304254" lon="12.5500682"><ele>378.75</ele><time>2026-04-30T07:05:29.252Z</time></trkpt><trkpt lat="42.6303741" lon="12.5502354"><ele>378.0</ele><time>2026-04-30T07:05:30.259Z</time></trkpt><trkpt lat="42.6303369" lon="12.5504039"><ele>378.75</ele><time>2026-04-30T07:05:31.249Z</time></trkpt><trkpt lat="42.6303042" lon="12.5505617"><ele>379.5</ele><time>2026-04-30T07:05:32.25Z</time></trkpt><trkpt lat="42.6302849" lon="12.5507338"><ele>380.25</ele><time>2026-04-30T07:05:33.27Z</time></trkpt><trkpt lat="42.630287" lon="12.5509253"><ele>381.0</ele><time>2026-04-30T07:05:34.247Z</time></trkpt><trkpt lat="42.6303172" lon="12.5511206"><ele>378.25</ele><time>2026-04-30T07:05:35.25Z</time></trkpt><trkpt lat="42.6303661" lon="12.5513186"><ele>375.5</ele><time>2026-04-30T07:05:36.256Z</time></trkpt><trkpt lat="42.630419" lon="12.5515154"><ele>372.75</ele><time>2026-04-30T07:05:37.253Z</time></trkpt><trkpt lat="42.6304717" lon="12.551694"><ele>370.0</ele><time>2026-04-30T07:05:38.252Z</time></trkpt><trkpt lat="42.6305255" lon="12.5518522"><ele>370.0</ele><time>2026-04-30T07:05:39.255Z</time></trkpt><trkpt lat="42.6305853" lon="12.5519962"><ele>370.0</ele><time>2026-04-30T07:05:40.268Z</time></trkpt><trkpt lat="42.630646" lon="12.5521355"><ele>370.0</ele><time>2026-04-30T07:05:41.263Z</time></trkpt><trkpt lat="42.6307015" lon="12.5522671"><ele>370.0</ele><time>2026-04-30T07:05:42.254Z</time></trkpt><trkpt lat="42.6307507" lon="12.5523988"><ele>370.4</ele><time>2026-04-30T07:05:43.269Z</time></trkpt><trkpt lat="42.6307937" lon="12.5525297"><ele>370.8</ele><time>2026-04-30T07:05:44.282Z</time></trkpt><trkpt lat="42.6308317" lon="12.5526595"><ele>371.20000000000005</ele><time>2026-04-30T07:05:45.251Z</time></trkpt><trkpt lat="42.6308587" lon="12.5527902"><ele>371.6</ele><time>2026-04-30T07:05:46.257Z</time></trkpt><trkpt lat="42.6308684" lon="12.5529285"><ele>372.0</ele><time>2026-04-30T07:05:47.248Z</time></trkpt><trkpt lat="42.6308484" lon="12.5530569"><ele>372.3333333333333</ele><time>2026-04-30T07:05:48.254Z</time></trkpt><trkpt lat="42.630818" lon="12.5531719"><ele>372.6666666666667</ele><time>2026-04-30T07:05:49.253Z</time></trkpt><trkpt lat="42.6307796" lon="12.5532641"><ele>373.0</ele><time>2026-04-30T07:05:50.26Z</time></trkpt><trkpt lat="42.6307238" lon="12.5533377"><ele>373.33333333333337</ele><time>2026-04-30T07:05:51.252Z</time></trkpt><trkpt lat="42.6306537" lon="12.5533983"><ele>373.6666666666667</ele><time>2026-04-30T07:05:52.268Z</time></trkpt><trkpt lat="42.6305653" lon="12.5534398"><ele>374.0</ele><time>2026-04-30T07:05:53.252Z</time></trkpt><trkpt lat="42.6304511" lon="12.5534605"><ele>374.0</ele><time>2026-04-30T07:05:54.261Z</time></trkpt><trkpt lat="42.6303248" lon="12.553476"><ele>374.0</ele><time>2026-04-30T07:05:55.26Z</time></trkpt><trkpt lat="42.6301819" lon="12.5534735"><ele>374.0</ele><time>2026-04-30T07:05:56.258Z</time></trkpt><trkpt lat="42.6300322" lon="12.5534528"><ele>374.0</ele><time>2026-04-30T07:05:57.277Z</time></trkpt><trkpt lat="42.6298927" lon="12.5534077"><ele>371.33333333333337</ele><time>2026-04-30T07:05:58.265Z</time></trkpt><trkpt lat="42.6297594" lon="12.5533341"><ele>368.6666666666667</ele><time>2026-04-30T07:05:59.258Z</time></trkpt><trkpt lat="42.6296467" lon="12.5532096"><ele>366.0</ele><time>2026-04-30T07:06:00.262Z</time></trkpt><trkpt lat="42.6295661" lon="12.5530171"><ele>367.75</ele><time>2026-04-30T07:06:01.244Z</time></trkpt><trkpt lat="42.629496" lon="12.5528237"><ele>369.5</ele><time>2026-04-30T07:06:02.248Z</time></trkpt><trkpt lat="42.6294145" lon="12.5526566"><ele>371.25</ele><time>2026-04-30T07:06:03.262Z</time></trkpt><trkpt lat="42.6293146" lon="12.5525202"><ele>373.0</ele><time>2026-04-30T07:06:04.258Z</time></trkpt><trkpt lat="42.6291992" lon="12.5523911"><ele>367.66666666666663</ele><time>2026-04-30T07:06:05.257Z</time></trkpt><trkpt lat="42.6290644" lon="12.5522766"><ele>362.3333333333333</ele><time>2026-04-30T07:06:06.272Z</time></trkpt><trkpt lat="42.6289201" lon="12.5521644"><ele>357.0</ele><time>2026-04-30T07:06:07.27Z</time></trkpt><trkpt lat="42.6287632" lon="12.5520774"><ele>358.3333333333333</ele><time>2026-04-30T07:06:08.26Z</time></trkpt><trkpt lat="42.6285968" lon="12.5520194"><ele>359.66666666666663</ele><time>2026-04-30T07:06:09.247Z</time></trkpt><trkpt lat="42.6284315" lon="12.5519899"><ele>361.0</ele><time>2026-04-30T07:06:10.278Z</time></trkpt><trkpt lat="42.6282718" lon="12.5519598"><ele>361.0</ele><time>2026-04-30T07:06:11.267Z</time></trkpt><trkpt lat="42.6281194" lon="12.551927"><ele>361.0</ele><time>2026-04-30T07:06:12.266Z</time></trkpt><trkpt lat="42.6279639" lon="12.5518666"><ele>361.0</ele><time>2026-04-30T07:06:13.265Z</time></trkpt><trkpt lat="42.6278047" lon="12.5517773"><ele>355.66666666666663</ele><time>2026-04-30T07:06:14.255Z</time></trkpt><trkpt lat="42.6276449" lon="12.5516839"><ele>350.3333333333333</ele><time>2026-04-30T07:06:15.25Z</time></trkpt><trkpt lat="42.6274863" lon="12.5515959"><ele>345.0</ele><time>2026-04-30T07:06:16.271Z</time></trkpt><trkpt lat="42.6273263" lon="12.5515142"><ele>345.0</ele><time>2026-04-30T07:06:17.239Z</time></trkpt><trkpt lat="42.6271719" lon="12.5514295"><ele>345.0</ele><time>2026-04-30T07:06:18.278Z</time></trkpt><trkpt lat="42.6270174" lon="12.5513429"><ele>345.0</ele><time>2026-04-30T07:06:19.255Z</time></trkpt><trkpt lat="42.6268569" lon="12.5512637"><ele>346.0</ele><time>2026-04-30T07:06:20.246Z</time></trkpt><trkpt lat="42.6266962" lon="12.5511894"><ele>347.0</ele><time>2026-04-30T07:06:21.263Z</time></trkpt><trkpt lat="42.6265318" lon="12.5511189"><ele>348.0</ele><time>2026-04-30T07:06:22.267Z</time></trkpt><trkpt lat="42.6263636" lon="12.5510647"><ele>348.0</ele><time>2026-04-30T07:06:23.258Z</time></trkpt><trkpt lat="42.6261927" lon="12.5510466"><ele>348.0</ele><time>2026-04-30T07:06:24.251Z</time></trkpt><trkpt lat="42.626015" lon="12.5510652"><ele>348.0</ele><time>2026-04-30T07:06:25.244Z</time></trkpt><trkpt lat="42.6258507" lon="12.5510887"><ele>345.25</ele><time>2026-04-30T07:06:26.253Z</time></trkpt><trkpt lat="42.6257005" lon="12.5511064"><ele>342.5</ele><time>2026-04-30T07:06:27.263Z</time></trkpt><trkpt lat="42.625558" lon="12.5510941"><ele>339.75</ele><time>2026-04-30T07:06:28.25Z</time></trkpt><trkpt lat="42.6254277" lon="12.5510647"><ele>337.0</ele><time>2026-04-30T07:06:29.248Z</time></trkpt><trkpt lat="42.62531" lon="12.5509704"><ele>333.25</ele><time>2026-04-30T07:06:30.265Z</time></trkpt><trkpt lat="42.6251943" lon="12.5508401"><ele>329.5</ele><time>2026-04-30T07:06:31.244Z</time></trkpt><trkpt lat="42.6250829" lon="12.5507154"><ele>325.75</ele><time>2026-04-30T07:06:32.262Z</time></trkpt><trkpt lat="42.6249779" lon="12.5505752"><ele>322.0</ele><time>2026-04-30T07:06:33.25Z</time></trkpt><trkpt lat="42.624896" lon="12.5504155"><ele>324.25</ele><time>2026-04-30T07:06:34.247Z</time></trkpt><trkpt lat="42.6248331" lon="12.5502591"><ele>326.5</ele><time>2026-04-30T07:06:35.261Z</time></trkpt><trkpt lat="42.6247529" lon="12.5501093"><ele>328.75</ele><time>2026-04-30T07:06:36.262Z</time></trkpt><trkpt lat="42.6246504" lon="12.5499805"><ele>331.0</ele><time>2026-04-30T07:06:37.248Z</time></trkpt><trkpt lat="42.6245356" lon="12.5498851"><ele>328.75</ele><time>2026-04-30T07:06:38.248Z</time></trkpt><trkpt lat="42.6244173" lon="12.5498167"><ele>326.5</ele><time>2026-04-30T07:06:39.263Z</time></trkpt><trkpt lat="42.6243188" lon="12.5497376"><ele>324.25</ele><time>2026-04-30T07:06:40.265Z</time></trkpt><trkpt lat="42.624245" lon="12.5496339"><ele>322.0</ele><time>2026-04-30T07:06:41.263Z</time></trkpt><trkpt lat="42.624193" lon="12.5494808"><ele>322.0</ele><time>2026-04-30T07:06:42.25Z</time></trkpt><trkpt lat="42.6241712" lon="12.5493152"><ele>322.0</ele><time>2026-04-30T07:06:43.281Z</time></trkpt><trkpt lat="42.6241538" lon="12.54916"><ele>322.0</ele><time>2026-04-30T07:06:44.259Z</time></trkpt><trkpt lat="42.6241245" lon="12.5490115"><ele>322.0</ele><time>2026-04-30T07:06:45.259Z</time></trkpt><trkpt lat="42.6240715" lon="12.5488725"><ele>322.0</ele><time>2026-04-30T07:06:46.287Z</time></trkpt><trkpt lat="42.6239913" lon="12.5487669"><ele>322.0</ele><time>2026-04-30T07:06:47.274Z</time></trkpt><trkpt lat="42.6239002" lon="12.5486936"><ele>322.0</ele><time>2026-04-30T07:06:48.293Z</time></trkpt><trkpt lat="42.6237968" lon="12.5486597"><ele>322.0</ele><time>2026-04-30T07:06:49.276Z</time></trkpt><trkpt lat="42.6236695" lon="12.5486767"><ele>320.25</ele><time>2026-04-30T07:06:50.25Z</time></trkpt><trkpt lat="42.6235479" lon="12.548748"><ele>318.5</ele><time>2026-04-30T07:06:51.279Z</time></trkpt><trkpt lat="42.6234342" lon="12.5488297"><ele>316.75</ele><time>2026-04-30T07:06:52.262Z</time></trkpt><trkpt lat="42.6233222" lon="12.5489077"><ele>315.0</ele><time>2026-04-30T07:06:53.259Z</time></trkpt><trkpt lat="42.6232151" lon="12.5489862"><ele>315.0</ele><time>2026-04-30T07:06:54.272Z</time></trkpt><trkpt lat="42.6231112" lon="12.5490599"><ele>315.0</ele><time>2026-04-30T07:06:55.289Z</time></trkpt><trkpt lat="42.6230122" lon="12.5491143"><ele>315.0</ele><time>2026-04-30T07:06:56.27Z</time></trkpt><trkpt lat="42.622909" lon="12.549149"><ele>315.0</ele><time>2026-04-30T07:06:57.26Z</time></trkpt><trkpt lat="42.6228021" lon="12.5491639"><ele>315.0</ele><time>2026-04-30T07:06:58.289Z</time></trkpt><trkpt lat="42.6226996" lon="12.5491719"><ele>313.6</ele><time>2026-04-30T07:06:59.245Z</time></trkpt><trkpt lat="42.6226019" lon="12.5491797"><ele>312.2</ele><time>2026-04-30T07:07:00.259Z</time></trkpt><trkpt lat="42.6225005" lon="12.5491851"><ele>310.8</ele><time>2026-04-30T07:07:01.253Z</time></trkpt><trkpt lat="42.6223947" lon="12.5491916"><ele>309.4</ele><time>2026-04-30T07:07:02.249Z</time></trkpt><trkpt lat="42.6222826" lon="12.5492131"><ele>308.0</ele><time>2026-04-30T07:07:03.243Z</time></trkpt><trkpt lat="42.622167" lon="12.5492481"><ele>308.0</ele><time>2026-04-30T07:07:04.247Z</time></trkpt><trkpt lat="42.6220495" lon="12.5493217"><ele>308.0</ele><time>2026-04-30T07:07:05.256Z</time></trkpt><trkpt lat="42.621933" lon="12.5494316"><ele>308.0</ele><time>2026-04-30T07:07:06.251Z</time></trkpt><trkpt lat="42.6218151" lon="12.5495489"><ele>308.0</ele><time>2026-04-30T07:07:07.255Z</time></trkpt><trkpt lat="42.6216864" lon="12.5496743"><ele>307.6666666666667</ele><time>2026-04-30T07:07:08.258Z</time></trkpt><trkpt lat="42.6215628" lon="12.5498077"><ele>307.3333333333333</ele><time>2026-04-30T07:07:09.26Z</time></trkpt><trkpt lat="42.6214358" lon="12.5499386"><ele>307.0</ele><time>2026-04-30T07:07:10.246Z</time></trkpt><trkpt lat="42.6213133" lon="12.550072"><ele>307.0</ele><time>2026-04-30T07:07:11.277Z</time></trkpt><trkpt lat="42.6211961" lon="12.5501963"><ele>307.0</ele><time>2026-04-30T07:07:12.276Z</time></trkpt><trkpt lat="42.6210828" lon="12.5503165"><ele>307.0</ele><time>2026-04-30T07:07:13.272Z</time></trkpt><trkpt lat="42.6209752" lon="12.5504426"><ele>307.0</ele><time>2026-04-30T07:07:14.246Z</time></trkpt><trkpt lat="42.6208685" lon="12.5505651"><ele>308.25</ele><time>2026-04-30T07:07:15.248Z</time></trkpt><trkpt lat="42.6207554" lon="12.5506721"><ele>309.5</ele><time>2026-04-30T07:07:16.248Z</time></trkpt><trkpt lat="42.6206294" lon="12.5507425"><ele>310.75</ele><time>2026-04-30T07:07:17.25Z</time></trkpt><trkpt lat="42.6204972" lon="12.5507811"><ele>312.0</ele><time>2026-04-30T07:07:18.249Z</time></trkpt><trkpt lat="42.6203591" lon="12.5507964"><ele>312.75</ele><time>2026-04-30T07:07:19.258Z</time></trkpt><trkpt lat="42.6202223" lon="12.5507891"><ele>313.5</ele><time>2026-04-30T07:07:20.254Z</time></trkpt><trkpt lat="42.6200776" lon="12.5507768"><ele>314.25</ele><time>2026-04-30T07:07:21.261Z</time></trkpt><trkpt lat="42.6199313" lon="12.5507641"><ele>315.0</ele><time>2026-04-30T07:07:22.253Z</time></trkpt><trkpt lat="42.6197865" lon="12.5507435"><ele>315.0</ele><time>2026-04-30T07:07:23.255Z</time></trkpt><trkpt lat="42.6196532" lon="12.5507181"><ele>315.0</ele><time>2026-04-30T07:07:24.248Z</time></trkpt><trkpt lat="42.6195298" lon="12.5506891"><ele>315.0</ele><time>2026-04-30T07:07:25.239Z</time></trkpt><trkpt lat="42.6194045" lon="12.5506501"><ele>315.0</ele><time>2026-04-30T07:07:26.252Z</time></trkpt><trkpt lat="42.6192769" lon="12.5506078"><ele>315.0</ele><time>2026-04-30T07:07:27.274Z</time></trkpt><trkpt lat="42.6191465" lon="12.5505672"><ele>315.0</ele><time>2026-04-30T07:07:28.254Z</time></trkpt><trkpt lat="42.6190147" lon="12.5505341"><ele>315.0</ele><time>2026-04-30T07:07:29.246Z</time></trkpt><trkpt lat="42.6188762" lon="12.5504939"><ele>315.0</ele><time>2026-04-30T07:07:30.253Z</time></trkpt><trkpt lat="42.6187364" lon="12.5504498"><ele>314.5</ele><time>2026-04-30T07:07:31.259Z</time></trkpt><trkpt lat="42.6185905" lon="12.550411"><ele>314.0</ele><time>2026-04-30T07:07:32.261Z</time></trkpt><trkpt lat="42.6184439" lon="12.5503738"><ele>313.5</ele><time>2026-04-30T07:07:33.256Z</time></trkpt><trkpt lat="42.6182984" lon="12.5503265"><ele>313.0</ele><time>2026-04-30T07:07:34.262Z</time></trkpt><trkpt lat="42.6181558" lon="12.550269"><ele>313.0</ele><time>2026-04-30T07:07:35.248Z</time></trkpt><trkpt lat="42.6180156" lon="12.5502006"><ele>313.0</ele><time>2026-04-30T07:07:36.261Z</time></trkpt><trkpt lat="42.6178733" lon="12.5501215"><ele>313.0</ele><time>2026-04-30T07:07:37.255Z</time></trkpt><trkpt lat="42.6177422" lon="12.5500216"><ele>312.0</ele><time>2026-04-30T07:07:38.266Z</time></trkpt><trkpt lat="42.6176247" lon="12.5499044"><ele>311.0</ele><time>2026-04-30T07:07:39.253Z</time></trkpt><trkpt lat="42.6175124" lon="12.5497719"><ele>310.0</ele><time>2026-04-30T07:07:40.264Z</time></trkpt><trkpt lat="42.6173993" lon="12.5496402"><ele>309.0</ele><time>2026-04-30T07:07:41.264Z</time></trkpt><trkpt lat="42.6172916" lon="12.5494955"><ele>308.3333333333333</ele><time>2026-04-30T07:07:42.262Z</time></trkpt><trkpt lat="42.6171942" lon="12.5493454"><ele>307.66666666666663</ele><time>2026-04-30T07:07:43.255Z</time></trkpt><trkpt lat="42.6170963" lon="12.5491856"><ele>307.0</ele><time>2026-04-30T07:07:44.279Z</time></trkpt><trkpt lat="42.6169998" lon="12.5490174"><ele>308.0</ele><time>2026-04-30T07:07:45.29Z</time></trkpt><trkpt lat="42.6169034" lon="12.5488519"><ele>309.0</ele><time>2026-04-30T07:07:46.273Z</time></trkpt><trkpt lat="42.6168096" lon="12.548687"><ele>310.0</ele><time>2026-04-30T07:07:47.29Z</time></trkpt><trkpt lat="42.6167143" lon="12.5485201"><ele>311.0</ele><time>2026-04-30T07:07:48.282Z</time></trkpt><trkpt lat="42.6166222" lon="12.5483567"><ele>312.0</ele><time>2026-04-30T07:07:49.243Z</time></trkpt><trkpt lat="42.6165321" lon="12.5481956"><ele>313.0</ele><time>2026-04-30T07:07:50.255Z</time></trkpt><trkpt lat="42.6164419" lon="12.5480199"><ele>311.3333333333333</ele><time>2026-04-30T07:07:51.269Z</time></trkpt><trkpt lat="42.6163616" lon="12.5478384"><ele>309.6666666666667</ele><time>2026-04-30T07:07:52.282Z</time></trkpt><trkpt lat="42.6162781" lon="12.5476514"><ele>308.0</ele><time>2026-04-30T07:07:53.267Z</time></trkpt><trkpt lat="42.6161933" lon="12.5474603"><ele>315.33333333333337</ele><time>2026-04-30T07:07:54.263Z</time></trkpt><trkpt lat="42.6161111" lon="12.5472672"><ele>322.6666666666667</ele><time>2026-04-30T07:07:55.263Z</time></trkpt><trkpt lat="42.616033" lon="12.5470688"><ele>330.0</ele><time>2026-04-30T07:07:56.24Z</time></trkpt><trkpt lat="42.6159644" lon="12.5468689"><ele>330.0</ele><time>2026-04-30T07:07:57.247Z</time></trkpt><trkpt lat="42.6159023" lon="12.5466683"><ele>330.0</ele><time>2026-04-30T07:07:58.274Z</time></trkpt><trkpt lat="42.6158465" lon="12.5464696"><ele>330.0</ele><time>2026-04-30T07:07:59.264Z</time></trkpt><trkpt lat="42.6157989" lon="12.5462606"><ele>326.6666666666667</ele><time>2026-04-30T07:08:00.264Z</time></trkpt><trkpt lat="42.615748" lon="12.5460461"><ele>323.33333333333337</ele><time>2026-04-30T07:08:01.258Z</time></trkpt><trkpt lat="42.615702" lon="12.5458364"><ele>320.0</ele><time>2026-04-30T07:08:02.258Z</time></trkpt><trkpt lat="42.6156618" lon="12.5456426"><ele>320.0</ele><time>2026-04-30T07:08:03.261Z</time></trkpt><trkpt lat="42.6156165" lon="12.5454624"><ele>320.0</ele><time>2026-04-30T07:08:04.255Z</time></trkpt><trkpt lat="42.6155684" lon="12.5452796"><ele>320.0</ele><time>2026-04-30T07:08:05.257Z</time></trkpt><trkpt lat="42.6155016" lon="12.5450953"><ele>320.0</ele><time>2026-04-30T07:08:06.255Z</time></trkpt><trkpt lat="42.615409" lon="12.544924"><ele>325.0</ele><time>2026-04-30T07:08:07.265Z</time></trkpt><trkpt lat="42.6152991" lon="12.544775"><ele>330.0</ele><time>2026-04-30T07:08:08.255Z</time></trkpt><trkpt lat="42.6151769" lon="12.5446557"><ele>335.0</ele><time>2026-04-30T07:08:09.251Z</time></trkpt><trkpt lat="42.6150305" lon="12.5445622"><ele>332.6666666666667</ele><time>2026-04-30T07:08:10.258Z</time></trkpt><trkpt lat="42.6148706" lon="12.544483"><ele>330.3333333333333</ele><time>2026-04-30T07:08:11.269Z</time></trkpt><trkpt lat="42.6147027" lon="12.5444146"><ele>328.0</ele><time>2026-04-30T07:08:12.248Z</time></trkpt><trkpt lat="42.6145389" lon="12.5443528"><ele>330.0</ele><time>2026-04-30T07:08:13.246Z</time></trkpt><trkpt lat="42.6143825" lon="12.5442933"><ele>332.0</ele><time>2026-04-30T07:08:14.253Z</time></trkpt><trkpt lat="42.6142342" lon="12.5442337"><ele>334.0</ele><time>2026-04-30T07:08:15.242Z</time></trkpt><trkpt lat="42.6141056" lon="12.5441812"><ele>334.0</ele><time>2026-04-30T07:08:16.272Z</time></trkpt><trkpt lat="42.6139713" lon="12.5441508"><ele>334.0</ele><time>2026-04-30T07:08:17.254Z</time></trkpt><trkpt lat="42.6138413" lon="12.5441623"><ele>334.0</ele><time>2026-04-30T07:08:18.252Z</time></trkpt><trkpt lat="42.6137231" lon="12.5441999"><ele>334.0</ele><time>2026-04-30T07:08:19.248Z</time></trkpt><trkpt lat="42.613625" lon="12.5442569"><ele>335.0</ele><time>2026-04-30T07:08:20.274Z</time></trkpt><trkpt lat="42.6135378" lon="12.5443241"><ele>336.0</ele><time>2026-04-30T07:08:21.254Z</time></trkpt><trkpt lat="42.6134577" lon="12.5443927"><ele>337.0</ele><time>2026-04-30T07:08:22.263Z</time></trkpt><trkpt lat="42.6133846" lon="12.544457"><ele>338.0</ele><time>2026-04-30T07:08:23.298Z</time></trkpt><trkpt lat="42.6133243" lon="12.5445148"><ele>339.0</ele><time>2026-04-30T07:08:24.297Z</time></trkpt><trkpt lat="42.6132413" lon="12.5445973"><ele>340.0</ele><time>2026-04-30T07:08:26.286Z</time></trkpt><trkpt lat="42.6131853" lon="12.5446654"><ele>341.0</ele><time>2026-04-30T07:08:29.261Z</time></trkpt><trkpt lat="42.6131211" lon="12.5447537"><ele>342.0</ele><time>2026-04-30T07:08:32.277Z</time></trkpt><trkpt lat="42.6130373" lon="12.5448191"><ele>343.0</ele><time>2026-04-30T07:08:34.271Z</time></trkpt><trkpt lat="42.6129429" lon="12.5448864"><ele>344.0</ele><time>2026-04-30T07:08:36.286Z</time></trkpt><trkpt lat="42.6128389" lon="12.5449745"><ele>341.4</ele><time>2026-04-30T07:08:38.257Z</time></trkpt><trkpt lat="42.6127774" lon="12.5450273"><ele>338.79999999999995</ele><time>2026-04-30T07:08:39.269Z</time></trkpt><trkpt lat="42.6126988" lon="12.5450846"><ele>336.20000000000005</ele><time>2026-04-30T07:08:40.257Z</time></trkpt><trkpt lat="42.6126115" lon="12.5451494"><ele>333.6</ele><time>2026-04-30T07:08:41.253Z</time></trkpt><trkpt lat="42.6125229" lon="12.5452113"><ele>331.0</ele><time>2026-04-30T07:08:42.252Z</time></trkpt><trkpt lat="42.6124324" lon="12.5452713"><ele>331.0</ele><time>2026-04-30T07:08:43.26Z</time></trkpt><trkpt lat="42.6123363" lon="12.545337"><ele>331.0</ele><time>2026-04-30T07:08:44.276Z</time></trkpt><trkpt lat="42.6122328" lon="12.545394"><ele>331.0</ele><time>2026-04-30T07:08:45.255Z</time></trkpt><trkpt lat="42.6121331" lon="12.5454433"><ele>331.0</ele><time>2026-04-30T07:08:46.245Z</time></trkpt><trkpt lat="42.6120333" lon="12.5454768"><ele>331.0</ele><time>2026-04-30T07:08:47.261Z</time></trkpt><trkpt lat="42.611934" lon="12.5455031"><ele>330.6</ele><time>2026-04-30T07:08:48.258Z</time></trkpt><trkpt lat="42.6118364" lon="12.5455006"><ele>330.20000000000005</ele><time>2026-04-30T07:08:49.257Z</time></trkpt><trkpt lat="42.611738" lon="12.5454867"><ele>329.79999999999995</ele><time>2026-04-30T07:08:50.252Z</time></trkpt><trkpt lat="42.6116387" lon="12.5454633"><ele>329.4</ele><time>2026-04-30T07:08:51.25Z</time></trkpt><trkpt lat="42.6115362" lon="12.5454162"><ele>329.0</ele><time>2026-04-30T07:08:52.284Z</time></trkpt><trkpt lat="42.6114389" lon="12.5453431"><ele>328.0</ele><time>2026-04-30T07:08:53.27Z</time></trkpt><trkpt lat="42.6113377" lon="12.545262"><ele>327.0</ele><time>2026-04-30T07:08:54.278Z</time></trkpt><trkpt lat="42.611238" lon="12.5451736"><ele>326.0</ele><time>2026-04-30T07:08:55.265Z</time></trkpt><trkpt lat="42.6111418" lon="12.5450825"><ele>325.0</ele><time>2026-04-30T07:08:56.27Z</time></trkpt><trkpt lat="42.6110489" lon="12.5449963"><ele>323.5</ele><time>2026-04-30T07:08:57.271Z</time></trkpt><trkpt lat="42.6109543" lon="12.5449088"><ele>322.0</ele><time>2026-04-30T07:08:58.261Z</time></trkpt><trkpt lat="42.6108535" lon="12.5448139"><ele>320.5</ele><time>2026-04-30T07:08:59.279Z</time></trkpt><trkpt lat="42.6107462" lon="12.5447114"><ele>319.0</ele><time>2026-04-30T07:09:00.26Z</time></trkpt><trkpt lat="42.6106369" lon="12.5446062"><ele>320.0</ele><time>2026-04-30T07:09:01.279Z</time></trkpt><trkpt lat="42.6105323" lon="12.5445005"><ele>321.0</ele><time>2026-04-30T07:09:02.268Z</time></trkpt><trkpt lat="42.6104276" lon="12.5444025"><ele>322.0</ele><time>2026-04-30T07:09:03.273Z</time></trkpt><trkpt lat="42.6103303" lon="12.5442985"><ele>323.0</ele><time>2026-04-30T07:09:04.266Z</time></trkpt><trkpt lat="42.6102434" lon="12.544195"><ele>321.59999999999997</ele><time>2026-04-30T07:09:05.272Z</time></trkpt><trkpt lat="42.6101755" lon="12.5440827"><ele>320.2</ele><time>2026-04-30T07:09:06.283Z</time></trkpt><trkpt lat="42.6101383" lon="12.5439578"><ele>318.8</ele><time>2026-04-30T07:09:07.258Z</time></trkpt><trkpt lat="42.6101385" lon="12.5438199"><ele>317.4</ele><time>2026-04-30T07:09:08.244Z</time></trkpt><trkpt lat="42.6101591" lon="12.543672"><ele>316.0</ele><time>2026-04-30T07:09:09.273Z</time></trkpt><trkpt lat="42.6101876" lon="12.5435259"><ele>316.0</ele><time>2026-04-30T07:09:10.255Z</time></trkpt><trkpt lat="42.6102182" lon="12.5433759"><ele>316.0</ele><time>2026-04-30T07:09:11.258Z</time></trkpt><trkpt lat="42.6102394" lon="12.5432086"><ele>316.0</ele><time>2026-04-30T07:09:12.255Z</time></trkpt><trkpt lat="42.6102415" lon="12.5430283"><ele>316.0</ele><time>2026-04-30T07:09:13.255Z</time></trkpt><trkpt lat="42.6102265" lon="12.5428402"><ele>315.75</ele><time>2026-04-30T07:09:14.255Z</time></trkpt><trkpt lat="42.6101966" lon="12.5426514"><ele>315.5</ele><time>2026-04-30T07:09:15.259Z</time></trkpt><trkpt lat="42.6101576" lon="12.542458"><ele>315.25</ele><time>2026-04-30T07:09:16.241Z</time></trkpt><trkpt lat="42.610118" lon="12.5422633"><ele>315.0</ele><time>2026-04-30T07:09:17.273Z</time></trkpt><trkpt lat="42.6100745" lon="12.542069"><ele>314.25</ele><time>2026-04-30T07:09:18.245Z</time></trkpt><trkpt lat="42.6100278" lon="12.5418788"><ele>313.5</ele><time>2026-04-30T07:09:19.26Z</time></trkpt><trkpt lat="42.6099819" lon="12.5416941"><ele>312.75</ele><time>2026-04-30T07:09:20.274Z</time></trkpt><trkpt lat="42.6099408" lon="12.5415214"><ele>312.0</ele><time>2026-04-30T07:09:21.269Z</time></trkpt><trkpt lat="42.6099092" lon="12.5413565"><ele>310.4</ele><time>2026-04-30T07:09:22.258Z</time></trkpt><trkpt lat="42.6098812" lon="12.5411995"><ele>308.79999999999995</ele><time>2026-04-30T07:09:23.262Z</time></trkpt><trkpt lat="42.6098474" lon="12.541054"><ele>307.2</ele><time>2026-04-30T07:09:24.259Z</time></trkpt><trkpt lat="42.609803" lon="12.5409217"><ele>305.59999999999997</ele><time>2026-04-30T07:09:25.263Z</time></trkpt><trkpt lat="42.6097366" lon="12.5408061"><ele>304.0</ele><time>2026-04-30T07:09:26.252Z</time></trkpt><trkpt lat="42.609642" lon="12.5407255"><ele>304.0</ele><time>2026-04-30T07:09:27.252Z</time></trkpt><trkpt lat="42.6095259" lon="12.5406781"><ele>304.0</ele><time>2026-04-30T07:09:28.256Z</time></trkpt><trkpt lat="42.609388" lon="12.5406773"><ele>304.0</ele><time>2026-04-30T07:09:29.257Z</time></trkpt><trkpt lat="42.6092584" lon="12.5407071"><ele>304.0</ele><time>2026-04-30T07:09:30.251Z</time></trkpt><trkpt lat="42.6091523" lon="12.5407921"><ele>304.0</ele><time>2026-04-30T07:09:31.259Z</time></trkpt><trkpt lat="42.609075" lon="12.5409281"><ele>304.0</ele><time>2026-04-30T07:09:32.272Z</time></trkpt><trkpt lat="42.6090243" lon="12.5410927"><ele>304.0</ele><time>2026-04-30T07:09:33.259Z</time></trkpt><trkpt lat="42.6089957" lon="12.5412857"><ele>304.0</ele><time>2026-04-30T07:09:34.262Z</time></trkpt><trkpt lat="42.6089663" lon="12.5414616"><ele>304.5</ele><time>2026-04-30T07:09:35.267Z</time></trkpt><trkpt lat="42.6089318" lon="12.54164"><ele>305.0</ele><time>2026-04-30T07:09:36.258Z</time></trkpt><trkpt lat="42.60889" lon="12.5418008"><ele>305.5</ele><time>2026-04-30T07:09:37.268Z</time></trkpt><trkpt lat="42.6088455" lon="12.5419583"><ele>306.0</ele><time>2026-04-30T07:09:38.254Z</time></trkpt><trkpt lat="42.608805" lon="12.5421223"><ele>306.5</ele><time>2026-04-30T07:09:39.265Z</time></trkpt><trkpt lat="42.6087812" lon="12.5423089"><ele>307.0</ele><time>2026-04-30T07:09:40.26Z</time></trkpt><trkpt lat="42.6087838" lon="12.5425038"><ele>307.5</ele><time>2026-04-30T07:09:41.257Z</time></trkpt><trkpt lat="42.6087971" lon="12.5426876"><ele>308.0</ele><time>2026-04-30T07:09:42.241Z</time></trkpt><trkpt lat="42.6088138" lon="12.5428563"><ele>306.25</ele><time>2026-04-30T07:09:43.248Z</time></trkpt><trkpt lat="42.6088443" lon="12.5430134"><ele>304.5</ele><time>2026-04-30T07:09:44.263Z</time></trkpt><trkpt lat="42.6088927" lon="12.5431626"><ele>302.75</ele><time>2026-04-30T07:09:45.247Z</time></trkpt><trkpt lat="42.6089575" lon="12.5433008"><ele>301.0</ele><time>2026-04-30T07:09:46.259Z</time></trkpt><trkpt lat="42.6090364" lon="12.5434161"><ele>301.0</ele><time>2026-04-30T07:09:47.258Z</time></trkpt><trkpt lat="42.6091094" lon="12.543514"><ele>301.0</ele><time>2026-04-30T07:09:48.26Z</time></trkpt><trkpt lat="42.6091752" lon="12.5436126"><ele>301.0</ele><time>2026-04-30T07:09:49.276Z</time></trkpt><trkpt lat="42.6092215" lon="12.5437118"><ele>301.0</ele><time>2026-04-30T07:09:50.266Z</time></trkpt><trkpt lat="42.609245" lon="12.5438231"><ele>301.0</ele><time>2026-04-30T07:09:51.266Z</time></trkpt><trkpt lat="42.6092404" lon="12.5439343"><ele>299.8333333333333</ele><time>2026-04-30T07:09:52.264Z</time></trkpt><trkpt lat="42.6092182" lon="12.5440442"><ele>298.66666666666663</ele><time>2026-04-30T07:09:53.251Z</time></trkpt><trkpt lat="42.6091756" lon="12.5441358"><ele>297.5</ele><time>2026-04-30T07:09:54.272Z</time></trkpt><trkpt lat="42.6091029" lon="12.5441826"><ele>296.3333333333333</ele><time>2026-04-30T07:09:55.256Z</time></trkpt><trkpt lat="42.6090197" lon="12.5441885"><ele>295.1666666666667</ele><time>2026-04-30T07:09:56.252Z</time></trkpt><trkpt lat="42.6089459" lon="12.5441722"><ele>294.0</ele><time>2026-04-30T07:09:57.27Z</time></trkpt><trkpt lat="42.6088857" lon="12.5441253"><ele>294.0</ele><time>2026-04-30T07:09:58.263Z</time></trkpt><trkpt lat="42.6088303" lon="12.5440759"><ele>294.0</ele><time>2026-04-30T07:09:59.259Z</time></trkpt><trkpt lat="42.6087513" lon="12.5439729"><ele>294.0</ele><time>2026-04-30T07:10:01.257Z</time></trkpt><trkpt lat="42.6086351" lon="12.5438974"><ele>294.0</ele><time>2026-04-30T07:10:03.253Z</time></trkpt><trkpt lat="42.6085614" lon="12.5439345"><ele>294.0</ele><time>2026-04-30T07:10:04.249Z</time></trkpt><trkpt lat="42.6084949" lon="12.5440228"><ele>292.8</ele><time>2026-04-30T07:10:05.272Z</time></trkpt><trkpt lat="42.6084449" lon="12.5441355"><ele>291.59999999999997</ele><time>2026-04-30T07:10:06.262Z</time></trkpt><trkpt lat="42.6084073" lon="12.5442561"><ele>290.4</ele><time>2026-04-30T07:10:07.252Z</time></trkpt><trkpt lat="42.6083658" lon="12.5443658"><ele>289.2</ele><time>2026-04-30T07:10:08.259Z</time></trkpt><trkpt lat="42.6083114" lon="12.5444696"><ele>288.0</ele><time>2026-04-30T07:10:09.26Z</time></trkpt><trkpt lat="42.6082469" lon="12.5445617"><ele>287.0</ele><time>2026-04-30T07:10:10.254Z</time></trkpt><trkpt lat="42.6081673" lon="12.5446534"><ele>286.0</ele><time>2026-04-30T07:10:11.264Z</time></trkpt><trkpt lat="42.6080805" lon="12.5447524"><ele>285.0</ele><time>2026-04-30T07:10:12.251Z</time></trkpt><trkpt lat="42.6079941" lon="12.5448421"><ele>284.0</ele><time>2026-04-30T07:10:13.253Z</time></trkpt><trkpt lat="42.6079" lon="12.5449256"><ele>283.0</ele><time>2026-04-30T07:10:14.251Z</time></trkpt><trkpt lat="42.6078001" lon="12.545023"><ele>283.0</ele><time>2026-04-30T07:10:15.253Z</time></trkpt><trkpt lat="42.6076946" lon="12.5451197"><ele>283.0</ele><time>2026-04-30T07:10:16.243Z</time></trkpt><trkpt lat="42.607585" lon="12.5452243"><ele>283.0</ele><time>2026-04-30T07:10:17.258Z</time></trkpt><trkpt lat="42.6074677" lon="12.545339"><ele>283.0</ele><time>2026-04-30T07:10:18.249Z</time></trkpt><trkpt lat="42.6073557" lon="12.5454538"><ele>282.75</ele><time>2026-04-30T07:10:19.263Z</time></trkpt><trkpt lat="42.6072483" lon="12.545571"><ele>282.5</ele><time>2026-04-30T07:10:20.271Z</time></trkpt><trkpt lat="42.6071421" lon="12.54568"><ele>282.25</ele><time>2026-04-30T07:10:21.301Z</time></trkpt><trkpt lat="42.607035" lon="12.5457904"><ele>282.0</ele><time>2026-04-30T07:10:22.267Z</time></trkpt><trkpt lat="42.606926" lon="12.5459068"><ele>281.0</ele><time>2026-04-30T07:10:23.267Z</time></trkpt><trkpt lat="42.6068185" lon="12.5460185"><ele>280.0</ele><time>2026-04-30T07:10:24.283Z</time></trkpt><trkpt lat="42.6067057" lon="12.5461275"><ele>279.0</ele><time>2026-04-30T07:10:25.264Z</time></trkpt><trkpt lat="42.6065868" lon="12.5462388"><ele>278.0</ele><time>2026-04-30T07:10:26.259Z</time></trkpt><trkpt lat="42.6064653" lon="12.5463541"><ele>277.6666666666667</ele><time>2026-04-30T07:10:27.274Z</time></trkpt><trkpt lat="42.6063406" lon="12.5464774"><ele>277.3333333333333</ele><time>2026-04-30T07:10:28.279Z</time></trkpt><trkpt lat="42.6062096" lon="12.5466074"><ele>277.0</ele><time>2026-04-30T07:10:29.27Z</time></trkpt><trkpt lat="42.6060782" lon="12.5467396"><ele>276.0</ele><time>2026-04-30T07:10:30.258Z</time></trkpt><trkpt lat="42.6059443" lon="12.5468674"><ele>275.0</ele><time>2026-04-30T07:10:31.284Z</time></trkpt><trkpt lat="42.605815" lon="12.5469984"><ele>274.0</ele><time>2026-04-30T07:10:32.279Z</time></trkpt><trkpt lat="42.6056909" lon="12.5471345"><ele>274.0</ele><time>2026-04-30T07:10:33.252Z</time></trkpt><trkpt lat="42.6055706" lon="12.5472737"><ele>274.0</ele><time>2026-04-30T07:10:34.253Z</time></trkpt><trkpt lat="42.6054583" lon="12.5474278"><ele>274.0</ele><time>2026-04-30T07:10:35.259Z</time></trkpt><trkpt lat="42.6053534" lon="12.5475925"><ele>274.3333333333333</ele><time>2026-04-30T07:10:36.257Z</time></trkpt><trkpt lat="42.6052547" lon="12.547757"><ele>274.6666666666667</ele><time>2026-04-30T07:10:37.251Z</time></trkpt><trkpt lat="42.6051529" lon="12.547924"><ele>275.0</ele><time>2026-04-30T07:10:38.258Z</time></trkpt><trkpt lat="42.6050452" lon="12.5480739"><ele>276.0</ele><time>2026-04-30T07:10:39.246Z</time></trkpt><trkpt lat="42.6049281" lon="12.5482053"><ele>277.0</ele><time>2026-04-30T07:10:40.254Z</time></trkpt><trkpt lat="42.6047988" lon="12.5483054"><ele>278.0</ele><time>2026-04-30T07:10:41.258Z</time></trkpt><trkpt lat="42.6046788" lon="12.5483843"><ele>279.0</ele><time>2026-04-30T07:10:42.246Z</time></trkpt><trkpt lat="42.604564" lon="12.5484524"><ele>278.5</ele><time>2026-04-30T07:10:43.264Z</time></trkpt><trkpt lat="42.6044496" lon="12.5485271"><ele>278.0</ele><time>2026-04-30T07:10:44.251Z</time></trkpt><trkpt lat="42.6043426" lon="12.5486345"><ele>277.5</ele><time>2026-04-30T07:10:45.258Z</time></trkpt><trkpt lat="42.6042457" lon="12.5487642"><ele>277.0</ele><time>2026-04-30T07:10:46.256Z</time></trkpt><trkpt lat="42.6041502" lon="12.5488878"><ele>277.0</ele><time>2026-04-30T07:10:47.26Z</time></trkpt><trkpt lat="42.6040538" lon="12.5490164"><ele>277.0</ele><time>2026-04-30T07:10:48.271Z</time></trkpt><trkpt lat="42.6039535" lon="12.5491463"><ele>277.0</ele><time>2026-04-30T07:10:49.251Z</time></trkpt><trkpt lat="42.6038481" lon="12.5492843"><ele>277.0</ele><time>2026-04-30T07:10:50.248Z</time></trkpt><trkpt lat="42.6037405" lon="12.5494171"><ele>275.5</ele><time>2026-04-30T07:10:51.242Z</time></trkpt><trkpt lat="42.6036316" lon="12.549544"><ele>274.0</ele><time>2026-04-30T07:10:52.25Z</time></trkpt><trkpt lat="42.6035199" lon="12.5496629"><ele>272.5</ele><time>2026-04-30T07:10:53.257Z</time></trkpt><trkpt lat="42.6033897" lon="12.5497662"><ele>271.0</ele><time>2026-04-30T07:10:54.255Z</time></trkpt><trkpt lat="42.6032393" lon="12.5498512"><ele>271.0</ele><time>2026-04-30T07:10:55.25Z</time></trkpt><trkpt lat="42.6030733" lon="12.5499262"><ele>271.0</ele><time>2026-04-30T07:10:56.254Z</time></trkpt><trkpt lat="42.6029005" lon="12.5499898"><ele>271.0</ele><time>2026-04-30T07:10:57.283Z</time></trkpt><trkpt lat="42.6027331" lon="12.5500465"><ele>267.66666666666663</ele><time>2026-04-30T07:10:58.266Z</time></trkpt><trkpt lat="42.6025737" lon="12.5501001"><ele>264.3333333333333</ele><time>2026-04-30T07:10:59.245Z</time></trkpt><trkpt lat="42.6024164" lon="12.5501554"><ele>261.0</ele><time>2026-04-30T07:11:00.27Z</time></trkpt><trkpt lat="42.6022583" lon="12.5502059"><ele>261.0</ele><time>2026-04-30T07:11:01.272Z</time></trkpt><trkpt lat="42.602097" lon="12.5502601"><ele>261.0</ele><time>2026-04-30T07:11:02.275Z</time></trkpt><trkpt lat="42.6019382" lon="12.5503149"><ele>261.0</ele><time>2026-04-30T07:11:03.248Z</time></trkpt><trkpt lat="42.6017825" lon="12.5503714"><ele>257.0</ele><time>2026-04-30T07:11:04.271Z</time></trkpt><trkpt lat="42.6016266" lon="12.5504364"><ele>253.0</ele><time>2026-04-30T07:11:05.276Z</time></trkpt><trkpt lat="42.6014754" lon="12.5505213"><ele>249.0</ele><time>2026-04-30T07:11:06.256Z</time></trkpt><trkpt lat="42.6013309" lon="12.5506323"><ele>249.0</ele><time>2026-04-30T07:11:07.259Z</time></trkpt><trkpt lat="42.6011849" lon="12.5507714"><ele>249.0</ele><time>2026-04-30T07:11:08.254Z</time></trkpt><trkpt lat="42.6010515" lon="12.5509173"><ele>249.0</ele><time>2026-04-30T07:11:09.254Z</time></trkpt><trkpt lat="42.60093" lon="12.5510672"><ele>246.0</ele><time>2026-04-30T07:11:10.246Z</time></trkpt><trkpt lat="42.6008183" lon="12.551225"><ele>243.0</ele><time>2026-04-30T07:11:11.249Z</time></trkpt><trkpt lat="42.6007094" lon="12.5513931"><ele>240.0</ele><time>2026-04-30T07:11:12.256Z</time></trkpt><trkpt lat="42.6006064" lon="12.5515817"><ele>240.0</ele><time>2026-04-30T07:11:13.251Z</time></trkpt><trkpt lat="42.6005143" lon="12.551788"><ele>240.0</ele><time>2026-04-30T07:11:14.261Z</time></trkpt><trkpt lat="42.600431" lon="12.5520078"><ele>240.0</ele><time>2026-04-30T07:11:15.263Z</time></trkpt><trkpt lat="42.6003529" lon="12.5522425"><ele>237.0</ele><time>2026-04-30T07:11:16.265Z</time></trkpt><trkpt lat="42.6002887" lon="12.5524833"><ele>234.0</ele><time>2026-04-30T07:11:17.25Z</time></trkpt><trkpt lat="42.6002417" lon="12.5527328"><ele>231.0</ele><time>2026-04-30T07:11:18.254Z</time></trkpt><trkpt lat="42.6002102" lon="12.5529961"><ele>231.0</ele><time>2026-04-30T07:11:19.25Z</time></trkpt><trkpt lat="42.6001923" lon="12.5532571"><ele>231.0</ele><time>2026-04-30T07:11:20.254Z</time></trkpt><trkpt lat="42.6001885" lon="12.5535245"><ele>231.0</ele><time>2026-04-30T07:11:21.266Z</time></trkpt><trkpt lat="42.6002028" lon="12.5537835"><ele>231.66666666666669</ele><time>2026-04-30T07:11:22.253Z</time></trkpt><trkpt lat="42.60023" lon="12.5540308"><ele>232.33333333333334</ele><time>2026-04-30T07:11:23.258Z</time></trkpt><trkpt lat="42.6002649" lon="12.5542708"><ele>233.0</ele><time>2026-04-30T07:11:24.259Z</time></trkpt><trkpt lat="42.600304" lon="12.5545092"><ele>232.66666666666669</ele><time>2026-04-30T07:11:25.251Z</time></trkpt><trkpt lat="42.6003327" lon="12.5547483"><ele>232.33333333333331</ele><time>2026-04-30T07:11:26.252Z</time></trkpt><trkpt lat="42.6003429" lon="12.5549866"><ele>232.0</ele><time>2026-04-30T07:11:27.253Z</time></trkpt><trkpt lat="42.6003431" lon="12.5552389"><ele>233.66666666666666</ele><time>2026-04-30T07:11:28.247Z</time></trkpt><trkpt lat="42.6003418" lon="12.5555009"><ele>235.33333333333331</ele><time>2026-04-30T07:11:29.271Z</time></trkpt><trkpt lat="42.6003405" lon="12.5557507"><ele>237.0</ele><time>2026-04-30T07:11:30.258Z</time></trkpt><trkpt lat="42.6003375" lon="12.5559881"><ele>239.33333333333331</ele><time>2026-04-30T07:11:31.255Z</time></trkpt><trkpt lat="42.6003377" lon="12.556209"><ele>241.66666666666666</ele><time>2026-04-30T07:11:32.245Z</time></trkpt><trkpt lat="42.6003357" lon="12.5564217"><ele>244.0</ele><time>2026-04-30T07:11:33.248Z</time></trkpt><trkpt lat="42.6003338" lon="12.5566045"><ele>238.75</ele><time>2026-04-30T07:11:34.252Z</time></trkpt><trkpt lat="42.6003327" lon="12.5567742"><ele>233.5</ele><time>2026-04-30T07:11:35.244Z</time></trkpt><trkpt lat="42.6003288" lon="12.5569438"><ele>228.25</ele><time>2026-04-30T07:11:36.269Z</time></trkpt><trkpt lat="42.6003034" lon="12.557105"><ele>223.0</ele><time>2026-04-30T07:11:37.254Z</time></trkpt><trkpt lat="42.6002578" lon="12.5572546"><ele>222.5</ele><time>2026-04-30T07:11:38.249Z</time></trkpt><trkpt lat="42.6002025" lon="12.5573837"><ele>222.0</ele><time>2026-04-30T07:11:39.271Z</time></trkpt><trkpt lat="42.6001203" lon="12.557495"><ele>221.5</ele><time>2026-04-30T07:11:40.247Z</time></trkpt><trkpt lat="42.6000194" lon="12.557571"><ele>221.0</ele><time>2026-04-30T07:11:41.27Z</time></trkpt><trkpt lat="42.5999038" lon="12.5576014"><ele>221.0</ele><time>2026-04-30T07:11:42.263Z</time></trkpt><trkpt lat="42.5997875" lon="12.5576012"><ele>221.0</ele><time>2026-04-30T07:11:43.251Z</time></trkpt><trkpt lat="42.5996639" lon="12.5575544"><ele>221.0</ele><time>2026-04-30T07:11:44.26Z</time></trkpt><trkpt lat="42.5995443" lon="12.557475"><ele>221.0</ele><time>2026-04-30T07:11:45.244Z</time></trkpt><trkpt lat="42.5994521" lon="12.5573606"><ele>218.0</ele><time>2026-04-30T07:11:46.251Z</time></trkpt><trkpt lat="42.5993864" lon="12.5572238"><ele>215.0</ele><time>2026-04-30T07:11:47.259Z</time></trkpt><trkpt lat="42.5993424" lon="12.5570682"><ele>212.0</ele><time>2026-04-30T07:11:48.253Z</time></trkpt><trkpt lat="42.5993097" lon="12.5569001"><ele>209.0</ele><time>2026-04-30T07:11:49.248Z</time></trkpt><trkpt lat="42.5992838" lon="12.5567278"><ele>209.0</ele><time>2026-04-30T07:11:50.25Z</time></trkpt><trkpt lat="42.5992607" lon="12.5565509"><ele>209.0</ele><time>2026-04-30T07:11:51.269Z</time></trkpt><trkpt lat="42.5992427" lon="12.55636"><ele>209.0</ele><time>2026-04-30T07:11:52.257Z</time></trkpt><trkpt lat="42.5992335" lon="12.5561897"><ele>209.0</ele><time>2026-04-30T07:11:53.249Z</time></trkpt><trkpt lat="42.5992332" lon="12.5560252"><ele>210.25</ele><time>2026-04-30T07:11:54.25Z</time></trkpt><trkpt lat="42.5992308" lon="12.5558599"><ele>211.5</ele><time>2026-04-30T07:11:55.266Z</time></trkpt><trkpt lat="42.5992276" lon="12.5556896"><ele>212.75</ele><time>2026-04-30T07:11:56.258Z</time></trkpt><trkpt lat="42.5992174" lon="12.5555214"><ele>214.0</ele><time>2026-04-30T07:11:57.262Z</time></trkpt><trkpt lat="42.59919" lon="12.5553556"><ele>215.25</ele><time>2026-04-30T07:11:58.251Z</time></trkpt><trkpt lat="42.599145" lon="12.5551985"><ele>216.5</ele><time>2026-04-30T07:11:59.266Z</time></trkpt><trkpt lat="42.5990737" lon="12.555039"><ele>217.75</ele><time>2026-04-30T07:12:00.248Z</time></trkpt><trkpt lat="42.5989866" lon="12.5549007"><ele>219.0</ele><time>2026-04-30T07:12:01.249Z</time></trkpt><trkpt lat="42.5988852" lon="12.5547877"><ele>219.0</ele><time>2026-04-30T07:12:02.247Z</time></trkpt><trkpt lat="42.5987726" lon="12.5547067"><ele>219.0</ele><time>2026-04-30T07:12:03.255Z</time></trkpt><trkpt lat="42.5986501" lon="12.5546636"><ele>219.0</ele><time>2026-04-30T07:12:04.267Z</time></trkpt><trkpt lat="42.5985279" lon="12.5546465"><ele>219.0</ele><time>2026-04-30T07:12:05.247Z</time></trkpt><trkpt lat="42.5984051" lon="12.5546514"><ele>216.5</ele><time>2026-04-30T07:12:06.25Z</time></trkpt><trkpt lat="42.5982796" lon="12.5546682"><ele>214.0</ele><time>2026-04-30T07:12:07.272Z</time></trkpt><trkpt lat="42.5981543" lon="12.5547256"><ele>211.5</ele><time>2026-04-30T07:12:08.284Z</time></trkpt><trkpt lat="42.5980285" lon="12.5548249"><ele>209.0</ele><time>2026-04-30T07:12:09.265Z</time></trkpt><trkpt lat="42.5979273" lon="12.5549689"><ele>209.0</ele><time>2026-04-30T07:12:10.271Z</time></trkpt><trkpt lat="42.597846" lon="12.5551336"><ele>209.0</ele><time>2026-04-30T07:12:11.247Z</time></trkpt><trkpt lat="42.5977836" lon="12.5553545"><ele>209.0</ele><time>2026-04-30T07:12:12.271Z</time></trkpt><trkpt lat="42.5977119" lon="12.5556231"><ele>204.5</ele><time>2026-04-30T07:12:13.273Z</time></trkpt><trkpt lat="42.5976217" lon="12.5559259"><ele>200.0</ele><time>2026-04-30T07:12:14.252Z</time></trkpt><trkpt lat="42.5975281" lon="12.5562308"><ele>199.0</ele><time>2026-04-30T07:12:15.26Z</time></trkpt><trkpt lat="42.5974463" lon="12.5565043"><ele>198.0</ele><time>2026-04-30T07:12:16.268Z</time></trkpt><trkpt lat="42.5973591" lon="12.5567846"><ele>197.0</ele><time>2026-04-30T07:12:17.254Z</time></trkpt><trkpt lat="42.5972713" lon="12.5570697"><ele>195.33333333333334</ele><time>2026-04-30T07:12:18.263Z</time></trkpt><trkpt lat="42.5971896" lon="12.5573318"><ele>193.66666666666669</ele><time>2026-04-30T07:12:19.254Z</time></trkpt><trkpt lat="42.5971087" lon="12.5575543"><ele>192.0</ele><time>2026-04-30T07:12:20.264Z</time></trkpt><trkpt lat="42.5970127" lon="12.5577685"><ele>191.33333333333334</ele><time>2026-04-30T07:12:21.262Z</time></trkpt><trkpt lat="42.5969081" lon="12.5579815"><ele>190.66666666666669</ele><time>2026-04-30T07:12:22.247Z</time></trkpt><trkpt lat="42.5967975" lon="12.5581789"><ele>190.0</ele><time>2026-04-30T07:12:23.263Z</time></trkpt><trkpt lat="42.5966875" lon="12.5583594"><ele>190.0</ele><time>2026-04-30T07:12:24.261Z</time></trkpt><trkpt lat="42.5965856" lon="12.5585213"><ele>190.0</ele><time>2026-04-30T07:12:25.267Z</time></trkpt><trkpt lat="42.5964956" lon="12.5586762"><ele>190.0</ele><time>2026-04-30T07:12:26.273Z</time></trkpt><trkpt lat="42.5964126" lon="12.558813"><ele>190.0</ele><time>2026-04-30T07:12:27.268Z</time></trkpt><trkpt lat="42.5963419" lon="12.5589458"><ele>188.66666666666669</ele><time>2026-04-30T07:12:28.247Z</time></trkpt><trkpt lat="42.5962759" lon="12.5591285"><ele>187.33333333333334</ele><time>2026-04-30T07:12:29.273Z</time></trkpt><trkpt lat="42.5962177" lon="12.5593781"><ele>186.0</ele><time>2026-04-30T07:12:30.262Z</time></trkpt><trkpt lat="42.5961468" lon="12.5596583"><ele>181.0</ele><time>2026-04-30T07:12:31.262Z</time></trkpt><trkpt lat="42.5960618" lon="12.5599522"><ele>176.0</ele><time>2026-04-30T07:12:32.262Z</time></trkpt><trkpt lat="42.5959647" lon="12.5602444"><ele>175.66666666666666</ele><time>2026-04-30T07:12:33.247Z</time></trkpt><trkpt lat="42.5958557" lon="12.5605049"><ele>175.33333333333334</ele><time>2026-04-30T07:12:34.268Z</time></trkpt><trkpt lat="42.5957412" lon="12.5607492"><ele>175.0</ele><time>2026-04-30T07:12:35.25Z</time></trkpt><trkpt lat="42.5956277" lon="12.5609832"><ele>174.33333333333334</ele><time>2026-04-30T07:12:36.246Z</time></trkpt><trkpt lat="42.5955235" lon="12.5612099"><ele>173.66666666666666</ele><time>2026-04-30T07:12:37.26Z</time></trkpt><trkpt lat="42.5954231" lon="12.5614316"><ele>173.0</ele><time>2026-04-30T07:12:38.256Z</time></trkpt><trkpt lat="42.5953251" lon="12.5616447"><ele>169.66666666666666</ele><time>2026-04-30T07:12:39.254Z</time></trkpt><trkpt lat="42.595223" lon="12.5618425"><ele>166.33333333333334</ele><time>2026-04-30T07:12:40.263Z</time></trkpt><trkpt lat="42.5951161" lon="12.5620234"><ele>163.0</ele><time>2026-04-30T07:12:41.258Z</time></trkpt><trkpt lat="42.594987" lon="12.5621662"><ele>162.33333333333334</ele><time>2026-04-30T07:12:42.265Z</time></trkpt><trkpt lat="42.5948344" lon="12.5622618"><ele>161.66666666666666</ele><time>2026-04-30T07:12:43.246Z</time></trkpt><trkpt lat="42.5946581" lon="12.5623205"><ele>161.0</ele><time>2026-04-30T07:12:44.251Z</time></trkpt><trkpt lat="42.5944696" lon="12.5623516"><ele>159.66666666666666</ele><time>2026-04-30T07:12:45.254Z</time></trkpt><trkpt lat="42.594268" lon="12.5623815"><ele>158.33333333333334</ele><time>2026-04-30T07:12:46.248Z</time></trkpt><trkpt lat="42.5940597" lon="12.5624131"><ele>157.0</ele><time>2026-04-30T07:12:47.265Z</time></trkpt><trkpt lat="42.5938528" lon="12.5624523"><ele>154.66666666666669</ele><time>2026-04-30T07:12:48.243Z</time></trkpt><trkpt lat="42.5936388" lon="12.5624918"><ele>152.33333333333334</ele><time>2026-04-30T07:12:49.258Z</time></trkpt><trkpt lat="42.593435" lon="12.5625271"><ele>150.0</ele><time>2026-04-30T07:12:50.261Z</time></trkpt><trkpt lat="42.5932453" lon="12.5625578"><ele>150.0</ele><time>2026-04-30T07:12:51.251Z</time></trkpt><trkpt lat="42.593067" lon="12.5625971"><ele>150.0</ele><time>2026-04-30T07:12:52.269Z</time></trkpt><trkpt lat="42.5928979" lon="12.5626559"><ele>150.0</ele><time>2026-04-30T07:12:53.247Z</time></trkpt><trkpt lat="42.5927493" lon="12.5627541"><ele>150.0</ele><time>2026-04-30T07:12:54.262Z</time></trkpt><trkpt lat="42.5926122" lon="12.5628955"><ele>150.0</ele><time>2026-04-30T07:12:55.26Z</time></trkpt><trkpt lat="42.5924962" lon="12.5630623"><ele>150.0</ele><time>2026-04-30T07:12:56.267Z</time></trkpt><trkpt lat="42.5924035" lon="12.5632476"><ele>150.0</ele><time>2026-04-30T07:12:57.253Z</time></trkpt><trkpt lat="42.5923439" lon="12.5634458"><ele>150.0</ele><time>2026-04-30T07:12:58.27Z</time></trkpt><trkpt lat="42.5923077" lon="12.5636684"><ele>150.0</ele><time>2026-04-30T07:12:59.262Z</time></trkpt><trkpt lat="42.5922953" lon="12.5639097"><ele>150.0</ele><time>2026-04-30T07:13:00.258Z</time></trkpt><trkpt lat="42.5922974" lon="12.5641701"><ele>150.0</ele><time>2026-04-30T07:13:01.243Z</time></trkpt><trkpt lat="42.5922972" lon="12.5644361"><ele>150.0</ele><time>2026-04-30T07:13:02.256Z</time></trkpt><trkpt lat="42.5922973" lon="12.5646884"><ele>150.0</ele><time>2026-04-30T07:13:03.266Z</time></trkpt><trkpt lat="42.5922935" lon="12.5649319"><ele>150.0</ele><time>2026-04-30T07:13:04.253Z</time></trkpt><trkpt lat="42.5922894" lon="12.5651737"><ele>150.0</ele><time>2026-04-30T07:13:05.244Z</time></trkpt><trkpt lat="42.592289" lon="12.565417"><ele>149.66666666666666</ele><time>2026-04-30T07:13:06.253Z</time></trkpt><trkpt lat="42.5922885" lon="12.5656454"><ele>149.33333333333331</ele><time>2026-04-30T07:13:07.251Z</time></trkpt><trkpt lat="42.5922894" lon="12.5658767"><ele>149.0</ele><time>2026-04-30T07:13:08.255Z</time></trkpt><trkpt lat="42.5922909" lon="12.5661103"><ele>149.33333333333331</ele><time>2026-04-30T07:13:09.269Z</time></trkpt><trkpt lat="42.5922935" lon="12.5663411"><ele>149.66666666666666</ele><time>2026-04-30T07:13:10.272Z</time></trkpt><trkpt lat="42.5922977" lon="12.5665711"><ele>150.0</ele><time>2026-04-30T07:13:11.262Z</time></trkpt><trkpt lat="42.5922991" lon="12.5668027"><ele>150.66666666666666</ele><time>2026-04-30T07:13:12.249Z</time></trkpt><trkpt lat="42.5922971" lon="12.5670364"><ele>151.33333333333331</ele><time>2026-04-30T07:13:13.261Z</time></trkpt><trkpt lat="42.5922953" lon="12.5672686"><ele>152.0</ele><time>2026-04-30T07:13:14.269Z</time></trkpt><trkpt lat="42.5922968" lon="12.5674968"><ele>152.0</ele><time>2026-04-30T07:13:15.262Z</time></trkpt><trkpt lat="42.592296" lon="12.5677253"><ele>152.0</ele><time>2026-04-30T07:13:16.245Z</time></trkpt><trkpt lat="42.5922968" lon="12.5679553"><ele>152.0</ele><time>2026-04-30T07:13:17.263Z</time></trkpt><trkpt lat="42.5922973" lon="12.5681835"><ele>152.33333333333331</ele><time>2026-04-30T07:13:18.263Z</time></trkpt><trkpt lat="42.5922983" lon="12.5684105"><ele>152.66666666666666</ele><time>2026-04-30T07:13:19.25Z</time></trkpt><trkpt lat="42.5923024" lon="12.5686381"><ele>153.0</ele><time>2026-04-30T07:13:20.277Z</time></trkpt><trkpt lat="42.5923045" lon="12.5688686"><ele>154.33333333333334</ele><time>2026-04-30T07:13:21.249Z</time></trkpt><trkpt lat="42.5922992" lon="12.569099"><ele>155.66666666666669</ele><time>2026-04-30T07:13:22.25Z</time></trkpt><trkpt lat="42.5922891" lon="12.5693277"><ele>157.0</ele><time>2026-04-30T07:13:23.247Z</time></trkpt><trkpt lat="42.5922648" lon="12.5695521"><ele>157.33333333333334</ele><time>2026-04-30T07:13:24.264Z</time></trkpt><trkpt lat="42.5922207" lon="12.5697771"><ele>157.66666666666666</ele><time>2026-04-30T07:13:25.279Z</time></trkpt><trkpt lat="42.5921619" lon="12.5699987"><ele>158.0</ele><time>2026-04-30T07:13:26.248Z</time></trkpt><trkpt lat="42.5920932" lon="12.5702161"><ele>158.0</ele><time>2026-04-30T07:13:27.263Z</time></trkpt><trkpt lat="42.5920148" lon="12.5704215"><ele>158.0</ele><time>2026-04-30T07:13:28.248Z</time></trkpt><trkpt lat="42.591942" lon="12.5706355"><ele>158.0</ele><time>2026-04-30T07:13:29.263Z</time></trkpt><trkpt lat="42.5918638" lon="12.570841"><ele>157.0</ele><time>2026-04-30T07:13:30.248Z</time></trkpt><trkpt lat="42.5917825" lon="12.5710461"><ele>156.0</ele><time>2026-04-30T07:13:31.258Z</time></trkpt><trkpt lat="42.5917011" lon="12.5712494"><ele>155.0</ele><time>2026-04-30T07:13:32.246Z</time></trkpt><trkpt lat="42.5916282" lon="12.5714644"><ele>155.0</ele><time>2026-04-30T07:13:33.257Z</time></trkpt><trkpt lat="42.5915587" lon="12.5716907"><ele>155.0</ele><time>2026-04-30T07:13:34.247Z</time></trkpt><trkpt lat="42.5914991" lon="12.5719172"><ele>155.0</ele><time>2026-04-30T07:13:35.259Z</time></trkpt><trkpt lat="42.5914415" lon="12.5721421"><ele>154.33333333333331</ele><time>2026-04-30T07:13:36.26Z</time></trkpt><trkpt lat="42.5913803" lon="12.5723654"><ele>153.66666666666666</ele><time>2026-04-30T07:13:37.274Z</time></trkpt><trkpt lat="42.5913198" lon="12.5725857"><ele>153.0</ele><time>2026-04-30T07:13:38.245Z</time></trkpt><trkpt lat="42.5912576" lon="12.5728025"><ele>153.33333333333334</ele><time>2026-04-30T07:13:39.254Z</time></trkpt><trkpt lat="42.5911971" lon="12.5730201"><ele>153.66666666666669</ele><time>2026-04-30T07:13:40.25Z</time></trkpt><trkpt lat="42.5911317" lon="12.5732423"><ele>154.0</ele><time>2026-04-30T07:13:41.268Z</time></trkpt><trkpt lat="42.5910663" lon="12.5734626"><ele>153.0</ele><time>2026-04-30T07:13:42.252Z</time></trkpt><trkpt lat="42.590999" lon="12.5736844"><ele>152.0</ele><time>2026-04-30T07:13:43.266Z</time></trkpt><trkpt lat="42.5909329" lon="12.5738921"><ele>151.0</ele><time>2026-04-30T07:13:44.254Z</time></trkpt><trkpt lat="42.5908704" lon="12.574087"><ele>151.0</ele><time>2026-04-30T07:13:45.252Z</time></trkpt><trkpt lat="42.5908076" lon="12.574279"><ele>151.0</ele><time>2026-04-30T07:13:46.258Z</time></trkpt><trkpt lat="42.5907551" lon="12.5744698"><ele>151.0</ele><time>2026-04-30T07:13:47.25Z</time></trkpt><trkpt lat="42.5907024" lon="12.5746609"><ele>151.66666666666669</ele><time>2026-04-30T07:13:48.247Z</time></trkpt><trkpt lat="42.5906558" lon="12.574854"><ele>152.33333333333334</ele><time>2026-04-30T07:13:49.256Z</time></trkpt><trkpt lat="42.590616" lon="12.5750507"><ele>153.0</ele><time>2026-04-30T07:13:50.256Z</time></trkpt><trkpt lat="42.590581" lon="12.5752499"><ele>153.33333333333334</ele><time>2026-04-30T07:13:51.251Z</time></trkpt><trkpt lat="42.5905607" lon="12.575451"><ele>153.66666666666669</ele><time>2026-04-30T07:13:52.264Z</time></trkpt><trkpt lat="42.5905538" lon="12.5756581"><ele>154.0</ele><time>2026-04-30T07:13:53.248Z</time></trkpt><trkpt lat="42.5905428" lon="12.5758607"><ele>154.0</ele><time>2026-04-30T07:13:54.263Z</time></trkpt><trkpt lat="42.5905313" lon="12.5760588"><ele>154.0</ele><time>2026-04-30T07:13:55.275Z</time></trkpt><trkpt lat="42.5905228" lon="12.5762465"><ele>154.0</ele><time>2026-04-30T07:13:56.255Z</time></trkpt><trkpt lat="42.5905111" lon="12.5764143"><ele>154.0</ele><time>2026-04-30T07:13:57.256Z</time></trkpt><trkpt lat="42.590499" lon="12.5765772"><ele>154.0</ele><time>2026-04-30T07:13:58.243Z</time></trkpt><trkpt lat="42.5904881" lon="12.5767405"><ele>154.0</ele><time>2026-04-30T07:13:59.265Z</time></trkpt><trkpt lat="42.5904775" lon="12.5769019"><ele>154.0</ele><time>2026-04-30T07:14:00.26Z</time></trkpt><trkpt lat="42.5904704" lon="12.5770647"><ele>154.0</ele><time>2026-04-30T07:14:01.265Z</time></trkpt><trkpt lat="42.5904641" lon="12.5772209"><ele>154.0</ele><time>2026-04-30T07:14:02.258Z</time></trkpt><trkpt lat="42.5904562" lon="12.5773732"><ele>154.0</ele><time>2026-04-30T07:14:03.266Z</time></trkpt><trkpt lat="42.5904468" lon="12.5775346"><ele>154.0</ele><time>2026-04-30T07:14:04.252Z</time></trkpt><trkpt lat="42.5904371" lon="12.5777051"><ele>154.0</ele><time>2026-04-30T07:14:05.275Z</time></trkpt><trkpt lat="42.5904279" lon="12.5778739"><ele>153.75</ele><time>2026-04-30T07:14:06.252Z</time></trkpt><trkpt lat="42.5904181" lon="12.5780447"><ele>153.5</ele><time>2026-04-30T07:14:07.263Z</time></trkpt><trkpt lat="42.5904087" lon="12.578211"><ele>153.25</ele><time>2026-04-30T07:14:08.255Z</time></trkpt><trkpt lat="42.5904005" lon="12.5783835"><ele>153.0</ele><time>2026-04-30T07:14:09.265Z</time></trkpt><trkpt lat="42.5903919" lon="12.5785643"><ele>152.75</ele><time>2026-04-30T07:14:10.264Z</time></trkpt><trkpt lat="42.5903762" lon="12.5787433"><ele>152.5</ele><time>2026-04-30T07:14:11.253Z</time></trkpt><trkpt lat="42.5903597" lon="12.5789274"><ele>152.25</ele><time>2026-04-30T07:14:12.259Z</time></trkpt><trkpt lat="42.5903476" lon="12.5791122"><ele>152.0</ele><time>2026-04-30T07:14:13.254Z</time></trkpt><trkpt lat="42.5903352" lon="12.5793002"><ele>152.0</ele><time>2026-04-30T07:14:14.259Z</time></trkpt><trkpt lat="42.5903279" lon="12.5794799"><ele>152.0</ele><time>2026-04-30T07:14:15.264Z</time></trkpt><trkpt lat="42.5903159" lon="12.5796506"><ele>152.0</ele><time>2026-04-30T07:14:16.264Z</time></trkpt><trkpt lat="42.5903025" lon="12.5798128"><ele>152.0</ele><time>2026-04-30T07:14:17.265Z</time></trkpt><trkpt lat="42.5902912" lon="12.5799666"><ele>152.79999999999998</ele><time>2026-04-30T07:14:18.254Z</time></trkpt><trkpt lat="42.5902795" lon="12.5801122"><ele>153.6</ele><time>2026-04-30T07:14:19.247Z</time></trkpt><trkpt lat="42.5902686" lon="12.5802523"><ele>154.39999999999998</ele><time>2026-04-30T07:14:20.274Z</time></trkpt><trkpt lat="42.5902607" lon="12.5803895"><ele>155.2</ele><time>2026-04-30T07:14:21.261Z</time></trkpt><trkpt lat="42.5902511" lon="12.5805261"><ele>156.0</ele><time>2026-04-30T07:14:22.238Z</time></trkpt><trkpt lat="42.5902405" lon="12.5806648"><ele>156.33333333333334</ele><time>2026-04-30T07:14:23.257Z</time></trkpt><trkpt lat="42.5902309" lon="12.5808014"><ele>156.66666666666666</ele><time>2026-04-30T07:14:24.259Z</time></trkpt><trkpt lat="42.5902263" lon="12.5809212"><ele>157.0</ele><time>2026-04-30T07:14:25.255Z</time></trkpt><trkpt lat="42.5902226" lon="12.5810291"><ele>157.33333333333331</ele><time>2026-04-30T07:14:26.253Z</time></trkpt><trkpt lat="42.5902175" lon="12.5811207"><ele>157.66666666666666</ele><time>2026-04-30T07:14:27.258Z</time></trkpt><trkpt lat="42.5902118" lon="12.5812533"><ele>158.0</ele><time>2026-04-30T07:14:29.256Z</time></trkpt><trkpt lat="42.5902406" lon="12.5813351"><ele>158.0</ele><time>2026-04-30T07:14:31.268Z</time></trkpt><trkpt lat="42.590303" lon="12.5813199"><ele>158.0</ele><time>2026-04-30T07:14:34.275Z</time></trkpt><trkpt lat="42.590308" lon="12.5812199"><ele>158.0</ele><time>2026-04-30T07:14:38.263Z</time></trkpt></trkseg></trk></gpx>